Date StartTime U_cm/s V_cm/s W_cm/s Ustd_cm/s Vstd_cm/s Wstd_cm/s Uvar_(cm/s)^2 Vvar_(cm/s)^2 Wvar_(cm/s)^2 KE_(m/s)^2 TurbulentKE_(m/s)^2 HorizWindSpeed_cm/s FrictionSpeec_cm/s DragCoef SpeedOfSound_m/s SonicTemperature_C Pressure_mb 
08/31/2014  00:00:00     -242.224     -154.684      -12.514      149.087      125.576       66.791    22227.072    15769.373     4461.098        6.260        2.123      287.402       62.204        0.047      344.475       21.318      859.984
08/31/2014  00:01:00     -371.075      -50.795      -13.383      173.327      108.613       74.784    30042.238    11796.710     5592.634        9.393        2.372      374.535       89.900        0.058      344.529       21.410      859.979
08/31/2014  00:02:00     -406.856      -66.498       -8.110      161.372       95.857       79.978    26040.960     9188.571     6396.416       10.581        2.081      412.255       89.131        0.047      344.507       21.372      860.007
08/31/2014  00:03:00     -339.389      -24.821      -16.533      138.344      104.758       67.343    19139.161    10974.277     4535.078        7.535        1.732      340.296       73.866        0.047      344.430       21.239      860.017
08/31/2014  00:04:00     -361.104      -57.234      -11.323      148.203      115.711       71.989    21964.246    13389.030     5182.425        8.716        2.027      365.612       81.772        0.050      344.424       21.230      860.016
08/31/2014  00:05:00     -377.737      -56.346       -8.059      194.947      118.095       90.605    38004.465    13946.362     8209.307       10.303        3.008      381.916       96.284        0.064      344.507       21.371      860.001
08/31/2014  00:06:00     -392.447      -84.894      -22.115      227.989      121.573       64.781    51979.104    14780.067     4196.555       11.632        3.548      401.524       95.878        0.057      344.466       21.302      860.012
08/31/2014  00:07:00     -184.715      -46.623       10.692      132.157      113.266       59.798    17465.568    12829.195     3575.756        3.513        1.694      190.508       60.269        0.100      344.406       21.200      860.030
08/31/2014  00:08:00     -360.337      -23.763      -18.844      129.878      111.584       65.054    16868.381    12450.968     4232.057        8.215        1.678      361.120       70.621        0.038      344.401       21.191      860.047
08/31/2014  00:09:00     -248.745      -32.693       -4.865      144.314      106.540       75.161    20826.543    11350.826     5649.209        5.039        1.891      250.885       86.291        0.118      344.338       21.083      860.037
08/31/2014  00:10:00     -312.679      -75.819      -13.233      131.619      111.982       65.295    17323.548    12540.008     4263.434        6.890        1.706      321.740       68.579        0.045      344.337       21.080      860.028
08/31/2014  00:11:00     -323.027      -63.887      -20.983      192.712      102.676       54.910    37138.094    10542.339     3015.065        7.977        2.535      329.284       60.113        0.033      344.337       21.082      860.018
08/31/2014  00:12:00     -257.897      -63.822       -5.756      116.075       78.626       46.830    13473.315     6181.978     2193.063        4.623        1.092      265.676       41.854        0.025      344.306       21.027      860.015
08/31/2014  00:13:00     -147.351      -42.210        4.731       96.803       91.904       54.995     9370.784     8446.327     3024.489        2.217        1.042      153.277       52.186        0.116      344.246       20.927      860.017
08/31/2014  00:14:00     -250.713      -72.479       -7.531      141.872      113.807       58.379    20127.727    12952.028     3408.091        5.232        1.824      260.979       58.354        0.050      344.259       20.948      860.008
08/31/2014  00:15:00     -297.163      -17.374       -7.746      167.229      122.382       69.166    27965.460    14977.291     4783.962        6.819        2.386      297.671       75.339        0.064      344.288       20.997      860.005
08/31/2014  00:16:00     -344.775      -56.601       -6.546      140.839      123.995       70.327    19835.753    15374.709     4945.884        8.113        2.008      349.391       76.188        0.048      344.303       21.023      859.985
08/31/2014  00:17:00     -303.797     -125.721      -14.850      163.843      110.229       57.742    26844.614    12150.481     3334.156        7.532        2.116      328.783       68.079        0.043      344.267       20.961      859.978
08/31/2014  00:18:00     -289.110      -58.928       -6.978      132.925       97.192       62.425    17668.964     9446.284     3896.866        5.905        1.551      295.055       59.688        0.041      344.248       20.929      859.972
08/31/2014  00:19:00     -193.056      -27.153       11.101      159.140       96.155       68.625    25325.503     9245.711     4709.340        3.870        1.964      194.956       79.617        0.167      344.243       20.923      859.953
08/31/2014  00:20:00     -416.709      -35.277      -20.481      178.695      102.583       62.330    31931.861    10523.323     3885.047       11.082        2.317      418.199       73.563        0.031      344.292       21.005      859.966
08/31/2014  00:21:00     -320.548      -35.261      -18.020      157.309      122.096       60.599    24746.079    14907.375     3672.253        7.381        2.166      322.482       70.439        0.048      344.280       20.983      859.961
08/31/2014  00:22:00     -315.773      -16.895       -9.779      138.083      111.786       70.109    19066.820    12496.052     4915.340        6.828        1.824      316.225       73.542        0.054      344.279       20.981      859.968
08/31/2014  00:23:00     -241.695      -40.885       -3.033      138.351       92.162       57.009    19140.923     8493.778     3249.976        4.548        1.544      245.129       68.634        0.078      344.245       20.924      859.955
08/31/2014  00:24:00     -206.258        2.334        0.090      110.269       86.123       55.260    12159.356     7417.088     3053.699        3.258        1.132      206.271       54.798        0.071      344.215       20.873      859.962
08/31/2014  00:25:00     -312.647      -84.008       -1.619      135.138      131.259       60.474    18262.174    17229.024     3657.158        7.197        1.957      323.737       58.077        0.032      344.285       20.991      859.966
08/31/2014  00:26:00     -324.485      -43.596      -15.505      109.531       86.194       50.873    11997.039     7429.454     2588.049        6.472        1.101      327.400       46.513        0.020      344.276       20.977      859.963
08/31/2014  00:27:00     -337.149      -22.589      -10.897      131.983      118.897       52.862    17419.553    14136.592     2794.396        7.432        1.718      337.905       48.131        0.020      344.220       20.882      859.964
08/31/2014  00:28:00     -274.785      -25.278        2.557      171.113      102.246       65.779    29279.546    10454.176     4326.939        6.010        2.203      275.946       84.227        0.093      344.228       20.895      859.966
08/31/2014  00:29:00     -247.073      -62.962       -7.160      118.696      115.457       60.493    14088.852    13330.380     3659.404        4.806        1.554      254.969       67.583        0.070      344.225       20.890      859.983
08/31/2014  00:30:00     -272.550      -50.721      -13.748      114.023      121.491       60.905    13001.293    14760.161     3709.403        5.425        1.574      277.230       58.648        0.045      344.180       20.813      859.988
08/31/2014  00:31:00     -345.044      -24.579      -18.455      107.863       84.926       52.933    11634.508     7212.387     2801.929        7.082        1.082      345.918       50.680        0.021      344.167       20.790      859.989
08/31/2014  00:32:00     -394.969      -86.351      -13.477      159.565      122.481       71.582    25460.879    15001.565     5123.913       10.460        2.279      404.298       70.477        0.030      344.175       20.805      859.981
08/31/2014  00:33:00     -214.368      -56.688       -0.655      114.070       95.456       54.641    13011.939     9111.830     2985.674        3.713        1.255      221.736       57.070        0.066      344.130       20.727      859.988
08/31/2014  00:34:00     -251.224      -71.976      -10.744      120.606       86.614       51.681    14545.805     7501.986     2670.925        4.656        1.236      261.331       53.382        0.042      344.106       20.686      860.011
08/31/2014  00:35:00     -260.750      -28.877       -7.377      151.554       81.550       50.757    22968.700     6650.354     2576.224        5.053        1.610      262.344       60.538        0.053      344.100       20.678      860.030
08/31/2014  00:36:00     -299.452       12.425      -15.989      119.731      101.057       51.778    14335.426    10212.541     2680.984        5.865        1.361      299.710       55.640        0.034      344.121       20.713      860.047
08/31/2014  00:37:00     -256.326      -44.414      -16.222       84.060       74.848       47.687     7066.013     5602.218     2274.010        4.144        0.747      260.145       46.371        0.032      344.068       20.622      860.056
08/31/2014  00:38:00     -215.292      -33.546      -17.543       89.044       79.890       44.042     7928.796     6382.470     1939.737        3.201        0.813      217.890       46.926        0.046      344.047       20.585      860.067
08/31/2014  00:39:00     -226.932      -62.845      -10.238       82.645       85.480       48.468     6830.121     7306.874     2349.167        3.602        0.824      235.473       39.203        0.028      344.070       20.626      860.074
08/31/2014  00:40:00     -229.382      -11.911      -18.417       66.421       62.067       40.947     4411.709     3852.273     1676.658        3.152        0.497      229.691       33.397        0.021      344.054       20.598      860.096
08/31/2014  00:41:00     -265.633     -110.981      -18.818       99.066       95.137       51.440     9813.986     9051.057     2646.077        5.237        1.076      287.885       43.246        0.023      344.077       20.636      860.111
08/31/2014  00:42:00     -301.502      -36.361      -19.699      107.962       82.590       50.066    11655.784     6821.099     2506.616        5.679        1.049      303.687       51.992        0.029      344.093       20.665      860.137
08/31/2014  00:43:00     -223.980        2.249      -16.194       80.176       60.154       36.664     6428.263     3618.550     1344.253        3.091        0.570      223.991       41.136        0.034      344.044       20.581      860.155
08/31/2014  00:44:00     -162.722      -55.310       -2.039       84.313       81.537       40.377     7108.617     6648.266     1630.289        2.246        0.769      171.865       42.280        0.061      344.012       20.528      860.166
08/31/2014  00:45:00     -160.267      -53.386       -6.556       73.703       97.563       36.024     5432.163     9518.590     1297.703        2.241        0.812      168.925       34.340        0.041      344.027       20.554      860.179
08/31/2014  00:46:00     -185.542      -66.880      -10.002       64.614       82.447       42.571     4175.007     6797.489     1812.261        2.589        0.639      197.228       38.943        0.039      344.058       20.606      860.190
08/31/2014  00:47:00     -178.759      -17.976      -15.565       86.655       60.927       38.918     7509.066     3712.062     1514.615        2.263        0.637      179.661       40.906        0.052      344.037       20.570      860.197
08/31/2014  00:48:00     -138.847      -42.180      -17.418       75.038       57.429       34.269     5630.691     3298.118     1174.383        1.573        0.505      145.112       34.544        0.057      344.014       20.532      860.203
08/31/2014  00:49:00     -113.587      -71.087       -6.863       70.516       71.906       39.997     4972.508     5170.449     1599.747        1.487        0.587      133.997       34.385        0.066      343.964       20.445      860.218
08/31/2014  00:50:00     -184.063      -64.143       -7.529       78.886       76.196       43.553     6223.047     5805.760     1896.878        2.599        0.696      194.919       40.817        0.044      344.038       20.571      860.224
08/31/2014  00:51:00     -175.663      -72.117      -10.378       74.704       40.483       30.927     5580.673     1638.844      956.487        2.217        0.409      189.890       29.867        0.025      343.964       20.444      860.232
08/31/2014  00:52:00     -168.461      -21.830      -14.789       56.686       52.078       27.399     3213.266     2712.091      750.680        1.787        0.334      169.870       25.216        0.022      343.951       20.421      860.251
08/31/2014  00:53:00     -209.832      -15.675      -28.165       55.286       43.875       36.408     3056.570     1924.990     1325.572        2.569        0.315      210.416       26.900        0.016      344.002       20.508      860.254
08/31/2014  00:54:00     -172.741      -27.036      -18.217       56.654       60.406       33.863     3209.673     3648.922     1146.669        1.945        0.400      174.844       21.698        0.015      343.937       20.398      860.267
08/31/2014  00:55:00     -241.141      -16.951      -23.478      114.989       60.484       43.155    13222.421     3658.332     1862.339        3.886        0.937      241.736       52.881        0.048      344.013       20.527      860.272
08/31/2014  00:56:00     -170.769      -44.759       -4.850       74.924       59.902       38.488     5613.652     3588.306     1481.355        2.093        0.534      176.537       36.151        0.042      343.907       20.347      860.275
08/31/2014  00:57:00     -113.465      -35.239        5.626       87.570       61.467       38.298     7668.503     3778.250     1466.711        1.353        0.646      118.811       47.537        0.160      343.848       20.247      860.289
08/31/2014  00:58:00     -155.865      -40.125       -3.586       59.378       57.957       34.603     3525.721     3359.022     1197.395        1.700        0.404      160.946       36.573        0.052      343.944       20.412      860.290
08/31/2014  00:59:00     -136.644      -18.946      -16.613       62.967       78.369       36.845     3964.859     6141.684     1357.558        1.538        0.573      137.951       33.920        0.060      344.018       20.538      860.291
08/31/2014  01:00:00     -209.652       -9.346      -30.279       70.181       61.302       33.610     4925.353     3757.909     1129.654        2.738        0.491      209.860       31.544        0.023      344.023       20.547      860.292
08/31/2014  01:01:00     -206.007        1.895      -20.950       71.330       63.396       39.919     5088.020     4019.104     1593.563        2.679        0.535      206.016       34.642        0.028      344.026       20.550      860.306
08/31/2014  01:02:00     -153.358      -25.380       -5.491       61.451       72.983       37.839     3776.259     5326.567     1431.768        1.736        0.527      155.444       32.112        0.043      343.948       20.417      860.321
08/31/2014  01:03:00     -221.715      -18.597      -14.306       72.267       47.384       38.994     5222.585     2245.243     1520.557        2.935        0.449      222.494       40.477        0.033      344.084       20.648      860.338
08/31/2014  01:04:00     -173.525      -32.433      -14.754       89.490       52.254       33.280     8008.502     2730.470     1107.569        2.161        0.592      176.530       44.112        0.062      343.979       20.471      860.350
08/31/2014  01:05:00     -119.019      -15.891       -5.817       53.490       59.150       37.343     2861.222     3498.776     1394.495        1.110        0.388      120.075       32.059        0.071      343.994       20.498      860.355
08/31/2014  01:06:00     -153.999      -56.467      -17.896       58.189       49.549       37.267     3385.912     2455.068     1388.863        1.723        0.361      164.025       28.823        0.031      343.998       20.503      860.359
08/31/2014  01:07:00     -185.707      -38.468      -10.576       70.850       59.171       40.272     5019.761     3501.212     1621.850        2.311        0.507      189.649       36.461        0.037      343.996       20.499      860.377
08/31/2014  01:08:00     -190.026       -2.160      -22.235       48.417       57.682       32.223     2344.242     3327.224     1038.346        2.166        0.335      190.039       12.118        0.004      344.063       20.614      860.379
08/31/2014  01:09:00     -166.485       12.805      -12.488       37.172       47.603       24.597     1381.767     2266.058      605.000        1.614        0.213      166.976       18.065        0.012      344.058       20.608      860.387
08/31/2014  01:10:00     -139.467      -17.610      -17.982       51.208       36.753       29.598     2622.271     1350.804      876.067        1.247        0.242      140.574       26.102        0.034      344.060       20.611      860.402
08/31/2014  01:11:00      -57.622       -0.218       -3.475       27.883       22.588       19.542      777.457      510.227      381.882        0.250        0.083       57.622       14.248        0.061      343.959       20.437      860.415
08/31/2014  01:12:00      -67.672       11.638      -25.393       31.316       41.960       24.833      980.667     1760.614      616.690        0.436        0.168       68.665       14.832        0.047      344.019       20.540      860.421
08/31/2014  01:13:00      -54.152       37.141       -6.748       39.396       58.652       25.714     1552.011     3440.045      661.190        0.500        0.283       65.665       17.675        0.072      343.928       20.387      860.429
08/31/2014  01:14:00      -75.486       22.871      -11.152       69.091       45.875       45.158     4773.555     2104.472     2039.239        0.763        0.446       78.874       48.062        0.371      343.979       20.471      860.431
08/31/2014  01:15:00     -103.424       15.507        1.828       47.743       39.828       24.329     2279.432     1586.298      591.922        0.770        0.223      104.580       19.466        0.035      343.940       20.405      860.427
08/31/2014  01:16:00      -61.344       -3.671       -6.484       41.874       29.320       27.646     1753.431      859.685      764.281        0.360        0.169       61.453       23.915        0.151      343.999       20.507      860.432
08/31/2014  01:17:00      -16.694       25.103        2.615       36.169       47.128       17.524     1308.176     2221.053      307.082        0.238        0.192       30.147       17.587        0.340      343.868       20.282      860.430
08/31/2014  01:18:00      -61.838       54.726      -10.152       53.635       42.885       27.749     2876.746     1839.114      769.999        0.620        0.274       82.576       35.820        0.188      343.916       20.365      860.432
08/31/2014  01:19:00      -58.283      106.304      -12.566       40.074       70.265       28.814     1605.914     4937.185      830.265        1.111        0.369      121.233       26.763        0.049      343.959       20.438      860.436
08/31/2014  01:20:00      -34.500       67.623       -3.060       27.790       33.601       20.797      772.289     1129.025      432.531        0.405        0.117       75.915       13.147        0.030      343.931       20.390      860.431
08/31/2014  01:21:00       -5.398       86.000      -10.850       25.346       34.420       22.192      642.398     1184.731      492.498        0.493        0.116       86.169       23.682        0.076      343.835       20.226      860.428
08/31/2014  01:22:00        8.801      138.000      -23.543       24.573       40.526       18.553      603.855     1642.323      344.212        1.113        0.130      138.280       18.417        0.018      343.799       20.164      860.432
08/31/2014  01:23:00       21.917      134.699      -20.125       35.254       39.015       24.826     1242.876     1522.132      616.342        1.120        0.169      136.470       18.779        0.019      343.690       19.978      860.437
08/31/2014  01:24:00        3.803      157.420      -17.417       41.042       87.150       28.054     1684.475     7595.125      787.030        1.758        0.503      157.466       39.882        0.064      343.711       20.014      860.440
08/31/2014  01:25:00       11.846       80.278       -3.870       62.483       78.949       48.350     3904.108     6232.950     2337.766        0.953        0.624       81.148       51.248        0.399      343.522       19.693      860.438
08/31/2014  01:26:00       37.118      189.030      -26.297       38.013       55.655       35.535     1444.974     3097.424     1262.752        2.180        0.290      192.640       29.436        0.023      343.352       19.402      860.447
08/31/2014  01:27:00       18.259      240.961      -32.531       52.897       66.091       38.693     2798.097     4367.998     1497.113        3.406        0.433      241.652       33.001        0.019      343.299       19.309      860.459
08/31/2014  01:28:00       17.759      254.531      -26.919       55.346       66.217       40.026     3063.207     4384.710     1602.104        3.744        0.453      255.150       34.728        0.019      343.270       19.259      860.450
08/31/2014  01:29:00       16.568      231.780      -19.223       62.744      105.577       52.013     3936.818    11146.480     2705.372        3.607        0.889      232.371       55.463        0.057      343.248       19.221      860.444
08/31/2014  01:30:00       -7.773      235.155      -25.273       52.380       62.728       34.463     2743.679     3934.864     1187.690        3.193        0.393      235.283       29.774        0.016      343.251       19.228      860.433
08/31/2014  01:31:00      -12.639      194.174      -23.964       39.157       64.732       29.219     1533.288     4190.270      853.728        2.251        0.329      194.585       30.551        0.025      343.191       19.126      860.432
08/31/2014  01:32:00      -19.802      217.902      -29.061       46.907       60.523       29.537     2200.244     3663.022      872.462        2.773        0.337      218.799       31.301        0.020      343.255       19.235      860.421
08/31/2014  01:33:00      -15.860      244.850      -22.523       73.108      107.468       47.502     5344.824    11549.324     2256.452        3.993        0.958      245.363       49.658        0.041      343.245       19.218      860.413
08/31/2014  01:34:00      -41.220      301.239      -39.139       48.304       48.279       27.891     2333.280     2330.833      777.929        4.971        0.272      304.046       22.339        0.005      343.298       19.307      860.409
08/31/2014  01:35:00      -40.172      364.930      -44.319       48.654       57.095       27.989     2367.231     3259.862      783.410        7.158        0.321      367.134       19.790        0.003      343.381       19.450      860.399
08/31/2014  01:36:00      -62.232      299.243      -33.967       39.389       63.331       31.073     1551.498     4010.771      965.534        5.055        0.326      305.645       28.894        0.009      343.317       19.338      860.405
08/31/2014  01:37:00      -63.452      286.665      -32.841       65.562       75.977       33.034     4298.389     5772.450     1091.251        4.922        0.558      293.604       22.963        0.006      343.291       19.296      860.400
08/31/2014  01:38:00      -52.835      212.895      -19.772       40.622       56.676       34.988     1650.117     3212.129     1224.163        2.730        0.304      219.353       22.272        0.010      343.248       19.223      860.389
08/31/2014  01:39:00      -57.200      247.649      -30.040       70.221       89.468       35.323     4931.009     8004.496     1247.692        3.984        0.709      254.169       42.850        0.028      343.248       19.223      860.371
08/31/2014  01:40:00      -70.600      244.648      -25.783       55.939       84.679       33.739     3129.182     7170.456     1138.299        3.847        0.572      254.631       32.547        0.016      343.262       19.247      860.370
08/31/2014  01:41:00      -55.654      261.087      -27.057       55.928       91.813       39.555     3127.920     8429.564     1564.586        4.256        0.656      266.953       36.573        0.019      343.254       19.234      860.356
08/31/2014  01:42:00      -68.959      338.298      -43.304       60.075       87.589       39.068     3608.973     7671.763     1526.333        6.694        0.640      345.255       33.464        0.009      343.299       19.309      860.343
08/31/2014  01:43:00      -88.671      335.498      -42.300       52.627       80.235       32.966     2769.630     6437.637     1086.762        6.625        0.515      347.018       29.329        0.007      343.307       19.324      860.338
08/31/2014  01:44:00      -58.043      327.220      -41.666       47.177       67.925       32.667     2225.698     4613.872     1067.140        6.004        0.395      332.328       30.240        0.008      343.276       19.269      860.331
08/31/2014  01:45:00      -85.159      277.094      -30.221       72.788       96.341       44.309     5298.142     9281.618     1963.325        5.074        0.827      289.884       43.258        0.022      343.248       19.222      860.346
08/31/2014  01:46:00      -69.811      316.987      -39.828       44.368       85.014       38.345     1968.482     7227.303     1470.365        5.880        0.533      324.583       35.786        0.012      343.258       19.240      860.335
08/31/2014  01:47:00      -57.185      239.050      -32.182       48.560       67.750       34.449     2358.114     4589.997     1186.746        3.479        0.407      245.794       31.781        0.017      343.220       19.175      860.352
08/31/2014  01:48:00      -81.491      188.313      -32.956       43.120       63.863       33.633     1859.376     4078.467     1131.158        2.513        0.353      205.189       26.931        0.017      343.222       19.179      860.355
08/31/2014  01:49:00      -63.992      196.858      -18.123       49.085      118.005       40.797     2409.317    13925.097     1664.379        3.058        0.900      206.998       47.295        0.052      343.212       19.161      860.343
08/31/2014  01:50:00     -102.730      293.169      -40.494       49.790       79.387       29.678     2479.087     6302.259      880.797        5.390        0.483      310.647       22.620        0.005      343.197       19.136      860.351
08/31/2014  01:51:00      -88.476      233.671      -27.335       76.232      135.589       41.607     5811.286    18384.305     1731.148        4.455        1.296      249.860       50.379        0.041      343.109       18.986      860.348
08/31/2014  01:52:00      -80.537      326.093      -29.070       56.740       99.571       41.097     3219.444     9914.457     1688.930        6.424        0.741      335.891       45.346        0.018      343.148       19.051      860.341
08/31/2014  01:53:00      -60.851      330.592      -39.842       63.240       84.260       37.790     3999.284     7099.794     1428.095        6.355        0.626      336.145       31.168        0.009      343.168       19.085      860.350
08/31/2014  01:54:00      -45.147      265.676      -26.562       74.678       73.595       40.065     5576.825     5416.225     1605.212        4.296        0.630      269.485       37.629        0.019      343.121       19.004      860.350
08/31/2014  01:55:00      -45.798      285.259      -36.104       52.748       96.972       47.581     2782.397     9403.539     2263.986        4.961        0.722      288.912       50.029        0.030      343.146       19.048      860.350
08/31/2014  01:56:00      -72.363      290.908      -35.862       53.251       81.845       37.760     2835.696     6698.606     1425.852        5.105        0.548      299.773       28.021        0.009      343.143       19.041      860.356
08/31/2014  01:57:00      -49.988      241.196      -27.421       49.077       58.802       40.251     2408.518     3457.710     1620.132        3.445        0.374      246.322       30.488        0.015      343.102       18.973      860.353
08/31/2014  01:58:00      -70.468      266.178      -30.911       70.309       80.969       45.394     4943.299     6555.929     2060.608        4.516        0.678      275.348       43.568        0.025      343.131       19.021      860.350
08/31/2014  01:59:00      -67.498      280.081      -33.873       61.133       82.826       35.398     3737.214     6860.097     1252.991        4.800        0.593      288.100       35.533        0.015      343.140       19.038      860.347
08/31/2014  02:00:00      -73.346      315.781      -35.855       66.986      153.569       39.258     4487.120    23583.406     1541.205        6.799        1.481      324.187       52.324        0.026      343.259       19.241      860.339
08/31/2014  02:01:00      -42.671      259.576      -24.504       84.175      105.449       52.604     7085.413    11119.468     2767.184        4.538        1.049      263.060       59.969        0.052      343.173       19.094      860.335
08/31/2014  02:02:00       13.556      251.064      -40.706       61.373      117.120       49.799     3766.619    13717.140     2479.945        4.241        0.998      251.430       62.529        0.062      343.123       19.008      860.340
08/31/2014  02:03:00       -1.325      291.662      -41.741       66.531      134.037       48.831     4426.381    17965.884     2384.447        5.579        1.239      291.665       52.686        0.033      343.143       19.044      860.347
08/31/2014  02:04:00      -18.227      279.950      -30.519       81.431      101.652       51.237     6630.983    10333.156     2625.275        4.961        0.979      280.542       58.467        0.043      343.177       19.101      860.342
08/31/2014  02:05:00      -39.015      263.150      -31.107       56.820       89.990       39.474     3228.560     8098.248     1558.181        4.231        0.644      266.026       42.988        0.026      343.203       19.144      860.340
08/31/2014  02:06:00      -54.293      263.677      -23.767       60.466       81.595       41.922     3656.124     6657.696     1757.437        4.255        0.604      269.209       40.890        0.023      343.170       19.090      860.347
08/31/2014  02:07:00      -32.467      269.586      -31.780       52.874       73.960       39.476     2795.628     5470.139     1558.354        4.228        0.491      271.534       43.971        0.026      343.247       19.219      860.344
08/31/2014  02:08:00       -4.901      255.026      -36.075       77.864       79.421       43.878     6062.851     6307.683     1925.314        4.033        0.715      255.073       40.208        0.025      343.232       19.195      860.331
08/31/2014  02:09:00       -2.046      302.181      -40.658       56.845       92.639       41.042     3231.383     8582.073     1684.434        5.323        0.675      302.188       40.297        0.018      343.302       19.315      860.332
08/31/2014  02:10:00        8.037      189.125      -18.028       62.497       97.230       46.158     3905.930     9453.634     2130.600        2.582        0.775      189.295       48.228        0.065      343.196       19.134      860.314
08/31/2014  02:11:00       17.279      271.098      -40.125       48.125       57.492       26.802     2315.990     3305.387      718.338        4.087        0.317      271.648       23.704        0.008      343.201       19.140      860.313
08/31/2014  02:12:00       10.171      190.946      -24.295       47.152       60.234       29.261     2223.338     3628.182      856.193        2.193        0.335      191.217       27.354        0.020      343.123       19.012      860.310
08/31/2014  02:13:00      -30.131      259.547      -33.771       53.433       70.556       27.395     2855.093     4978.206      750.488        3.900        0.429      261.290       30.944        0.014      343.268       19.257      860.307
08/31/2014  02:14:00        1.409      233.315      -27.740       42.250       44.333       32.001     1785.074     1965.448     1024.045        2.999        0.239      233.319       24.647        0.011      343.264       19.249      860.300
08/31/2014  02:15:00       15.946      219.756      -36.616       40.216       64.887       30.106     1617.289     4210.347      906.367        2.831        0.337      220.333       26.295        0.014      343.242       19.211      860.289
08/31/2014  02:16:00       16.255      197.766      -12.105       52.058       89.104       42.582     2710.027     7939.439     1813.250        2.599        0.623      198.433       45.721        0.053      343.164       19.080      860.268
08/31/2014  02:17:00       32.424      183.346      -22.296       52.360       77.107       44.417     2741.535     5945.467     1972.860        2.291        0.533      186.191       44.892        0.058      343.173       19.095      860.258
08/31/2014  02:18:00       35.803      104.990       -9.149       49.650       57.878       37.768     2465.124     3349.817     1426.452        0.981        0.362      110.927       28.550        0.066      343.078       18.935      860.260
08/31/2014  02:19:00       38.200      138.398      -11.214       61.573       91.870       39.054     3791.179     8440.170     1525.199        1.724        0.688      143.573       41.381        0.083      343.096       18.966      860.259
08/31/2014  02:20:00       -2.179      102.883      -16.855       36.575       54.264       30.029     1337.701     2944.585      901.758        0.803        0.259      102.906       30.613        0.088      343.108       18.987      860.276
08/31/2014  02:21:00      -49.700       54.467        4.001       49.814       41.080       31.864     2481.456     1687.554     1015.300        0.532        0.259       73.734       33.775        0.210      343.057       18.901      860.291
08/31/2014  02:22:00      -34.037       46.813      -22.736       55.205       44.444       23.053     3047.586     1975.230      531.418        0.471        0.278       57.879       23.203        0.161      343.129       19.023      860.310
08/31/2014  02:23:00      -51.459      -15.320      -10.257       42.994       23.236       13.145     1848.476      539.912      172.795        0.277        0.128       53.691        9.690        0.033      343.138       19.038      860.321
08/31/2014  02:24:00      -31.202       -5.364       -5.118       33.309       14.825        9.922     1109.477      219.774       98.447        0.123        0.071       31.659       14.259        0.203      343.135       19.035      860.329
08/31/2014  02:25:00      -45.436       67.466      -23.353       20.858       30.730       15.755      435.060      944.312      248.224        0.439        0.081       81.339        8.811        0.012      343.250       19.229      860.327
08/31/2014  02:26:00       -7.529       41.021        4.252       26.137       37.795       19.912      683.146     1428.478      396.474        0.213        0.125       41.706       18.435        0.195      343.177       19.106      860.333
08/31/2014  02:27:00       -8.168      158.242      -20.514       23.418       51.757       17.629      548.425     2678.777      310.791        1.453        0.177      158.453       14.448        0.008      343.369       19.432      860.335
08/31/2014  02:28:00        8.199      156.515      -21.257       21.614       49.237       22.378      467.168     2424.320      500.755        1.420        0.170      156.730       25.138        0.026      343.484       19.627      860.336
08/31/2014  02:29:00       19.977      172.042      -27.900       27.696       42.055       20.437      767.049     1768.628      417.689        1.686        0.148      173.198       15.452        0.008      343.372       19.436      860.332
08/31/2014  02:30:00       19.350      180.304      -22.578       37.963       53.024       31.377     1441.152     2811.508      984.520        1.931        0.262      181.340       26.766        0.022      343.640       19.894      860.324
08/31/2014  02:31:00        3.710      231.659      -38.501       32.334       46.492       18.678     1045.482     2161.479      348.853        2.936        0.178      231.689       14.254        0.004      343.619       19.854      860.339
08/31/2014  02:32:00      -28.242      214.805      -33.073       27.035       31.004       15.965      730.893      961.248      254.869        2.499        0.097      216.654       10.300        0.002      343.597       19.818      860.345
08/31/2014  02:33:00      -27.809      221.482      -32.424       42.625       71.283       28.773     1816.904     5081.235      827.863        2.930        0.386      223.221       23.322        0.011      343.780       20.131      860.341
08/31/2014  02:34:00      -51.844      204.125      -22.602       52.653       60.927       35.722     2772.320     3712.046     1276.034        2.631        0.388      210.606       31.732        0.023      343.584       19.795      860.351
08/31/2014  02:35:00      -92.495      189.742      -26.371       45.381       48.949       34.301     2059.428     2395.984     1176.536        2.544        0.282      211.086       31.250        0.022      343.537       19.714      860.355
08/31/2014  02:36:00     -106.441      133.753      -30.739       57.225       50.070       26.989     3274.655     2507.028      728.413        1.834        0.326      170.937       22.020        0.017      343.544       19.730      860.349
08/31/2014  02:37:00      -81.478       49.080       -7.985       44.398       28.100       26.359     1971.159      789.600      694.773        0.628        0.173       95.118       24.611        0.067      343.419       19.516      860.356
08/31/2014  02:38:00      -95.536       54.193      -22.115       28.606       44.204       22.017      818.294     1954.001      484.731        0.790        0.163      109.837       10.249        0.009      343.368       19.430      860.348
08/31/2014  02:39:00      -64.418      129.442      -13.241       41.199       95.739       35.575     1697.391     9165.932     1265.601        1.660        0.606      144.585       40.894        0.080      343.289       19.294      860.341
08/31/2014  02:40:00     -140.999      134.247      -26.830       42.220       72.983       31.236     1782.512     5326.510      975.674        2.335        0.404      194.687       28.577        0.022      343.393       19.470      860.340
08/31/2014  02:41:00     -106.331       91.310      -14.123       69.254       51.388       42.496     4796.066     2640.727     1805.868        1.454        0.462      140.156       42.948        0.094      343.291       19.299      860.344
08/31/2014  02:42:00     -105.835      149.152      -21.294       55.836       63.134       42.346     3117.659     3985.893     1793.197        2.140        0.445      182.886       37.387        0.042      343.298       19.309      860.344
08/31/2014  02:43:00     -130.148       42.232      -22.116       44.719       52.470       25.019     1999.782     2753.102      625.967        1.229        0.269      136.829       16.984        0.015      343.270       19.264      860.344
08/31/2014  02:44:00     -162.931       87.400      -29.732       51.461       57.234       34.577     2648.222     3275.713     1195.546        2.109        0.356      184.892       32.593        0.031      343.273       19.267      860.346
08/31/2014  02:45:00     -122.929       23.521      -15.615       28.276       51.663       21.430      799.540     2669.020      459.239        0.992        0.196      125.159       11.499        0.008      343.194       19.134      860.339
08/31/2014  02:46:00      -49.132       -5.706       16.324       40.584       23.022       19.633     1647.048      530.030      385.444        0.264        0.128       49.463       20.365        0.170      343.135       19.034      860.342
08/31/2014  02:47:00      -98.063      -46.101       -6.019       37.571       28.736       20.963     1411.547      825.747      439.439        0.723        0.134      108.359       16.583        0.023      343.165       19.085      860.335
08/31/2014  02:48:00     -126.117      -60.796       -7.448       40.191       23.870       16.220     1615.305      569.797      263.104        1.105        0.122      140.006       11.821        0.007      343.103       18.979      860.335
08/31/2014  02:49:00      -90.165      -33.366       -3.384       31.895       27.895       18.262     1017.317      778.154      333.494        0.569        0.106       96.141       11.418        0.014      342.972       18.756      860.338
08/31/2014  02:50:00      -49.863       14.274       -0.790       33.648       38.849       21.202     1132.164     1509.235      449.541        0.289        0.155       51.866       23.687        0.209      342.884       18.607      860.347
08/31/2014  02:51:00      -50.620       36.437      -14.752       41.810       40.878       23.674     1748.064     1671.019      560.467        0.404        0.199       62.370       20.201        0.105      343.076       18.934      860.344
08/31/2014  02:52:00      -54.549      -17.034       -2.863       26.504       18.817       14.444      702.436      354.098      208.626        0.227        0.063       57.147       10.532        0.034      342.950       18.718      860.345
08/31/2014  02:53:00      -54.159      -31.546        2.498       24.906       24.627       15.085      620.327      606.472      227.565        0.269        0.073       62.677        5.944        0.009      342.945       18.711      860.346
08/31/2014  02:54:00      -60.261      -66.509        2.478       48.929       39.656       29.640     2394.068     1572.606      878.518        0.645        0.242       89.749       24.871        0.077      342.869       18.580      860.354
08/31/2014  02:55:00      -49.664      -70.271        2.452       48.390       35.690       26.406     2341.547     1273.770      697.288        0.586        0.216       86.050       16.852        0.038      342.840       18.533      860.359
08/31/2014  02:56:00      -63.864      -79.067       -1.224       46.059       35.232       22.799     2121.417     1241.288      519.794        0.711        0.194      101.637       25.042        0.061      342.843       18.536      860.373
08/31/2014  02:57:00      -85.879      -92.474       -1.061       29.296       26.322       21.028      858.235      692.842      442.191        0.896        0.100      126.201       16.411        0.017      342.766       18.405      860.381
08/31/2014  02:58:00      -66.382     -166.535       -3.277       22.526       31.850       18.674      507.419     1014.422      348.717        1.701        0.094      179.278       13.106        0.005      342.798       18.459      860.387
08/31/2014  02:59:00      -89.505     -117.503       -1.170       38.084       39.784       25.836     1450.403     1582.753      667.497        1.276        0.185      147.710       23.481        0.025      342.747       18.374      860.403
08/31/2014  03:00:00      -50.041      -65.460        9.842       32.508       51.737       26.875     1056.753     2676.750      722.241        0.567        0.223       82.396       28.148        0.117      342.718       18.322      860.426
08/31/2014  03:01:00      -56.444      -98.336       -4.586       35.318       59.691       28.890     1247.336     3562.981      834.632        0.926        0.282      113.384       30.790        0.074      342.722       18.331      860.444
08/31/2014  03:02:00      -49.771      -55.882        0.535       40.716       31.843       23.837     1657.823     1013.987      568.202        0.442        0.162       74.833       19.513        0.068      342.752       18.381      860.463
08/31/2014  03:03:00      -22.546      -34.309       -0.046       21.160       22.550       17.656      447.748      508.496      311.743        0.148        0.063       41.054       12.612        0.094      342.812       18.483      860.463
08/31/2014  03:04:00      -36.658        1.379        1.641       34.177       12.436        9.771     1168.045      154.655       95.474        0.138        0.071       36.684        5.839        0.025      342.714       18.318      860.477
08/31/2014  03:05:00     -103.143        2.320       -5.669       24.419       19.683       13.870      596.278      387.440      192.366        0.593        0.059      103.170       12.261        0.014      342.708       18.307      860.487
08/31/2014  03:06:00      -32.085        5.432        0.039       21.300       20.663       13.537      453.692      426.957      183.256        0.106        0.053       32.542       13.447        0.171      342.597       18.118      860.494
08/31/2014  03:07:00      -22.518      -33.175        9.379       21.925       18.588       18.566      480.721      345.521      344.713        0.143        0.059       40.096       11.163        0.078      342.613       18.146      860.485
08/31/2014  03:08:00      -64.549      -48.560       -4.128       24.971       16.762       10.065      623.541      280.981      101.298        0.377        0.050       80.775        6.385        0.006      342.649       18.208      860.485
08/31/2014  03:09:00      -35.522      -21.909       -0.446       24.655       12.995       12.889      607.890      168.865      166.114        0.134        0.047       41.735       11.287        0.073      342.620       18.156      860.498
08/31/2014  03:10:00      -12.664      -22.427        9.736       35.079       18.540       12.216     1230.546      343.738      149.225        0.124        0.086       25.756       15.712        0.372      342.587       18.099      860.497
08/31/2014  03:11:00        0.921       -5.814        5.751        9.082       11.225        7.143       82.489      126.007       51.023        0.016        0.013        5.887        5.403        0.842      342.506       17.963      860.498
08/31/2014  03:12:00        8.636      -19.607        0.633       16.107       35.207       12.948      259.420     1239.520      167.649        0.106        0.083       21.424       11.070        0.267      342.536       18.014      860.487
08/31/2014  03:13:00      -22.105      -48.773       -4.029       30.327       36.570       19.710      919.738     1337.348      388.476        0.276        0.132       53.548       16.489        0.095      342.656       18.218      860.471
08/31/2014  03:14:00      -44.924      -21.587       12.287       45.680       24.395       15.886     2086.633      595.116      252.373        0.278        0.147       49.841       19.401        0.152      342.545       18.029      860.471
08/31/2014  03:15:00      -13.339      -14.239        6.577       26.023       19.868       13.410      677.212      394.741      179.840        0.084        0.063       19.511       12.637        0.419      342.500       17.954      860.487
08/31/2014  03:16:00       -3.165      -22.687        9.946       24.298       20.548       13.261      590.395      422.219      175.866        0.091        0.059       22.907       13.550        0.350      342.522       17.991      860.502
08/31/2014  03:17:00      -24.127      -55.055        5.480       16.832       11.249       10.815      283.329      126.530      116.973        0.208        0.026       60.110        6.387        0.011      342.637       18.185      860.508
08/31/2014  03:18:00       22.900       30.025       14.093       20.453       26.397       17.697      418.345      696.825      313.168        0.153        0.071       37.762       15.113        0.160      342.575       18.079      860.509
08/31/2014  03:19:00        4.998       36.030        7.611       15.004       16.965       13.408      225.114      287.795      179.776        0.104        0.035       36.375       12.127        0.111      342.536       18.012      860.521
08/31/2014  03:20:00      -32.604        0.040        0.038       12.793       16.621        7.661      163.664      276.250       58.692        0.078        0.025       32.604        6.791        0.043      342.687       18.273      860.534
08/31/2014  03:21:00      -39.818       -8.364        0.898       23.259       10.409       10.966      540.974      108.343      120.254        0.121        0.038       40.687       12.283        0.091      342.409       17.799      860.537
08/31/2014  03:22:00       -3.955      -46.710       -4.606       14.011       35.892       13.466      196.302     1288.205      181.334        0.194        0.083       46.877        9.140        0.038      342.610       18.140      860.522
08/31/2014  03:23:00        7.559      -66.329       -6.144       27.925       41.622       29.812      779.822     1732.410      888.740        0.395        0.170       66.758       24.925        0.139      342.685       18.267      860.503
08/31/2014  03:24:00       13.532      -60.918        2.321       26.465       42.484       33.400      700.423     1804.860     1115.566        0.376        0.181       62.403       32.688        0.274      342.684       18.264      860.513
08/31/2014  03:25:00       12.011       12.799       15.909       46.511       24.026       19.761     2163.276      577.233      390.490        0.185        0.157       17.552       19.099        1.184      342.326       17.658      860.526
08/31/2014  03:26:00       20.220       57.957       -7.372       32.350       12.579       10.114     1046.527      158.228      102.301        0.256        0.065       61.383        7.157        0.014      342.304       17.619      860.534
08/31/2014  03:27:00       75.878       63.552       22.006       19.948       17.294       17.450      397.912      299.072      304.511        0.564        0.050       98.977       11.740        0.014      342.450       17.869      860.531
08/31/2014  03:28:00       77.093       71.031       46.347       29.582       17.983       17.343      875.095      323.375      300.777        0.732        0.075      104.827       10.556        0.010      342.441       17.852      860.528
08/31/2014  03:29:00       63.731       48.289       34.145       40.428       22.188       19.915     1634.459      492.308      396.596        0.504        0.126       79.959       13.433        0.028      342.394       17.772      860.531
08/31/2014  03:30:00       -0.132      -21.049        5.965       19.580       22.835       12.669      383.362      521.415      160.512        0.077        0.053       21.050       12.462        0.350      342.335       17.671      860.533
08/31/2014  03:31:00      -40.353      -11.150      -11.896       13.121       11.195        7.269      172.162      125.328       52.837        0.112        0.018       41.865        5.233        0.016      342.399       17.782      860.537
08/31/2014  03:32:00       -2.304      -23.562       -0.038       20.921        9.059       13.705      437.692       82.056      187.825        0.063        0.035       23.674       12.675        0.287      342.436       17.845      860.535
08/31/2014  03:33:00       10.653      -19.924       15.035       19.368       19.674       16.653      375.122      387.072      277.312        0.089        0.052       22.593       12.176        0.290      342.480       17.920      860.524
08/31/2014  03:34:00       -9.736       -8.766        6.132        9.831       10.744       10.584       96.655      115.433      112.027        0.027        0.016       13.101        2.808        0.046      342.569       18.070      860.521
08/31/2014  03:35:00        7.453       28.766       34.686       33.010       26.149       20.020     1089.688      683.780      400.796        0.213        0.109       29.716       21.303        0.514      342.519       17.986      860.512
08/31/2014  03:36:00        6.367       45.398       56.243       25.259       26.346       17.108      638.006      694.115      292.671        0.344        0.081       45.842       14.094        0.095      342.610       18.140      860.510
08/31/2014  03:37:00       -0.889        6.660       36.427       10.522       16.252       10.528      110.709      264.144      110.848        0.093        0.024        6.719       10.175        2.293      342.506       17.963      860.519
08/31/2014  03:38:00        6.368      -21.512        4.038       23.892       26.863       15.070      570.808      721.636      227.115        0.102        0.076       22.434       15.476        0.476      342.634       18.181      860.533
08/31/2014  03:39:00        0.659        9.702       28.909       12.631       16.071        8.162      159.533      258.272       66.619        0.071        0.024        9.725        8.082        0.691      342.452       17.872      860.555
08/31/2014  03:40:00       52.491       38.509        9.929       11.320       11.417       17.535      128.138      130.354      307.483        0.245        0.028       65.102        5.243        0.006      342.303       17.617      860.570
08/31/2014  03:41:00       42.325       44.769        2.419       18.033       19.279       14.313      325.189      371.683      204.875        0.235        0.045       61.609       11.652        0.036      342.192       17.430      860.579
08/31/2014  03:42:00       31.536       48.603       -0.942       19.353       25.402       12.623      374.555      645.250      159.348        0.227        0.059       57.938       12.730        0.048      342.336       17.675      860.592
08/31/2014  03:43:00       17.186       49.508       -1.093       16.672       21.600       16.750      277.971      466.577      280.549        0.189        0.051       52.406       14.989        0.082      342.234       17.500      860.595
08/31/2014  03:44:00       24.543       56.569       -6.821       18.516       16.569       14.200      342.847      274.519      201.653        0.233        0.041       61.664       12.629        0.042      342.220       17.476      860.604
08/31/2014  03:45:00       24.153       23.013       -0.679       10.939        9.228        9.115      119.662       85.158       83.088        0.070        0.014       33.361        6.299        0.036      342.181       17.411      860.618
08/31/2014  03:46:00       22.134       50.356       -7.904        8.611       18.400        7.455       74.141      338.572       55.577        0.178        0.023       55.005        7.519        0.019      342.340       17.678      860.620
08/31/2014  03:47:00       40.604       57.998       -5.700       15.743       12.601       12.299      247.857      158.777      151.273        0.280        0.028       70.799        9.195        0.017      342.373       17.736      860.631
08/31/2014  03:48:00       63.157       42.828        6.630       10.799       10.456        8.973      116.616      109.338       80.513        0.309        0.015       76.308        7.588        0.010      342.351       17.698      860.638
08/31/2014  03:49:00       46.722       29.428        3.966       17.314       15.439       10.358      299.788      238.352      107.297        0.185        0.032       55.217        6.663        0.015      342.227       17.489      860.633
08/31/2014  03:50:00       41.287       11.867        3.529       12.354       13.958        9.206      152.626      194.814       84.744        0.114        0.022       42.958        8.004        0.035      342.194       17.433      860.638
08/31/2014  03:51:00       40.521       11.588        2.138       11.506       12.349        8.810      132.386      152.486       77.616        0.107        0.018       42.146        7.969        0.036      342.108       17.287      860.646
08/31/2014  03:52:00       20.436       11.185        3.687       17.717       12.078       10.716      313.886      145.875      114.832        0.057        0.029       23.297        9.030        0.150      342.081       17.242      860.651
08/31/2014  03:53:00       23.152       11.006       12.085       11.008       12.201        8.717      121.167      148.867       75.978        0.057        0.017       25.635        7.073        0.076      342.081       17.241      860.652
08/31/2014  03:54:00       38.165       10.088       11.685       19.037       15.370       13.859      362.396      236.231      192.067        0.124        0.040       39.476       11.113        0.079      342.117       17.302      860.654
08/31/2014  03:55:00       24.796       11.325        7.078       17.082       17.491        9.654      291.781      305.950       93.209        0.074        0.035       27.260        3.826        0.020      342.095       17.266      860.659
08/31/2014  03:56:00       28.868       35.817        0.636       29.634       27.603       17.012      878.151      761.952      289.421        0.202        0.096       46.002       17.455        0.144      342.136       17.335      860.667
08/31/2014  03:57:00       17.160      101.715      -18.026       19.808       21.407       13.447      392.375      458.272      180.833        0.600        0.052      103.152        8.257        0.006      342.124       17.313      860.661
08/31/2014  03:58:00       16.489       86.957      -15.049       11.955       14.111       10.193      142.919      199.108      103.906        0.425        0.022       88.506        6.653        0.006      342.070       17.220      860.658
08/31/2014  03:59:00      -34.519       58.398      -10.038       22.475       19.736        9.804      505.142      389.512       96.128        0.285        0.050       67.837        9.347        0.019      342.063       17.213      860.657
08/31/2014  04:00:00      -56.762       20.931       -8.908       20.775       25.304       11.958      431.584      640.289      142.990        0.248        0.061       60.498       11.656        0.037      341.982       17.073      860.649
08/31/2014  04:01:00      -41.642      -15.814       -8.209        8.611       13.226        9.124       74.152      174.936       83.251        0.119        0.017       44.544        8.339        0.035      341.904       16.940      860.633
08/31/2014  04:02:00      -58.572      -13.694       -7.436       26.167       22.700       12.306      684.714      515.302      151.430        0.251        0.068       60.152       10.089        0.028      341.765       16.704      860.615
08/31/2014  04:03:00      -68.918       -1.291       -0.183       41.747       26.870       17.886     1742.852      721.977      319.910        0.377        0.139       68.930       21.953        0.101      341.541       16.324      860.597
08/31/2014  04:04:00      -43.212      -11.073       -1.828       24.519       23.185       15.924      601.165      537.561      253.582        0.169        0.070       44.609       12.918        0.084      341.504       16.262      860.581
08/31/2014  04:05:00       -1.978       18.508       -2.838       25.920       33.755       16.291      671.847     1139.414      265.390        0.122        0.104       18.614       11.657        0.392      341.607       16.437      860.577
08/31/2014  04:06:00        8.976       92.184      -14.141       34.728       45.612       19.289     1206.066     2080.472      372.071        0.622        0.183       92.620       24.895        0.072      341.511       16.274      860.588
08/31/2014  04:07:00      -76.738       76.252      -16.488       26.323       39.159       16.715      692.886     1533.455      279.394        0.724        0.125      108.181       10.290        0.009      341.543       16.328      860.598
08/31/2014  04:08:00      -85.945        8.372       -8.810       27.794       26.711       17.537      772.504      713.457      307.552        0.466        0.090       86.352        8.118        0.009      341.566       16.365      860.605
08/31/2014  04:09:00     -114.564      -34.872       -4.088       30.388       41.735       21.767      923.420     1741.833      473.797        0.875        0.157      119.754       12.976        0.012      341.389       16.066      860.602
08/31/2014  04:10:00      -74.998      -37.006      -12.002       39.476       42.111       26.749     1558.388     1773.323      715.513        0.559        0.202       83.632       23.130        0.076      341.321       15.953      860.605
08/31/2014  04:11:00     -116.624      -45.083       -5.650       37.846       37.481       27.933     1432.295     1404.840      780.252        0.964        0.181      125.035       20.707        0.027      341.323       15.956      860.607
08/31/2014  04:12:00     -117.288       -5.372      -10.556       37.585       43.270       27.317     1412.598     1872.307      746.213        0.896        0.202      117.411       18.392        0.025      341.237       15.810      860.603
08/31/2014  04:13:00     -128.987      -44.075       -5.421       45.440       50.383       33.163     2064.825     2538.420     1099.817        1.216        0.285      136.309       25.637        0.035      341.086       15.555      860.599
08/31/2014  04:14:00     -144.455      -24.478      -24.505       38.748       45.427       42.286     1501.397     2063.579     1788.121        1.371        0.268      146.514       24.400        0.028      341.122       15.616      860.604
08/31/2014  04:15:00     -155.799      -50.394      -23.350       39.041       36.401       29.985     1524.169     1325.001      899.114        1.555        0.187      163.746       20.197        0.015      341.029       15.458      860.623
08/31/2014  04:16:00     -143.797      -48.417      -17.873       42.420       59.266       30.232     1799.419     3512.469      913.972        1.478        0.311      151.730       22.050        0.021      341.007       15.420      860.627
08/31/2014  04:17:00     -122.981       -0.695       -6.411       62.251       39.545       29.222     3875.189     1563.805      853.901        1.073        0.315      122.983       31.670        0.066      340.983       15.381      860.640
08/31/2014  04:18:00     -135.328      -24.960       -2.200       59.151       36.843       29.809     3498.864     1357.402      888.597        1.234        0.287      137.610       35.308        0.066      341.065       15.519      860.661
08/31/2014  04:19:00      -20.854      -33.124        0.362       45.448       27.463       18.374     2065.489      754.224      337.604        0.234        0.158       39.142       22.328        0.325      341.123       15.617      860.674
08/31/2014  04:20:00       57.995      -56.429      -16.049       52.761       33.261       26.627     2783.676     1106.308      709.008        0.570        0.230       80.917       25.906        0.102      341.353       16.007      860.689
08/31/2014  04:21:00       33.566      -45.458       -2.067       32.478       39.405       38.296     1054.824     1552.770     1466.573        0.363        0.204       56.508       26.195        0.215      341.441       16.156      860.691
08/31/2014  04:22:00        3.197      -27.074        7.557       50.753       39.647       23.242     2575.836     1571.856      540.184        0.274        0.234       27.262       25.110        0.848      341.514       16.278      860.689
08/31/2014  04:23:00     -102.217      -64.506       -9.667       34.772       27.312       15.432     1209.075      745.966      238.149        0.845        0.110      120.869       16.448        0.019      341.538       16.319      860.686
08/31/2014  04:24:00     -119.323      -73.274      -22.641       79.724       30.155       25.070     6355.874      909.340      628.520        1.401        0.395      140.025       18.569        0.018      341.716       16.622      860.668
08/31/2014  04:25:00       -8.287      -29.269        0.113       34.646       32.038       16.325     1200.332     1026.413      266.515        0.171        0.125       30.419       14.240        0.219      341.551       16.340      860.676
08/31/2014  04:26:00      -37.170      -37.875        0.926       39.781       28.488       17.249     1582.495      811.567      297.518        0.275        0.135       53.068       12.303        0.054      341.466       16.197      860.678
08/31/2014  04:27:00      -67.724      -22.825        0.995       18.736       24.525       14.517      351.032      601.453      210.729        0.314        0.058       71.467       10.206        0.020      341.484       16.228      860.698
08/31/2014  04:28:00      -64.633      -18.219      -10.011       14.930       13.232        9.692      222.893      175.081       93.928        0.255        0.025       67.152        7.821        0.014      341.478       16.217      860.706
08/31/2014  04:29:00      -36.422      -15.601       -6.088       12.612       12.426        5.978      159.068      154.401       35.740        0.098        0.017       39.623        4.979        0.016      341.510       16.272      860.720
08/31/2014  04:30:00      -54.214      -14.580       -4.851       11.300       15.183       10.084      127.697      230.520      101.684        0.182        0.023       56.140        7.198        0.016      341.479       16.218      860.710
08/31/2014  04:31:00      -60.408       -0.904       -8.163       16.618       11.474       12.584      276.146      131.647      158.367        0.214        0.028       60.414        9.358        0.024      341.349       16.000      860.702
08/31/2014  04:32:00      -51.238       -4.624      -11.777       16.744       17.379       13.236      280.352      302.021      175.199        0.177        0.038       51.446       13.161        0.065      341.271       15.868      860.698
08/31/2014  04:33:00      -61.353      -16.124       -4.704       35.042       22.201       15.875     1227.917      492.893      252.001        0.301        0.099       63.436       18.053        0.081      341.249       15.830      860.687
08/31/2014  04:34:00      -76.390      -41.857      -13.522       27.177       20.025       15.629      738.587      401.016      244.266        0.458        0.069       87.106       15.338        0.031      341.276       15.878      860.676
08/31/2014  04:35:00      -73.295      -20.343      -14.140       17.972       15.977        9.361      322.986      255.255       87.635        0.333        0.033       76.066        8.016        0.011      341.215       15.773      860.689
08/31/2014  04:36:00      -20.701      -26.175       -3.419       28.760       13.738       14.707      827.147      188.735      216.296        0.118        0.062       33.372        8.355        0.063      341.225       15.789      860.677
08/31/2014  04:37:00      -78.498      -22.395       -3.833       14.901       18.229       12.595      222.050      332.293      158.624        0.370        0.036       81.630        7.138        0.008      341.180       15.715      860.672
08/31/2014  04:38:00      -79.712      -12.850       -9.378       21.485       20.063       17.965      461.586      402.544      322.742        0.390        0.059       80.741       11.928        0.022      341.019       15.440      860.684
08/31/2014  04:39:00      -63.483      -22.119       -6.935       14.813       12.473       11.822      219.419      155.571      139.757        0.254        0.026       67.226        9.642        0.021      340.960       15.342      860.683
08/31/2014  04:40:00      -73.976      -41.875       -4.492       15.564       14.219       11.372      242.230      202.169      129.315        0.391        0.029       85.005        8.778        0.011      340.907       15.252      860.685
08/31/2014  04:41:00      -56.660      -36.363       -3.193       31.230       20.544       12.166      975.289      422.040      148.022        0.304        0.077       67.325       12.368        0.034      341.007       15.421      860.689
08/31/2014  04:42:00      -83.693      -25.457      -12.823       12.964       10.504        8.551      168.077      110.325       73.117        0.408        0.018       87.479        6.883        0.006      341.078       15.540      860.691
08/31/2014  04:43:00      -90.526      -17.361      -16.531        9.220       11.707       10.104       85.003      137.055      102.097        0.455        0.016       92.176        7.166        0.006      341.076       15.538      860.676
08/31/2014  04:44:00      -95.499      -10.731      -20.283       12.743       12.277        9.429      162.373      150.734       88.908        0.502        0.020       96.100        6.981        0.005      341.054       15.497      860.665
08/31/2014  04:45:00      -78.146        3.239       -7.901       16.353       14.424       11.005      267.426      208.061      121.114        0.339        0.030       78.213       10.114        0.017      341.025       15.452      860.666
08/31/2014  04:46:00      -96.980       -4.159      -11.359       24.183       13.704       14.011      584.801      187.786      196.306        0.526        0.048       97.069       12.640        0.017      340.949       15.321      860.675
08/31/2014  04:47:00      -85.638      -16.858      -10.634       21.178       13.884       12.586      448.497      192.771      158.420        0.427        0.040       87.281       10.278        0.014      340.878       15.202      860.680
08/31/2014  04:48:00      -63.025      -27.837      -10.083       20.251       20.915       11.562      410.093      437.443      133.687        0.291        0.049       68.899        7.320        0.011      340.862       15.174      860.686
08/31/2014  04:49:00      -30.549      -32.379        1.435       26.174       20.384       15.756      685.097      415.519      248.264        0.167        0.067       44.515       15.824        0.126      340.787       15.048      860.703
08/31/2014  04:50:00      -11.555       -7.767       -2.979       11.924       13.978       11.896      142.175      195.397      141.517        0.034        0.024       13.922        8.570        0.379      340.783       15.039      860.712
08/31/2014  04:51:00      -35.098       -1.327      -13.331       18.776       14.463       11.734      352.537      209.167      137.676        0.106        0.035       35.123        7.126        0.041      340.852       15.158      860.723
08/31/2014  04:52:00      -52.797        0.484      -10.638       29.136       15.965       14.024      848.935      254.888      196.664        0.210        0.065       52.799       17.146        0.105      340.788       15.051      860.736
08/31/2014  04:53:00      -74.506      -17.039      -13.178       18.986       19.425       15.150      360.471      377.331      229.509        0.349        0.048       76.429        7.053        0.009      340.692       14.888      860.755
08/31/2014  04:54:00      -62.083      -41.055       -4.860       24.613       23.858       15.508      605.781      569.202      240.486        0.349        0.071       74.430        7.183        0.009      340.700       14.902      860.766
08/31/2014  04:55:00      -39.323      -15.241        0.051       32.140       18.765       10.882     1032.990      352.139      118.423        0.164        0.075       42.173       12.113        0.082      340.685       14.877      860.772
08/31/2014  04:56:00      -30.336       -2.869       -8.490       25.415       14.368       14.998      645.905      206.449      224.932        0.104        0.054       30.471       13.537        0.197      340.639       14.797      860.777
08/31/2014  04:57:00      -25.582       -2.908       -2.869       17.410       16.108       11.356      303.096      259.477      128.954        0.068        0.035       25.746        9.955        0.149      340.587       14.710      860.778
08/31/2014  04:58:00      -33.940        3.120       -5.465       27.779       32.307       14.863      771.674     1043.751      220.914        0.161        0.102       34.083       10.878        0.102      340.673       14.858      860.789
08/31/2014  04:59:00      -77.282       56.243      -13.159       33.945       43.014       20.578     1152.267     1850.163      423.447        0.637        0.171       95.581       17.582        0.034      341.078       15.541      860.802
08/31/2014  05:00:00      -79.041       43.172      -22.658       22.900       29.922       12.942      524.422      895.353      167.505        0.511        0.079       90.063       11.529        0.016      341.073       15.533      860.811
08/31/2014  05:01:00      -59.915       68.434      -13.021       22.597       45.728       23.135      510.616     2091.087      535.215        0.579        0.157       90.956       24.324        0.072      341.131       15.630      860.813
08/31/2014  05:02:00      -61.800       49.895      -10.769       24.609       29.321       17.976      605.583      859.700      323.131        0.411        0.089       79.427       15.252        0.037      341.111       15.598      860.808
08/31/2014  05:03:00      -48.391       15.979       -3.500       18.598       25.819       14.165      345.896      666.634      200.659        0.191        0.061       50.961       11.347        0.050      341.104       15.584      860.802
08/31/2014  05:04:00      -52.696      -11.126      -11.784       11.920       19.629       10.768      142.079      385.283      115.947        0.184        0.032       53.858        5.769        0.011      340.909       15.254      860.804
08/31/2014  05:05:00      -62.282       -2.481       -9.024       18.719       16.269       13.784      350.401      264.689      190.012        0.239        0.040       62.331       12.300        0.039      340.730       14.953      860.796
08/31/2014  05:06:00      -80.299        5.135      -12.086       19.554       15.675       10.900      382.361      245.704      118.800        0.368        0.037       80.463        8.668        0.012      340.707       14.914      860.792
08/31/2014  05:07:00      -85.576       11.192       -8.156       29.839       21.788       13.703      890.387      474.719      187.768        0.453        0.078       86.305        9.796        0.013      340.765       15.011      860.794
08/31/2014  05:08:00     -158.834        5.254      -20.444       40.466       36.069       18.114     1637.517     1300.982      328.131        1.447        0.163      158.921        6.097        0.001      340.700       14.901      860.811
08/31/2014  05:09:00     -145.583       -6.536      -20.435       46.317       35.187       24.574     2145.281     1238.134      603.894        1.282        0.199      145.730       19.006        0.017      340.653       14.822      860.823
08/31/2014  05:10:00     -170.954       17.148      -24.321       37.307       24.690       14.874     1391.806      609.596      221.230        1.617        0.111      171.812       12.999        0.006      340.676       14.858      860.832
08/31/2014  05:11:00     -116.395       -8.595      -17.470       37.036       28.502       19.012     1371.702      812.357      361.458        0.824        0.127      116.712       14.840        0.016      340.596       14.725      860.835
08/31/2014  05:12:00      -90.387      -19.082      -10.572       39.420       22.666       17.525     1553.964      513.738      307.130        0.551        0.119       92.379       17.115        0.034      340.620       14.767      860.839
08/31/2014  05:13:00      -52.972      -11.112       -1.572       22.776       20.999       14.987      518.743      440.974      224.616        0.206        0.059       54.125        9.941        0.034      340.582       14.702      860.828
08/31/2014  05:14:00      -76.718       -8.988      -12.048       20.342       23.874       12.721      413.787      569.964      161.827        0.363        0.057       77.242        9.377        0.015      340.642       14.803      860.829
08/31/2014  05:15:00      -88.501      -34.319      -11.596       17.375       28.498       16.712      301.877      812.131      279.301        0.527        0.070       94.922       13.080        0.019      340.666       14.845      860.826
08/31/2014  05:16:00      -90.921      -26.831       -7.323       20.987       18.921       13.907      440.464      358.000      193.407        0.502        0.050       94.797        8.283        0.008      340.610       14.749      860.825
08/31/2014  05:17:00      -92.907      -16.116       -1.406       26.868       29.093       20.780      721.871      846.416      431.812        0.545        0.100       94.295       16.890        0.032      340.657       14.827      860.821
08/31/2014  05:18:00      -89.420      -31.733      -12.178       30.788       29.778       17.329      947.892      886.749      300.291        0.564        0.107       94.884       11.853        0.016      340.662       14.838      860.826
08/31/2014  05:19:00      -98.181      -28.754       -5.020       29.938       24.570       17.917      896.307      603.696      321.024        0.616        0.091      102.305       13.951        0.019      340.568       14.679      860.828
08/31/2014  05:20:00      -76.457      -12.440       -3.675       26.367       27.260       15.803      695.242      743.107      249.746        0.385        0.084       77.462       14.305        0.034      340.507       14.576      860.816
08/31/2014  05:21:00      -84.989      -10.538       -3.047       38.853       25.631       19.170     1509.589      656.968      367.479        0.494        0.127       85.640       15.174        0.031      340.527       14.609      860.817
08/31/2014  05:22:00     -119.190       34.819       -0.874       56.766       24.593       18.804     3222.390      604.812      353.600        0.980        0.209      124.171       22.525        0.033      340.455       14.488      860.827
08/31/2014  05:23:00      -69.032       41.502      -11.200       28.158       28.498       15.544      792.882      812.156      241.621        0.423        0.092       80.547       11.769        0.021      340.491       14.547      860.835
08/31/2014  05:24:00      -91.619       -6.872      -10.864       37.700       22.766       19.709     1421.252      518.299      388.445        0.544        0.116       91.876       16.807        0.033      340.686       14.878      860.844
08/31/2014  05:25:00      -68.589      -15.861       -8.515       26.702       20.442       17.107      713.010      417.860      292.645        0.323        0.071       70.399       14.765        0.044      340.662       14.837      860.851
08/31/2014  05:26:00      -48.176      -14.533       -7.908       19.810       16.642       14.161      392.439      276.965      200.525        0.173        0.043       50.320       10.024        0.040      340.671       14.851      860.855
08/31/2014  05:27:00      -44.233      -11.650       -1.375       20.209       18.929       16.244      408.389      358.314      263.875        0.156        0.052       45.742        9.787        0.046      340.719       14.934      860.876
08/31/2014  05:28:00      -70.189      -21.135      -13.075       39.773       19.998       14.901     1581.909      399.902      222.034        0.387        0.110       73.302       16.337        0.050      340.611       14.752      860.897
08/31/2014  05:29:00      -84.211      -13.500       -8.699       42.758       25.976       16.630     1828.244      674.774      276.556        0.506        0.139       85.286       17.676        0.043      340.509       14.580      860.920
08/31/2014  05:30:00     -106.532      -15.425       -4.053       23.953       27.716       15.044      573.727      768.150      226.319        0.659        0.078      107.643        7.767        0.005      340.490       14.548      860.955
08/31/2014  05:31:00     -137.173       -8.036      -18.880       39.199       19.058       17.531     1536.572      363.192      307.350        1.072        0.110      137.409       19.786        0.021      340.451       14.479      860.989
08/31/2014  05:32:00      -89.135      -33.548       -2.262       39.419       30.494       16.046     1553.857      929.895      257.468        0.591        0.137       95.239       16.378        0.030      340.430       14.446      860.999
08/31/2014  05:33:00     -107.705      -36.829       -6.106       34.095       20.883       17.319     1162.496      436.098      299.957        0.745        0.095      113.828       12.432        0.012      340.603       14.738      861.003
08/31/2014  05:34:00      -91.503      -34.979       -3.358       47.452       35.410       22.017     2251.669     1253.859      484.750        0.680        0.200       97.961       23.731        0.059      340.667       14.846      861.005
08/31/2014  05:35:00      -89.453      -54.916       -2.247       47.301       26.843       15.880     2237.412      720.544      252.159        0.712        0.161      104.965       15.473        0.022      340.684       14.874      861.003
08/31/2014  05:36:00     -123.451      -16.142      -11.449       32.175       19.697       14.241     1035.220      387.978      202.801        0.863        0.081      124.502       11.918        0.009      340.664       14.841      860.996
08/31/2014  05:37:00     -102.057      -61.167       -5.211       28.983       22.573       14.859      839.995      509.556      220.801        0.788        0.079      118.983       12.169        0.010      340.658       14.831      861.000
08/31/2014  05:38:00      -83.061      -79.609       -3.372       44.377       38.079       22.905     1969.274     1450.016      524.661        0.860        0.197      115.051       21.837        0.036      340.685       14.876      861.000
08/31/2014  05:39:00     -102.729      -88.149       -0.463       71.726       41.182       38.473     5144.563     1695.949     1480.147        1.332        0.416      135.365       41.924        0.096      340.673       14.855      860.995
08/31/2014  05:40:00     -128.217     -142.604       -4.047       78.402       61.877       35.279     6146.952     3828.755     1244.618        2.400        0.561      191.770       40.605        0.045      340.544       14.635      860.990
08/31/2014  05:41:00     -161.099     -143.552       -7.415       51.251       50.479       33.837     2626.701     2548.101     1144.919        2.647        0.316      215.778       30.320        0.020      340.481       14.528      860.996
08/31/2014  05:42:00     -150.172      -98.497       -7.341       50.132       44.385       29.591     2513.247     1970.015      875.626        1.883        0.268      179.592       27.409        0.023      340.482       14.531      861.000
08/31/2014  05:43:00     -137.341      -63.794       -1.501       62.240       33.038       29.053     3873.843     1091.509      844.069        1.437        0.290      151.434       30.068        0.039      340.489       14.546      860.989
08/31/2014  05:44:00     -135.013      -71.091       -2.021       38.152       38.299       27.037     1455.544     1466.822      730.978        1.347        0.183      152.586       14.289        0.009      340.474       14.519      860.982
08/31/2014  05:45:00     -179.767      -42.311      -16.702       44.745       29.109       32.794     2002.132      847.340     1075.453        1.915        0.196      184.679       27.948        0.023      340.428       14.440      860.984
08/31/2014  05:46:00     -140.099       -4.828      -17.643       49.159       26.447       21.415     2416.625      699.424      458.597        1.177        0.179      140.182       22.183        0.025      340.404       14.401      860.978
08/31/2014  05:47:00     -150.777      -30.846      -14.187       38.887       32.495       22.763     1512.216     1055.910      518.155        1.349        0.154      153.900       20.650        0.018      340.357       14.321      860.972
08/31/2014  05:48:00     -176.955      -21.690      -27.581       31.975       23.878       21.381     1022.391      570.137      457.165        1.730        0.102      178.279       18.066        0.010      340.407       14.406      860.981
08/31/2014  05:49:00     -131.814      -51.114       -9.615       30.838       31.101       17.997      950.969      967.266      323.891        1.116        0.112      141.378       14.420        0.010      340.393       14.383      860.995
08/31/2014  05:50:00     -102.594      -31.692       -4.412       41.503       29.395       23.429     1722.523      864.095      548.910        0.734        0.157      107.377       21.968        0.042      340.392       14.382      861.004
08/31/2014  05:51:00      -53.606      -44.729        4.145       51.293       34.075       30.473     2631.020     1161.085      928.589        0.481        0.236       69.816       29.572        0.179      340.337       14.287      861.025
08/31/2014  05:52:00      -77.195      -56.801       -2.421       43.663       29.515       20.085     1906.485      871.159      403.406        0.619        0.159       95.840       22.396        0.055      340.331       14.279      861.031
08/31/2014  05:53:00     -114.019      -39.358      -10.961       24.010       21.315       17.790      576.485      454.315      316.478        0.801        0.067      120.621       14.761        0.015      340.426       14.436      861.038
08/31/2014  05:54:00      -85.266      -51.466       -5.194       26.340       20.850       15.862      693.809      434.721      251.615        0.566        0.069       99.594       18.009        0.033      340.526       14.609      861.050
08/31/2014  05:55:00      -79.072      -36.067       -5.663       23.777       18.242       11.045      565.344      332.759      121.985        0.430        0.051       86.909        6.749        0.006      340.526       14.607      861.040
08/31/2014  05:56:00     -109.539      -27.663       -9.024       42.688       18.765       16.996     1822.229      352.136      288.867        0.765        0.123      112.979       21.245        0.035      340.612       14.752      861.034
08/31/2014  05:57:00     -117.003      -65.642      -12.272       21.762       22.660       14.448      473.577      513.478      208.736        0.967        0.060      134.159        5.792        0.002      340.605       14.741      861.035
08/31/2014  05:58:00     -131.461      -46.970      -22.443       19.187       17.034       14.256      368.136      290.162      203.226        1.043        0.043      139.600       10.294        0.005      340.581       14.700      861.033
08/31/2014  05:59:00      -96.524      -29.168       -8.806       31.461       26.792       15.127      989.783      717.787      228.822        0.609        0.097      100.835        8.257        0.007      340.536       14.623      861.037
08/31/2014  06:00:00     -121.486      -40.528      -10.760       25.171       19.073       15.662      633.560      363.775      245.284        0.888        0.062      128.068        9.776        0.006      340.546       14.639      861.033
08/31/2014  06:01:00     -121.811      -24.002       -8.867       33.603       28.641       18.162     1129.174      820.314      329.866        0.889        0.114      124.153       15.743        0.016      340.489       14.543      861.041
08/31/2014  06:02:00     -104.365      -35.541       -0.187       35.238       28.295       20.913     1241.710      800.608      437.371        0.732        0.124      110.251       17.810        0.026      340.499       14.561      861.049
08/31/2014  06:03:00     -149.355      -29.790      -19.403       28.224       26.457       19.753      796.614      699.953      390.179        1.273        0.094      152.297       12.006        0.006      340.529       14.612      861.070
08/31/2014  06:04:00     -155.278      -74.268      -12.949       23.566       31.827       18.907      555.357     1012.955      357.474        1.586        0.096      172.125        9.924        0.003      340.526       14.607      861.079
08/31/2014  06:05:00     -126.170      -84.651       -3.915       24.342       26.738       19.116      592.546      714.937      365.408        1.239        0.084      151.937       11.993        0.006      340.578       14.696      861.084
08/31/2014  06:06:00      -91.717      -60.045       -2.215       44.728       26.532       18.796     2000.583      703.953      353.295        0.754        0.153      109.624       14.644        0.018      340.618       14.761      861.092
08/31/2014  06:07:00      -79.675      -67.731        1.917       37.627       28.919       21.350     1415.789      836.309      455.819        0.682        0.135      104.574       18.458        0.031      340.727       14.947      861.104
08/31/2014  06:08:00      -59.195      -60.675        4.837       53.339       39.747       28.594     2845.046     1579.833      817.637        0.622        0.262       84.767       29.482        0.121      340.756       14.997      861.119
08/31/2014  06:09:00      -51.330      -54.152        6.175       35.553       25.138       17.055     1264.008      631.897      290.876        0.390        0.109       74.614       13.319        0.032      340.810       15.087      861.135
08/31/2014  06:10:00      -26.593      -40.144        1.700       22.995       16.976       12.121      528.748      288.193      146.916        0.164        0.048       48.154       13.134        0.074      340.916       15.267      861.154
08/31/2014  06:11:00      -11.492      -36.805        0.648       26.867       26.612       17.233      721.841      708.190      296.963        0.161        0.086       38.558       10.996        0.081      340.920       15.273      861.177
08/31/2014  06:12:00       -5.278      -56.849      -13.541       16.392       17.284       14.821      268.689      298.728      219.672        0.211        0.039       57.093        8.953        0.025      341.014       15.433      861.193
08/31/2014  06:13:00      -10.384      -96.173      -16.888       27.522       37.252       29.044      757.466     1387.687      843.567        0.631        0.149       96.732       18.345        0.036      340.668       14.847      861.203
08/31/2014  06:14:00       -7.361      -77.527      -21.397       43.034       35.129       29.380     1851.887     1234.057      863.192        0.523        0.197       77.875       26.309        0.114      340.580       14.699      861.205
08/31/2014  06:15:00      -39.092      -84.285       -9.609       36.990       48.840       24.298     1368.284     2385.362      590.387        0.653        0.217       92.910       15.290        0.027      340.693       14.890      861.210
08/31/2014  06:16:00      -26.533      -46.617        4.580       39.671       32.408       23.293     1573.766     1050.305      542.566        0.303        0.158       53.639       18.276        0.116      340.636       14.793      861.215
08/31/2014  06:17:00      -77.853      -70.583       -0.700       38.253       37.032       19.509     1463.264     1371.370      380.614        0.713        0.161      105.086       22.678        0.047      340.649       14.817      861.215
08/31/2014  06:18:00      -94.899      -69.073       -2.980       50.425       41.727       19.252     2542.688     1741.169      370.632        0.922        0.233      117.375       13.609        0.013      340.590       14.715      861.226
08/31/2014  06:19:00     -117.765      -89.270       -3.284       38.334       29.344       20.489     1469.501      861.066      419.781        1.230        0.138      147.776       20.980        0.020      340.606       14.742      861.226
08/31/2014  06:20:00      -89.626      -96.361        3.791       46.354       34.351       25.938     2148.708     1179.983      672.764        1.067        0.200      131.598       24.147        0.034      340.588       14.712      861.229
08/31/2014  06:21:00     -100.540      -89.349       -5.675       60.392       39.698       33.765     3647.178     1575.962     1140.052        1.224        0.318      134.504       29.797        0.049      340.533       14.618      861.232
08/31/2014  06:22:00     -112.001     -100.907        0.906       62.127       45.716       29.988     3859.825     2089.960      899.275        1.479        0.342      150.753       21.736        0.021      340.348       14.305      861.234
08/31/2014  06:23:00     -111.731      -92.995        7.071       68.957       62.399       40.221     4755.029     3893.610     1617.701        1.572        0.513      145.368       35.292        0.059      340.234       14.113      861.244
08/31/2014  06:24:00      -85.020      -73.537       10.275       78.153       59.549       45.069     6107.957     3546.126     2031.241        1.221        0.584      112.411       39.096        0.121      340.184       14.029      861.255
08/31/2014  06:25:00      -82.002      -78.418       -1.042       41.519       54.391       34.644     1723.794     2958.329     1200.188        0.938        0.294      113.462       22.743        0.040      340.228       14.104      861.258
08/31/2014  06:26:00      -93.326     -103.152       -9.922       38.903       43.330       19.577     1513.444     1877.453      383.251        1.161        0.189      139.105       11.943        0.007      340.265       14.166      861.265
08/31/2014  06:27:00      -89.053      -42.759        1.969       41.368       32.887       23.418     1711.320     1081.579      548.396        0.655        0.167       98.786       12.919        0.017      340.255       14.148      861.271
08/31/2014  06:28:00      -92.041      -81.082       -4.410       29.341       45.624       20.659      860.873     2081.570      426.774        0.922        0.168      122.661       17.579        0.021      340.282       14.194      861.286
08/31/2014  06:29:00      -68.346      -75.642        9.593       51.073       43.604       29.499     2608.481     1901.346      870.204        0.793        0.269      101.946       37.179        0.133      340.275       14.183      861.288
08/31/2014  06:30:00     -107.405      -98.430       -3.590       41.938       41.331       27.667     1758.818     1708.231      765.445        1.273        0.212      145.686       28.560        0.038      340.228       14.103      861.296
08/31/2014  06:31:00     -104.943     -117.814        2.065       84.680       33.198       47.613     7170.708     1102.099     2267.040        1.772        0.527      157.776       50.028        0.101      340.073       13.841      861.305
08/31/2014  06:32:00     -118.571     -105.963      -14.512       33.961       33.935       22.197     1153.336     1151.592      492.721        1.415        0.140      159.020       19.722        0.015      340.028       13.767      861.305
08/31/2014  06:33:00     -132.630      -64.026       -5.680       32.471       38.556       22.802     1054.376     1486.541      519.954        1.239        0.153      147.275       14.829        0.010      340.012       13.739      861.312
08/31/2014  06:34:00     -134.067     -101.922      -24.949       23.452       19.039       19.838      549.978      362.475      393.535        1.515        0.065      168.411        9.386        0.003      340.080       13.855      861.320
08/31/2014  06:35:00     -101.280      -87.929       -6.838       28.885       30.143       18.642      834.366      908.602      347.521        1.006        0.105      134.124       16.585        0.015      340.110       13.905      861.322
08/31/2014  06:36:00     -123.769      -64.154        1.361       39.529       31.218       24.112     1562.575      974.568      581.391        1.128        0.156      139.408       25.862        0.034      340.103       13.894      861.325
08/31/2014  06:37:00     -115.531      -67.820       -6.443       26.844       27.527       16.318      720.576      757.723      266.265        0.987        0.087      133.967       10.658        0.006      340.145       13.965      861.338
08/31/2014  06:38:00     -133.319      -75.080       -6.866       34.355       37.978       15.946     1180.263     1442.298      254.271        1.317        0.144      153.006       16.353        0.011      340.167       14.000      861.359
08/31/2014  06:39:00     -126.248      -64.770       -4.045       33.141       26.762       19.290     1098.347      716.213      372.120        1.117        0.109      141.893       19.182        0.018      340.182       14.026      861.379
08/31/2014  06:40:00     -138.519      -77.829       -4.742       28.287       25.253       21.002      800.171      637.730      441.087        1.357        0.094      158.886       17.687        0.012      340.199       14.055      861.390
08/31/2014  06:41:00     -134.962      -66.485       -3.496       40.292       29.333       20.960     1623.485      860.434      439.302        1.278        0.146      150.449       18.712        0.015      340.164       13.996      861.395
08/31/2014  06:42:00     -102.743      -62.225        3.350       43.813       30.180       20.918     1919.623      910.820      437.571        0.885        0.163      120.117       21.287        0.031      340.155       13.979      861.397
08/31/2014  06:43:00     -128.046      -66.740       -1.163       29.867       21.934       18.990      892.024      481.090      360.634        1.129        0.087      144.396       19.905        0.019      340.192       14.043      861.401
08/31/2014  06:44:00     -104.158      -61.805       -6.706       36.109       22.038       15.869     1303.846      485.669      251.824        0.838        0.102      121.114        6.878        0.003      340.234       14.112      861.411
08/31/2014  06:45:00      -90.583      -64.622       -8.070       44.132       23.793       17.682     1947.600      566.089      312.642        0.764        0.141      111.271       16.062        0.021      340.329       14.273      861.437
08/31/2014  06:46:00      -78.924      -33.184        3.811       32.627       35.713       23.308     1064.504     1275.453      543.277        0.511        0.144       85.617       18.303        0.046      340.318       14.255      861.454
08/31/2014  06:47:00      -67.237      -31.962       -1.828       41.736       25.338       20.569     1741.891      642.007      423.082        0.418        0.140       74.447       24.257        0.106      340.350       14.308      861.469
08/31/2014  06:48:00      -81.891      -42.627       -4.367       17.037       16.916       11.233      290.272      286.155      126.170        0.462        0.035       92.321        7.920        0.007      340.536       14.624      861.489
08/31/2014  06:49:00      -59.028      -54.273       -3.984       27.859       16.889       12.539      776.150      285.230      157.235        0.383        0.061       80.186        8.900        0.012      340.363       14.333      861.505
08/31/2014  06:50:00      -27.801      -49.648       -0.166       26.855       23.860       16.086      721.186      569.310      258.759        0.239        0.077       56.902       12.706        0.050      340.499       14.562      861.516
08/31/2014  06:51:00      -52.028      -44.465        2.981       28.440       22.039       18.957      808.859      485.738      359.349        0.317        0.083       68.440       17.838        0.068      340.510       14.580      861.517
08/31/2014  06:52:00      -42.448      -52.842        6.484       39.188       30.472       20.150     1535.714      928.567      406.028        0.375        0.144       67.779       22.155        0.107      340.496       14.556      861.519
08/31/2014  06:53:00      -61.727      -55.506        6.201       31.105       21.419       20.194      967.541      458.794      407.797        0.438        0.092       83.013       20.499        0.061      340.469       14.510      861.531
08/31/2014  06:54:00      -94.129      -41.936      -10.701       18.206       16.558       13.990      331.473      274.179      195.719        0.577        0.040      103.048       11.687        0.013      340.748       14.984      861.539
08/31/2014  06:55:00      -48.926      -18.895        0.023       43.048       34.398       19.326     1853.093     1183.197      373.511        0.308        0.170       52.448       22.284        0.181      340.753       14.992      861.539
08/31/2014  06:56:00      -26.740        3.178       -2.478       28.541       25.553       18.547      814.612      652.956      343.997        0.127        0.091       26.928       16.341        0.368      340.834       15.129      861.543
08/31/2014  06:57:00      -37.954       12.734       -5.978       20.479       20.865       14.572      419.399      435.345      212.346        0.135        0.053       40.034        8.046        0.040      340.950       15.323      861.558
08/31/2014  06:58:00      -12.094      -16.433        3.603       10.274       11.411       11.029      105.547      130.218      121.630        0.039        0.018       20.404        8.102        0.158      340.894       15.229      861.568
08/31/2014  06:59:00       -7.163      -19.173       -3.539       16.420       12.147       10.589      269.623      147.543      112.131        0.048        0.026       20.468        4.652        0.052      340.920       15.273      861.569
08/31/2014  07:00:00       -1.987      -18.358        2.038       10.848       15.756       11.858      117.687      248.255      140.601        0.043        0.025       18.466        8.114        0.193      340.877       15.201      861.590
08/31/2014  07:01:00        5.447       31.687       50.626       26.043       21.134       17.299      678.226      446.666      299.253        0.251        0.071       32.151       14.227        0.196      340.858       15.168      861.588
08/31/2014  07:02:00       29.379      -29.950       17.654       29.389       64.071       30.585      863.692     4105.089      935.436        0.399        0.295       41.953       41.315        0.970      340.647       14.814      861.598
08/31/2014  07:03:00       48.942      -77.259       -9.724       25.575       29.690       20.312      654.093      881.512      412.570        0.520        0.097       91.457       12.168        0.018      340.614       14.757      861.596
08/31/2014  07:04:00       18.969      -55.154       -4.871       17.950       34.155       18.757      322.192     1166.591      351.839        0.263        0.092       58.325       19.326        0.110      340.743       14.974      861.594
08/31/2014  07:05:00       -1.793      -35.150       -4.515       27.175       19.146       13.411      738.465      366.561      179.849        0.127        0.064       35.195       11.848        0.113      340.780       15.037      861.596
08/31/2014  07:06:00      -44.137      -33.666       -9.649       18.517       14.270        9.110      342.886      203.643       82.998        0.190        0.031       55.511        5.791        0.011      340.740       14.970      861.597
08/31/2014  07:07:00       12.657      -61.152       -2.093       25.315       40.991       26.172      640.830     1680.274      684.967        0.345        0.150       62.448       24.323        0.152      340.863       15.178      861.602
08/31/2014  07:08:00        3.788       18.802       33.439       17.166       19.833       22.017      294.661      393.351      484.730        0.133        0.059       19.179       12.485        0.424      340.959       15.341      861.609
08/31/2014  07:09:00       11.247       -6.528       25.719       29.927       35.781       29.318      895.625     1280.293      859.516        0.193        0.152       13.004       24.591        3.576      340.763       15.008      861.614
08/31/2014  07:10:00        0.965       -7.885       25.572       14.748       22.736       19.771      217.517      516.937      390.873        0.092        0.056        7.944       10.162        1.637      340.886       15.217      861.618
08/31/2014  07:11:00       -0.187        8.081       29.270       13.550       16.384       11.827      183.603      268.451      139.869        0.076        0.030        8.084        7.401        0.838      340.919       15.273      861.616
08/31/2014  07:12:00       -6.649        4.317       28.359        8.983       10.075        9.598       80.695      101.514       92.123        0.057        0.014        7.928        7.679        0.938      341.232       15.801      861.621
08/31/2014  07:13:00       -8.011       13.041       24.479        8.996       13.244       12.392       80.935      175.400      153.571        0.062        0.020       15.305        8.723        0.325      341.071       15.529      861.614
08/31/2014  07:14:00      -19.083        6.565       20.110       19.204       10.998       10.362      368.781      120.962      107.368        0.070        0.030       20.181       11.069        0.301      341.000       15.409      861.618
08/31/2014  07:15:00      -32.978      -12.790       13.394       27.794       19.866       14.499      772.498      394.663      210.218        0.140        0.069       35.371       13.881        0.154      340.848       15.153      861.616
08/31/2014  07:16:00      -24.979       -7.549        1.954       22.217       17.603       12.598      493.577      309.868      158.701        0.082        0.048       26.095        8.282        0.101      340.823       15.109      861.623
08/31/2014  07:17:00      -46.096      -16.291       -2.207       24.983       21.045       16.930      624.147      442.905      286.622        0.187        0.068       48.890        6.080        0.015      340.682       14.871      861.622
08/31/2014  07:18:00      -48.420      -31.269        4.767       38.405       30.072       15.993     1474.980      904.333      255.771        0.299        0.132       57.639        9.769        0.029      340.617       14.760      861.625
08/31/2014  07:19:00      -27.052      -20.760       10.657       36.381       23.553       19.188     1323.553      554.746      368.164        0.176        0.112       34.100       19.285        0.320      340.602       14.734      861.626
08/31/2014  07:20:00      -66.912      -31.585       -2.867       28.897       19.624       20.365      835.057      385.094      414.753        0.356        0.082       73.992       14.292        0.037      340.560       14.665      861.633
08/31/2014  07:21:00      -64.438      -24.882      -13.177       30.946       24.475       22.821      957.662      599.020      520.797        0.351        0.104       69.075       12.339        0.032      340.571       14.683      861.634
08/31/2014  07:22:00      -32.452      -21.908        7.221       37.941       34.067       21.357     1439.544     1160.575      456.111        0.232        0.153       39.155       15.569        0.158      340.572       14.684      861.634
08/31/2014  07:23:00      -71.271      -59.959        3.181       37.705       40.534       31.482     1421.656     1642.970      991.099        0.637        0.203       93.138       26.515        0.081      340.467       14.507      861.639
08/31/2014  07:24:00      -60.074      -69.198       -0.700       34.994       27.017       25.320     1224.583      729.897      641.108        0.550        0.130       91.636       17.605        0.037      340.520       14.597      861.632
08/31/2014  07:25:00      -74.689      -43.582        1.329       56.627       28.402       31.451     3206.667      806.692      989.158        0.624        0.250       86.475       26.346        0.093      340.557       14.661      861.638
08/31/2014  07:26:00      -98.350      -89.793       -5.554       57.609       36.112       26.043     3318.806     1304.108      678.258        1.153        0.265      133.175       29.720        0.050      340.516       14.588      861.647
08/31/2014  07:27:00     -121.740     -107.620      -11.046       54.611       42.441       27.744     2982.341     1801.206      769.732        1.604        0.278      162.489       12.611        0.006      340.427       14.439      861.661
08/31/2014  07:28:00      -82.767     -110.601      -16.500       67.253       46.885       34.342     4523.012     2198.187     1179.404        1.363        0.395      138.141       34.852        0.064      340.474       14.518      861.682
08/31/2014  07:29:00      -51.533      -79.863       21.096       55.214       40.310       31.732     3048.608     1624.891     1006.950        0.758        0.284       95.046       29.635        0.097      340.479       14.528      861.685
08/31/2014  07:30:00      -78.066      -64.845        7.548       56.890       49.514       27.990     3236.425     2451.608      783.436        0.841        0.324      101.484       22.505        0.049      340.436       14.454      861.686
08/31/2014  07:31:00      -77.719      -71.070       -0.798       61.629       37.107       32.555     3798.185     1376.917     1059.805        0.866        0.312      105.314       26.745        0.064      340.447       14.474      861.692
08/31/2014  07:32:00     -126.886      -80.768       -2.709       46.713       50.983       36.929     2182.103     2599.266     1363.714        1.439        0.307      150.411       31.694        0.044      340.411       14.412      861.692
08/31/2014  07:33:00     -131.212     -118.321      -11.346       44.107       54.222       24.040     1945.462     2939.977      577.921        1.840        0.273      176.682       20.574        0.014      340.386       14.369      861.697
08/31/2014  07:34:00     -109.679      -75.280        3.959       62.023       48.277       32.353     3846.847     2330.655     1046.718        1.247        0.361      133.028       32.406        0.059      340.445       14.468      861.694
08/31/2014  07:35:00     -117.961      -89.481       -0.705       46.545       42.385       28.396     2166.410     1796.488      806.320        1.334        0.238      148.060       20.658        0.019      340.439       14.460      861.702
08/31/2014  07:36:00     -118.364      -99.757       -5.980       49.497       52.233       25.081     2449.984     2728.276      629.067        1.490        0.290      154.795       24.111        0.024      340.456       14.487      861.703
08/31/2014  07:37:00      -99.607     -143.516       -2.865       51.700       34.448       20.980     2672.906     1186.638      440.159        1.741        0.215      174.696       16.562        0.009      340.446       14.471      861.705
08/31/2014  07:38:00      -97.046     -103.495       -4.428       56.795       46.078       24.011     3225.705     2123.203      576.537        1.304        0.296      141.877       25.642        0.033      340.472       14.514      861.709
08/31/2014  07:39:00     -111.908     -122.918       -4.875       65.630       40.828       32.427     4307.340     1666.907     1051.514        1.734        0.351      166.230       26.622        0.026      340.449       14.475      861.706
08/31/2014  07:40:00     -113.937     -109.225        3.013       50.881       45.713       31.722     2588.838     2089.696     1006.289        1.530        0.284      157.835       27.085        0.029      340.446       14.472      861.712
08/31/2014  07:41:00     -127.714     -102.377      -10.499       40.044       29.863       22.604     1603.503      891.804      510.947        1.495        0.150      163.683       17.918        0.012      340.495       14.555      861.709
08/31/2014  07:42:00     -108.885     -101.327       -9.430       24.407       20.017       15.679      595.713      400.671      245.827        1.173        0.062      148.738       12.714        0.007      340.552       14.651      861.709
08/31/2014  07:43:00      -82.212     -104.039       -7.213       31.271       34.425       20.592      977.861     1185.052      424.029        1.011        0.129      132.601       19.611        0.022      340.623       14.771      861.709
08/31/2014  07:44:00      -75.052      -86.366       -0.147       31.379       33.002       23.595      984.645     1089.129      556.745        0.786        0.132      114.419       18.898        0.027      340.673       14.857      861.702
08/31/2014  07:45:00      -54.388      -49.768        4.739       35.581       32.198       24.275     1266.001     1036.682      589.289        0.417        0.145       73.722       24.738        0.113      340.797       15.066      861.697
08/31/2014  07:46:00      -27.506      -29.014        6.699       23.633       18.934       12.887      558.533      358.490      166.079        0.136        0.054       39.980       10.975        0.075      340.844       15.145      861.693
08/31/2014  07:47:00      -99.003      -32.556        2.086       30.176       20.251       17.176      910.577      410.102      295.009        0.624        0.081      104.218       17.799        0.029      340.783       15.041      861.697
08/31/2014  07:48:00      -94.533      -31.466       -3.105       25.989       17.830       14.733      675.414      317.906      217.056        0.557        0.061       99.632       11.911        0.014      340.833       15.126      861.708
08/31/2014  07:49:00      -80.208      -42.135        0.976       46.655       27.779       17.876     2176.709      771.647      319.552        0.574        0.163       90.602       15.795        0.030      340.909       15.254      861.704
08/31/2014  07:50:00      -78.597      -48.645        0.507       53.145       32.209       24.464     2824.429     1037.449      598.487        0.650        0.223       92.433       25.461        0.076      340.964       15.348      861.710
08/31/2014  07:51:00      -76.300      -41.373        0.938       37.445       34.191       19.257     1402.144     1169.017      370.818        0.524        0.147       86.795       18.612        0.046      340.922       15.278      861.705
08/31/2014  07:52:00      -86.268      -43.660        3.632       40.251       25.453       20.381     1620.167      647.842      415.369        0.602        0.134       96.687       22.674        0.055      340.974       15.364      861.709
08/31/2014  07:53:00      -98.431      -57.309        1.229       35.162       24.496       20.363     1236.334      600.036      414.659        0.761        0.113      113.899       19.219        0.028      340.995       15.400      861.704
08/31/2014  07:54:00      -91.615      -56.851       -2.693       25.100       25.687       14.941      629.994      659.803      223.224        0.657        0.076      107.821       11.806        0.012      340.997       15.403      861.713
08/31/2014  07:55:00      -94.759      -43.463       -8.885       18.610       23.896       11.039      346.335      570.997      121.862        0.599        0.052      104.251        4.573        0.002      341.015       15.433      861.715
08/31/2014  07:56:00      -80.521      -65.195      -11.869       23.159       17.405       13.656      536.323      302.928      186.475        0.595        0.051      103.605       10.621        0.011      341.053       15.497      861.724
08/31/2014  07:57:00       -8.867      -56.055       -4.474       14.965       14.010       15.535      223.946      196.269      241.343        0.195        0.033       56.752        9.741        0.029      341.075       15.534      861.732
08/31/2014  07:58:00      -44.375      -35.472       -2.480       15.825       12.595       10.951      250.438      158.646      119.927        0.188        0.026       56.811        5.772        0.010      341.154       15.668      861.748
08/31/2014  07:59:00      -33.823      -37.946        6.199       23.636       28.840       14.257      558.661      831.766      203.275        0.211        0.080       50.832       13.851        0.074      341.211       15.766      861.750
08/31/2014  08:00:00      -33.538      -59.799       -1.151       15.767       16.079       11.326      248.586      258.544      128.269        0.267        0.032       68.562        9.689        0.020      341.158       15.678      861.769
08/31/2014  08:01:00      -16.771      -47.654       -0.152       29.040       15.447       22.005      843.321      238.603      484.211        0.206        0.078       50.519       19.014        0.142      341.261       15.851      861.787
08/31/2014  08:02:00      -24.724      -67.161       -9.314       12.583       13.673        9.490      158.328      186.963       90.068        0.282        0.022       71.567        5.553        0.006      341.258       15.845      861.795
08/31/2014  08:03:00      -12.736      -39.360        3.763       14.383       14.015       13.422      206.869      196.417      180.157        0.115        0.029       41.369        8.733        0.045      341.344       15.991      861.795
08/31/2014  08:04:00      -27.797      -45.141       -0.854       18.759       24.153       10.771      351.910      583.366      116.009        0.193        0.053       53.013        9.222        0.030      341.356       16.010      861.803
08/31/2014  08:05:00      -33.937      -47.865       -8.046       16.077       18.431       10.249      258.459      339.699      105.038        0.211        0.035       58.675        4.794        0.007      341.411       16.103      861.809
08/31/2014  08:06:00      -21.737      -28.916       -2.459       20.480       15.663       13.523      419.445      245.333      182.876        0.108        0.042       36.175       14.319        0.157      341.528       16.302      861.802
08/31/2014  08:07:00      -31.165      -31.489       -3.180       14.111       13.894       16.018      199.116      193.037      256.588        0.131        0.032       44.303        8.507        0.037      341.487       16.233      861.807
08/31/2014  08:08:00      -20.232      -27.831       -1.557       11.225       21.944        9.980      126.003      481.561       99.593        0.095        0.035       34.408        8.094        0.055      341.537       16.318      861.799
08/31/2014  08:09:00      -26.216      -25.627       -2.875       10.739       14.919        8.829      115.336      222.569       77.957        0.088        0.021       36.661        4.614        0.016      341.518       16.289      861.798
08/31/2014  08:10:00      -20.258       -8.147       -5.172        6.217        5.900        4.742       38.655       34.811       22.486        0.030        0.005       21.835        3.080        0.020      341.618       16.455      861.792
08/31/2014  08:11:00      -23.130       -4.325       -1.602        7.321       10.126        8.835       53.592      102.544       78.062        0.040        0.012       23.531        4.307        0.033      341.729       16.643      861.797
08/31/2014  08:12:00      -18.487      -10.805       -3.251       14.166        6.907        4.888      200.677       47.702       23.897        0.037        0.014       21.413        5.023        0.055      341.700       16.595      861.802
08/31/2014  08:13:00      -33.326        0.331       -3.577        6.480        6.509        5.272       41.996       42.365       27.796        0.062        0.006       33.327        2.896        0.008      341.616       16.451      861.803
08/31/2014  08:14:00      -20.446        3.485        9.569       16.501       13.162       13.551      272.297      173.246      183.624        0.058        0.031       20.741        9.700        0.219      342.279       17.580      861.802
08/31/2014  08:15:00      -14.731       -8.050        3.864       16.818       14.613       13.291      282.855      213.536      176.645        0.048        0.034       16.788       10.601        0.399      342.130       17.326      861.797
08/31/2014  08:16:00      -29.023       -6.971       -2.373       14.912       10.498       16.486      222.376      110.216      271.804        0.075        0.030       29.848       10.759        0.130      342.066       17.217      861.794
08/31/2014  08:17:00       -7.256        0.360       24.524       12.549       12.224       17.461      157.466      149.417      304.896        0.063        0.031        7.264        8.564        1.390      342.708       18.306      861.785
08/31/2014  08:18:00      -14.777        8.860       28.822       10.034       18.285       20.465      100.688      334.357      418.835        0.099        0.043       17.230       16.761        0.946      342.776       18.422      861.787
08/31/2014  08:19:00      -10.183       28.624       59.698       11.157       21.152       16.943      124.477      447.413      287.081        0.267        0.043       30.381       13.523        0.198      343.102       18.977      861.782
08/31/2014  08:20:00        8.653      -14.327       43.276       24.787       37.870       25.010      614.381     1434.137      625.493        0.241        0.134       16.737       24.902        2.214      342.507       17.965      861.775
08/31/2014  08:21:00       24.853       46.454       60.453       43.845       33.181       37.560     1922.345     1100.974     1410.753        0.543        0.222       52.684       36.556        0.481      342.525       17.996      861.765
08/31/2014  08:22:00       20.295       68.940       66.294       32.236       34.146       19.720     1039.128     1165.939      388.888        0.608        0.130       71.865       18.777        0.068      342.137       17.335      861.766
08/31/2014  08:23:00       16.674      -34.349       31.100       28.926       50.623       32.093      836.729     2562.714     1029.944        0.343        0.221       38.182       23.763        0.387      342.522       17.990      861.755
08/31/2014  08:24:00       66.494      -91.601        0.562       47.342       44.651       31.629     2241.226     1993.746     1000.394        0.902        0.262      113.191       28.064        0.061      342.299       17.611      861.747
08/31/2014  08:25:00       60.983     -117.170       -7.225       31.008       41.512       18.246      961.514     1723.285      332.933        1.026        0.151      132.089       13.957        0.011      341.982       17.074      861.751
08/31/2014  08:26:00       51.588      -64.964       37.373       41.324       67.426       41.089     1707.648     4546.238     1688.272        0.811        0.397       82.955       48.427        0.341      342.256       17.540      861.744
08/31/2014  08:27:00       22.597        2.602       29.734       22.380       33.115       24.361      500.846     1096.606      593.472        0.180        0.110       22.746       21.059        0.857      342.575       18.080      861.744
08/31/2014  08:28:00       36.118      -36.711       13.431       34.457       48.427       32.695     1187.294     2345.183     1068.947        0.372        0.230       51.500       37.174        0.521      342.402       17.787      861.736
08/31/2014  08:29:00       44.126       13.684       43.961       48.076       33.805       26.714     2311.297     1142.766      713.643        0.412        0.208       46.199       22.366        0.234      342.544       18.028      861.729
08/31/2014  08:30:00       36.480       14.668       21.892       40.824       26.570       29.311     1666.593      705.963      859.151        0.263        0.162       39.318       22.900        0.339      342.566       18.065      861.730
08/31/2014  08:31:00        8.874       27.819       58.719       27.267       60.982       33.289      743.515     3718.825     1108.185        0.493        0.279       29.200       37.199        1.623      342.659       18.222      861.715
08/31/2014  08:32:00        9.470       19.135       57.654       29.043       35.201       21.641      843.503     1239.120      468.324        0.316        0.128       21.350       14.831        0.483      343.021       18.839      861.715
08/31/2014  08:33:00       35.534       18.969       15.842       29.527       28.681       28.786      871.858      822.585      828.642        0.220        0.126       40.280       19.475        0.234      342.669       18.242      861.716
08/31/2014  08:34:00       21.601       30.500       50.095       29.748       24.157       19.807      884.919      583.569      392.305        0.288        0.093       37.374       17.156        0.211      342.801       18.465      861.712
08/31/2014  08:35:00       39.618       42.524       40.970       18.196       14.832       15.799      331.110      219.984      249.594        0.293        0.040       58.119        9.394        0.026      342.400       17.783      861.718
08/31/2014  08:36:00        6.333       13.257       22.710       18.356       16.115       15.096      336.928      259.694      227.886        0.078        0.041       14.692        4.909        0.112      342.811       18.483      861.707
08/31/2014  08:37:00       10.475       29.534       54.778       28.778       30.718       20.849      828.165      943.585      434.682        0.309        0.110       31.336       16.434        0.275      343.005       18.813      861.711
08/31/2014  08:38:00        4.762       22.508       33.017       23.316       27.611       24.618      543.631      762.373      606.044        0.177        0.096       23.006       18.947        0.678      343.033       18.861      861.706
08/31/2014  08:39:00       29.127       48.894       57.407       49.733       33.952       32.759     2473.384     1152.751     1073.149        0.562        0.235       56.912       32.021        0.317      342.845       18.541      861.697
08/31/2014  08:40:00       15.626       20.151       24.169       33.084       26.762       22.302     1094.564      716.197      497.374        0.177        0.115       25.500        8.534        0.112      343.020       18.839      861.693
08/31/2014  08:41:00       14.147      -13.798       18.215       19.751       24.732       22.198      390.092      611.690      492.736        0.111        0.075       19.761       12.993        0.432      343.407       19.497      861.680
08/31/2014  08:42:00       56.951       31.306       17.606       55.755       30.471       25.857     3108.595      928.497      668.605        0.462        0.235       64.988       28.183        0.188      343.214       19.170      861.682
08/31/2014  08:43:00       87.270       49.825       -3.654       31.025       22.279       16.839      962.577      496.340      283.544        0.593        0.087      100.492       14.163        0.020      342.343       17.685      861.686
08/31/2014  08:44:00       81.280       34.721       -1.879       34.109       27.359       31.194     1163.439      748.519      973.036        0.535        0.144       88.385       20.967        0.056      342.677       18.255      861.686
08/31/2014  08:45:00       70.171       52.935        6.972       46.756       37.261       28.674     2186.112     1388.346      822.188        0.608        0.220       87.898       11.067        0.016      342.604       18.130      861.683
08/31/2014  08:46:00       47.913       50.367        3.277       35.145       25.456       20.981     1235.196      647.990      440.182        0.358        0.116       69.516        9.108        0.017      342.737       18.355      861.690
08/31/2014  08:47:00       39.313       62.342       15.219       36.969       38.641       35.330     1366.670     1493.105     1248.205        0.488        0.205       73.702       23.153        0.099      343.045       18.881      861.690
08/31/2014  08:48:00       22.477       18.384       59.610       31.858       24.659       16.126     1014.929      608.088      260.036        0.314        0.094       29.038       14.495        0.249      343.375       19.442      861.684
08/31/2014  08:49:00       45.124       24.140       26.070       39.155       35.705       30.338     1533.139     1274.854      920.392        0.351        0.186       51.176       25.668        0.252      342.897       18.629      861.681
08/31/2014  08:50:00       36.144       34.782        8.136       34.042       19.927       29.115     1158.891      397.073      847.711        0.249        0.120       50.162       23.832        0.226      342.918       18.665      861.679
08/31/2014  08:51:00       59.394       48.956        6.601       33.204       24.776       26.350     1102.518      613.834      694.344        0.419        0.121       76.970       10.340        0.018      342.718       18.323      861.680
08/31/2014  08:52:00       69.565       63.453        0.751       37.224       36.041       26.667     1385.605     1298.966      711.153        0.613        0.170       94.157       16.992        0.033      342.619       18.156      861.688
08/31/2014  08:53:00       23.089       49.629        2.331       38.164       28.013       27.595     1456.490      784.750      761.499        0.300        0.150       54.737       14.328        0.069      343.092       18.959      861.693
08/31/2014  08:54:00       74.095       60.268        4.828       37.397       27.652       30.411     1398.544      764.615      924.822        0.612        0.154       95.511        9.586        0.010      342.807       18.475      861.692
08/31/2014  08:55:00       53.471       66.662        0.318       43.189       30.377       27.404     1865.249      922.757      750.973        0.542        0.177       85.458       18.621        0.047      342.881       18.600      861.700
08/31/2014  08:56:00       75.903       53.109       -1.223       34.036       31.570       25.351     1158.443      996.694      642.648        0.569        0.140       92.638       11.946        0.017      343.064       18.912      861.707
08/31/2014  08:57:00       50.646       71.396       -2.604       47.610       37.371       30.840     2266.698     1396.619      951.099        0.614        0.231       87.535       24.662        0.079      342.994       18.793      861.713
08/31/2014  08:58:00       69.829       65.224       60.844       31.903       23.468       33.750     1017.807      550.748     1139.063        0.777        0.135       95.552       21.042        0.048      342.989       18.786      861.729
08/31/2014  08:59:00       42.537       52.733       31.939       27.909       25.520       30.282      778.937      651.267      917.029        0.398        0.117       67.751       18.823        0.077      343.226       19.188      861.742
08/31/2014  09:00:00        1.732       31.739       51.562       19.620       37.672       22.497      384.944     1419.184      506.117        0.299        0.116       31.787       16.299        0.263      343.695       19.989      861.745
08/31/2014  09:01:00        3.178       48.513       54.727       17.714       28.667       19.103      313.776      821.768      364.912        0.343        0.075       48.617       12.956        0.071      343.496       19.649      861.758
08/31/2014  09:02:00       19.137      -16.972       13.782       31.443       42.174       35.506      988.649     1778.635     1260.676        0.244        0.201       25.579       37.506        2.150      343.326       19.358      861.764
08/31/2014  09:03:00        1.210       -6.161       22.623       24.386       23.516       30.736      594.655      552.990      944.709        0.132        0.105        6.278       24.726       15.510      344.008       20.524      861.752
08/31/2014  09:04:00       20.553       41.709       25.304       30.161       26.530       26.596      909.663      703.844      707.362        0.256        0.116       46.498       15.730        0.114      343.405       19.493      861.752
08/31/2014  09:05:00       34.600       70.832        2.512       29.285       42.907       31.454      857.628     1841.035      989.323        0.495        0.184       78.831       24.763        0.099      343.134       19.032      861.748
08/31/2014  09:06:00       41.185       81.753       -1.440       27.291       41.309       37.252      744.817     1706.393     1387.742        0.611        0.192       91.541       30.035        0.108      343.101       18.975      861.741
08/31/2014  09:07:00       30.456       76.351        4.341       28.124       37.214       27.555      790.953     1384.914      759.303        0.485        0.147       82.201       26.556        0.104      343.096       18.967      861.749
08/31/2014  09:08:00       49.331       59.121       21.539       43.331       33.565       36.761     1877.598     1126.634     1351.378        0.537        0.218       76.999       24.893        0.105      343.479       19.622      861.756
08/31/2014  09:09:00       70.534       66.188       61.497       54.816       42.328       38.546     3004.820     1791.639     1485.824        0.971        0.314       96.726       34.095        0.124      343.204       19.151      861.762
08/31/2014  09:10:00       79.028       80.707       39.133       30.828       21.054       26.443      950.337      443.263      699.239        0.819        0.105      112.956       10.592        0.009      342.992       18.791      861.773
08/31/2014  09:11:00       20.198      -16.884       19.016       28.187       43.205       36.150      794.501     1866.687     1306.844        0.251        0.198       26.326       24.663        0.878      343.299       19.313      861.781
08/31/2014  09:12:00       -3.466       11.489       36.703       18.473       27.667       23.883      341.267      765.472      570.419        0.158        0.084       12.000       12.153        1.026      343.901       20.340      861.787
08/31/2014  09:13:00       -4.880       36.966       65.875       18.455       31.857       17.962      340.597     1014.850      322.640        0.370        0.084       37.286       13.039        0.122      344.228       20.899      861.794
08/31/2014  09:14:00        0.057       43.591       67.037       27.698       43.862       34.416      767.190     1923.906     1184.439        0.513        0.194       43.591       28.285        0.421      344.132       20.735      861.806
08/31/2014  09:15:00       13.242       79.707       95.687       39.849       52.072       40.349     1587.965     2711.466     1628.071        1.080        0.296       80.799       40.066        0.246      343.455       19.579      861.810
08/31/2014  09:16:00      106.892       81.142       50.751       52.257       38.575       53.187     2730.820     1488.002     2828.903        1.382        0.352      134.201       50.018        0.139      343.079       18.938      861.826
08/31/2014  09:17:00       57.750       53.861       23.003       48.484       35.152       39.779     2350.663     1235.645     1582.402        0.597        0.258       78.969       30.815        0.152      343.342       19.386      861.835
08/31/2014  09:18:00       59.458       39.567       31.497       29.737       25.982       35.010      884.303      675.087     1225.710        0.444        0.139       71.420       19.337        0.073      343.452       19.573      861.846
08/31/2014  09:19:00       13.357       21.286        2.216       23.981       25.130       23.051      575.085      631.527      531.367        0.119        0.087       25.130        3.639        0.021      343.380       19.451      861.861
08/31/2014  09:20:00       46.679       51.059       12.350       34.217       22.685       28.998     1170.820      514.598      840.901        0.373        0.126       69.181       15.360        0.049      343.410       19.501      861.861
08/31/2014  09:21:00       82.470       58.472       24.608       46.688       34.182       35.118     2179.723     1168.415     1233.250        0.770        0.229      101.095       23.286        0.053      343.660       19.928      861.862
08/31/2014  09:22:00       24.447       55.610       57.912       37.442       37.298       46.330     1401.908     1391.117     2146.432        0.599        0.247       60.746       33.054        0.296      343.756       20.092      861.861
08/31/2014  09:23:00      110.144       83.244       36.779       42.013       39.084       36.542     1765.126     1527.537     1335.289        1.252        0.231      138.063       20.970        0.023      343.180       19.110      861.864
08/31/2014  09:24:00       94.015       91.191       64.167       38.117       25.043       34.182     1452.899      627.167     1168.419        1.226        0.162      130.976       13.197        0.010      343.214       19.168      861.867
08/31/2014  09:25:00       24.576       65.300       58.934       27.860       28.489       24.444      776.185      811.621      597.521        0.526        0.109       69.771        5.457        0.006      343.500       19.655      861.866
08/31/2014  09:26:00      -11.478       10.169       27.501       18.890       18.299       12.514      356.837      334.843      156.603        0.092        0.042       15.335        7.561        0.243      344.148       20.762      861.877
08/31/2014  09:27:00      -63.337       29.638      -19.458       34.209       31.860       26.092     1170.263     1015.074      680.778        0.407        0.143       69.928       16.091        0.053      343.220       19.179      861.880
08/31/2014  09:28:00      -92.813      -13.768       -3.623       32.514       26.842       21.205     1057.191      720.503      449.638        0.552        0.111       93.829       14.747        0.025      343.264       19.254      861.871
08/31/2014  09:29:00      -38.192       -5.604       11.779       32.394       31.021       22.094     1049.390      962.300      488.146        0.206        0.125       38.601       18.756        0.236      343.623       19.866      861.878
08/31/2014  09:30:00      -32.415       46.144       -2.034       38.847       32.321       18.707     1509.092     1044.668      349.935        0.304        0.145       56.392       17.347        0.095      343.682       19.966      861.880
08/31/2014  09:31:00       86.072       39.874       27.123       61.186       69.825       50.904     3743.729     4875.484     2591.247        1.047        0.561       94.859       48.050        0.257      343.728       20.044      861.887
08/31/2014  09:32:00       64.410       54.697       25.984       43.918       33.355       27.172     1928.822     1112.529      738.311        0.580        0.189       84.500       16.731        0.039      343.581       19.792      861.892
08/31/2014  09:33:00      147.194       77.752       14.860       50.508       37.201       44.071     2551.084     1383.917     1942.281        1.690        0.294      166.467       19.685        0.014      343.627       19.872      861.898
08/31/2014  09:34:00      147.516       70.954       10.723       57.637       52.268       40.489     3321.970     2731.911     1639.379        1.730        0.385      163.694       18.580        0.013      343.460       19.587      861.900
08/31/2014  09:35:00      117.031       96.339       16.168       57.902       44.275       36.580     3352.663     1960.237     1338.111        1.494        0.333      151.584       24.840        0.027      343.787       20.145      861.897
08/31/2014  09:36:00      104.010       67.394        8.365       38.230       33.730       30.964     1461.542     1137.733      958.786        0.949        0.178      123.936       19.026        0.024      343.633       19.882      861.907
08/31/2014  09:37:00      115.711       54.076       17.850       78.621       50.250       39.539     6181.250     2525.031     1563.298        1.345        0.513      127.724       37.451        0.086      343.599       19.822      861.909
08/31/2014  09:38:00       43.608       35.842       25.307       52.818       31.693       31.371     2789.703     1004.448      984.155        0.430        0.239       56.448       33.058        0.343      344.011       20.527      861.898
08/31/2014  09:39:00       22.506       23.501       43.662       35.809       36.243       26.931     1282.252     1313.555      725.261        0.314        0.166       32.539       25.417        0.610      343.971       20.460      861.878
08/31/2014  09:40:00       56.097       45.466       28.182       32.902       29.488       34.745     1082.556      869.539     1207.213        0.458        0.158       72.209       18.276        0.064      343.789       20.148      861.863
08/31/2014  09:41:00       45.145       47.829       19.019       35.914       33.158       36.926     1289.825     1099.470     1363.557        0.422        0.188       65.770       12.829        0.038      343.836       20.228      861.857
08/31/2014  09:42:00       65.534       51.642       20.343       45.007       27.790       26.470     2025.628      772.299      700.661        0.544        0.175       83.436       13.094        0.025      343.866       20.279      861.846
08/31/2014  09:43:00       92.118       69.471        1.156       32.304       19.501       23.792     1043.556      380.287      566.062        0.765        0.099      115.377       16.795        0.021      343.582       19.796      861.840
08/31/2014  09:44:00       35.452       41.772       32.742       45.618       23.908       22.259     2080.967      571.600      495.449        0.361        0.157       54.788       18.511        0.114      344.132       20.733      861.837
08/31/2014  09:45:00       35.654       32.225       52.115       49.968       41.095       34.008     2496.839     1688.763     1156.546        0.518        0.267       48.059       26.808        0.311      344.585       21.507      861.828
08/31/2014  09:46:00       96.963      -29.754       35.372       83.635       46.792       42.481     6994.792     2189.531     1804.597        1.126        0.549      101.425       38.264        0.142      344.114       20.701      861.829
08/31/2014  09:47:00       70.292       47.456       53.749       58.746       44.580       45.263     3451.118     1987.413     2048.698        0.878        0.374       84.812       23.987        0.080      344.108       20.693      861.831
08/31/2014  09:48:00       77.264       53.838       19.610       50.052       43.240       37.846     2505.193     1869.680     1432.327        0.753        0.290       94.171       21.449        0.052      344.157       20.778      861.817
08/31/2014  09:49:00      101.463       64.040       36.926       53.679       51.019       39.505     2881.429     2602.895     1560.615        1.140        0.352      119.983       22.210        0.034      344.301       21.021      861.816
08/31/2014  09:50:00       84.664       47.533       25.971       50.664       26.465       39.850     2566.855      700.417     1588.007        0.748        0.243       97.095       25.847        0.071      343.718       20.029      861.812
08/31/2014  09:51:00       95.969       69.026       55.499       51.828       43.744       46.703     2686.099     1913.502     2181.130        1.192        0.339      118.214       31.353        0.070      344.239       20.916      861.809
08/31/2014  09:52:00      120.194       45.632       16.687       52.118       53.832       36.999     2716.250     2897.923     1368.921        1.189        0.349      128.565       35.368        0.076      343.707       20.008      861.814
08/31/2014  09:53:00       43.103       39.397       26.966       34.810       19.126       22.732     1211.754      365.794      516.751        0.312        0.105       58.395        5.604        0.009      344.113       20.701      861.812
08/31/2014  09:54:00       40.087       29.824        5.426       32.827       33.712       32.635     1077.616     1136.517     1065.026        0.290        0.164       49.964        7.452        0.022      344.277       20.982      861.809
08/31/2014  09:55:00       82.332       32.930       53.886       56.926       71.495       48.687     3240.571     5111.501     2370.450        1.074        0.536       88.674       50.547        0.325      344.349       21.104      861.793
08/31/2014  09:56:00      146.534       80.610       17.793       53.487       54.961       43.206     2860.903     3020.748     1866.738        1.802        0.387      167.243       27.225        0.027      343.804       20.172      861.798
08/31/2014  09:57:00      110.616      111.185       80.693       76.557       44.665       41.557     5860.913     1994.972     1727.013        2.034        0.479      156.838       38.398        0.060      343.910       20.353      861.789
08/31/2014  09:58:00       65.561       66.308       71.393       66.308       49.907       44.207     4396.700     2490.713     1954.233        1.132        0.442       93.247       36.810        0.156      344.362       21.126      861.793
08/31/2014  09:59:00       76.630       52.496       58.092       58.818       47.481       39.620     3459.525     2254.463     1569.756        0.964        0.364       92.887       30.641        0.109      344.292       21.008      861.787
08/31/2014  10:00:00       39.614       49.652       44.434       43.040       48.484       23.045     1852.421     2350.725      531.053        0.537        0.237       63.518       12.114        0.036      344.675       21.663      861.794
08/31/2014  10:01:00       91.407       73.266       26.454       56.869       44.054       36.270     3234.043     1940.788     1315.518        1.046        0.325      117.146       11.326        0.009      344.317       21.051      861.786
08/31/2014  10:02:00       94.155       82.327       20.561       34.040       28.221       39.415     1158.752      796.418     1553.578        0.979        0.175      125.072       14.535        0.014      344.098       20.676      861.769
08/31/2014  10:03:00        3.060        2.440       14.224       35.231       66.123       34.032     1241.237     4372.249     1158.166        0.349        0.339        3.914       16.314       17.378      344.440       21.262      861.758
08/31/2014  10:04:00       20.467      -99.139       20.240       26.522       29.880       25.395      703.415      892.840      644.890        0.645        0.112      101.230       11.502        0.013      343.993       20.497      861.744
08/31/2014  10:05:00       50.421       24.836       28.795       52.306       41.588       47.162     2735.936     1729.525     2224.285        0.534        0.334       56.206       38.413        0.467      344.373       21.146      861.741
08/31/2014  10:06:00       -5.934       61.326       -4.569       30.713       40.375       29.078      943.280     1630.135      845.548        0.362        0.171       61.612       27.559        0.200      344.108       20.692      861.735
08/31/2014  10:07:00      -28.097      -83.222       -3.461       31.444       29.645       25.154      988.750      878.827      632.714        0.511        0.125       87.837       15.349        0.031      344.008       20.523      861.729
08/31/2014  10:08:00      -35.326     -106.410       -9.565       26.939       54.783       30.202      725.736     3001.206      912.151        0.865        0.232      112.120       24.591        0.048      344.160       20.781      861.699
08/31/2014  10:09:00        9.040       50.647      -15.865       25.942       34.368       26.231      672.988     1181.193      688.085        0.272        0.127       51.447       13.503        0.069      344.590       21.518      861.699
08/31/2014  10:10:00      -64.950       36.178       -4.688       21.360       18.299       25.029      456.238      334.862      626.466        0.348        0.071       74.346       18.523        0.062      344.181       20.818      861.701
08/31/2014  10:11:00      -13.278        1.696       -1.778       19.647       25.470       27.813      386.019      648.741      773.551        0.099        0.090       13.386       25.310        3.575      344.295       21.012      861.716
08/31/2014  10:12:00      100.285      114.484       90.131       65.271       70.487       75.659     4260.318     4968.405     5724.212        2.312        0.748      152.196       59.103        0.151      344.353       21.109      861.722
08/31/2014  10:13:00      131.705       88.245       23.078       85.875       72.685       64.961     7374.525     5283.151     4219.913        2.127        0.844      158.535       24.467        0.024      344.387       21.167      861.722
08/31/2014  10:14:00      108.082       78.472       -2.747       79.872       48.345       41.478     6379.532     2337.259     1720.446        1.414        0.522      133.565       25.810        0.037      344.222       20.887      861.728
08/31/2014  10:15:00       85.391       49.168       30.450       68.122       47.580       44.481     4640.573     2263.839     1978.560        0.976        0.444       98.535       30.628        0.097      344.831       21.929      861.735
08/31/2014  10:16:00       80.274       56.913       -1.528       54.579       41.916       42.297     2978.828     1756.991     1789.058        0.810        0.326       98.402       13.022        0.018      344.829       21.926      861.729
08/31/2014  10:17:00       99.218       59.624        8.042       44.155       32.078       34.349     1949.645     1028.975     1179.837        0.881        0.208      115.755       20.327        0.031      345.015       22.244      861.726
08/31/2014  10:18:00       45.255       88.635       97.661       68.543       41.386       32.993     4698.097     1712.837     1088.553        1.347        0.375       99.520       32.946        0.110      345.002       22.221      861.725
08/31/2014  10:19:00       -0.452       -7.149       47.409       45.151       64.051       36.004     2038.614     4102.590     1296.276        0.487        0.372        7.164       36.015       25.276      344.987       22.196      861.725
08/31/2014  10:20:00       41.723      -26.037       18.284       47.209       55.368       29.273     2228.733     3065.585      856.912        0.445        0.308       49.181       23.330        0.225      344.591       21.520      861.723
08/31/2014  10:21:00        7.390        1.784       18.326       27.606       19.137       18.872      762.118      366.233      356.156        0.094        0.074        7.603        5.347        0.495      344.903       22.053      861.712
08/31/2014  10:22:00       -4.197      -18.109       20.726       23.993       29.415       16.975      575.669      865.222      288.151        0.125        0.086       18.589       11.620        0.391      345.127       22.437      861.706
08/31/2014  10:23:00        5.633       18.112       29.797       34.380       32.705       24.383     1182.012     1069.587      594.527        0.205        0.142       18.968       20.844        1.208      345.578       23.209      861.690
08/31/2014  10:24:00       38.194       45.884       25.295       38.183       33.380       27.527     1457.951     1114.254      757.758        0.377        0.166       59.700       18.879        0.100      345.468       23.020      861.681
08/31/2014  10:25:00       96.719       60.296       40.053       57.772       40.673       46.999     3337.587     1654.331     2208.911        1.090        0.360      113.974       15.369        0.018      345.088       22.369      861.673
08/31/2014  10:26:00      153.047      101.671       10.601       70.965       59.493       44.172     5035.967     3539.377     1951.171        2.220        0.526      183.740       36.663        0.040      344.622       21.570      861.683
08/31/2014  10:27:00      123.799       71.223       34.486       78.120       58.124       63.212     6102.734     3378.413     3995.710        1.753        0.674      142.825       31.707        0.049      345.121       22.424      861.676
08/31/2014  10:28:00      146.817       84.313       31.393       50.433       32.860       31.833     2543.459     1079.770     1013.325        1.714        0.232      169.305       24.006        0.020      344.408       21.205      861.696
08/31/2014  10:29:00       37.412       41.276       12.483       20.198       30.436       24.444      407.959      926.379      597.514        0.260        0.097       55.708       16.902        0.092      344.387       21.170      861.703
08/31/2014  10:30:00      121.587       87.099       43.795       40.545       32.145       30.762     1643.927     1033.300      946.327        1.395        0.181      149.565       19.869        0.018      344.647       21.613      861.697
08/31/2014  10:31:00       84.658       67.102       30.153       38.544       24.915       29.682     1485.668      620.756      881.035        0.778        0.149      108.026       24.746        0.052      344.438       21.257      861.691
08/31/2014  10:32:00        6.407       41.084        4.973       24.731       32.556       28.239      611.624     1059.905      797.413        0.211        0.123       41.580       20.105        0.234      345.001       22.221      861.683
08/31/2014  10:33:00       -3.112        6.012       22.504       13.402       23.414       25.096      179.616      548.206      629.828        0.095        0.068        6.770       19.542        8.333      345.521       23.113      861.675
08/31/2014  10:34:00       22.326       38.959       28.203       24.708       30.347       32.777      610.461      920.920     1074.328        0.271        0.130       44.903       26.841        0.357      345.176       22.520      861.653
08/31/2014  10:35:00      -10.843      -34.373       35.719       28.693       57.767       44.817      823.303     3337.058     2008.521        0.437        0.308       36.043       45.528        1.596      345.472       23.027      861.647
08/31/2014  10:36:00       24.097      -38.190       22.352       31.826       61.169       49.486     1012.911     3741.669     2448.825        0.487        0.360       45.157       42.209        0.874      345.584       23.220      861.620
08/31/2014  10:37:00      -17.557       -5.427       33.211       38.293       52.758       42.904     1466.359     2783.424     1840.768        0.376        0.305       18.377       41.916        5.203      345.521       23.111      861.608
08/31/2014  10:38:00       -5.485       37.283       55.683       22.120       33.281       24.175      489.316     1107.615      584.434        0.335        0.109       37.685       19.163        0.259      345.773       23.544      861.592
08/31/2014  10:39:00       49.221       22.469        7.688       47.940       27.681       30.687     2298.284      766.262      941.681        0.350        0.200       54.107       19.519        0.130      345.352       22.820      861.585
08/31/2014  10:40:00       52.702       18.557       36.529       73.572       35.852       34.045     5412.894     1285.331     1159.066        0.616        0.393       55.873       24.393        0.191      345.875       23.719      861.567
08/31/2014  10:41:00       53.943       71.455       78.502       91.685       69.168       61.185     8406.145     4784.255     3743.552        1.555        0.847       89.531       55.185        0.380      345.622       23.283      861.555
08/31/2014  10:42:00       12.661       66.593       75.373       48.738       45.655       45.819     2375.419     2084.356     2099.416        0.842        0.328       67.786       33.371        0.242      345.853       23.681      861.549
08/31/2014  10:43:00      156.767      115.885       33.307       58.686       37.498       55.278     3444.056     1406.070     3055.650        2.351        0.395      194.950       32.144        0.027      344.865       21.985      861.550
08/31/2014  10:44:00       49.193      -40.496        0.118       47.623       74.563       37.408     2267.920     5559.572     1399.355        0.664        0.461       63.717       10.131        0.025      345.626       23.292      861.539
08/31/2014  10:45:00       34.846      -32.785       42.142       49.541       59.070       49.374     2454.263     3489.246     2437.752        0.622        0.419       47.844       39.012        0.665      345.819       23.624      861.530
08/31/2014  10:46:00       55.622       75.669       97.452       86.307       95.280       47.629     7448.930     9078.368     2268.486        1.855        0.940       93.913       50.168        0.285      345.408       22.916      861.504
08/31/2014  10:47:00      103.398     -144.848      -22.873       55.768       79.040       45.818     3110.039     6247.326     2099.270        2.182        0.573      177.966       53.787        0.091      345.077       22.348      861.484
08/31/2014  10:48:00       98.178      -41.041       30.400       94.449      123.331       61.967     8920.666    15210.440     3839.932        2.010        1.399      106.411       82.190        0.597      345.526       23.119      861.468
08/31/2014  10:49:00       15.405       32.817       88.868       54.222       56.341       48.782     2940.073     3174.363     2379.659        0.885        0.425       36.253       44.140        1.482      345.660       23.350      861.466
08/31/2014  10:50:00       73.710      -27.185       40.213       64.686       87.152       56.661     4184.306     7595.453     3210.490        1.139        0.750       78.563       60.625        0.595      345.442       22.975      861.452
08/31/2014  10:51:00       18.164       23.939       71.080       47.553       73.490       62.807     2261.264     5400.781     3944.750        0.878        0.580       30.050       61.890        4.242      345.577       23.207      861.451
08/31/2014  10:52:00      -40.325      -11.802        1.425       54.655       34.476       28.791     2987.155     1188.621      828.905        0.339        0.250       42.016       19.619        0.218      345.409       22.920      861.452
08/31/2014  10:53:00      -19.633       12.293       28.635       27.277       18.587       16.972      744.017      345.481      288.063        0.137        0.069       23.164       10.123        0.191      346.149       24.190      861.443
08/31/2014  10:54:00      -67.610      -30.320        4.798       47.097       34.854       23.409     2218.124     1214.830      547.969        0.475        0.199       74.097       18.958        0.065      345.159       22.490      861.423
08/31/2014  10:55:00      -57.906       20.276       16.092       31.412       24.041       24.553      986.689      577.992      602.853        0.309        0.108       61.353       17.324        0.080      345.076       22.350      861.406
08/31/2014  10:56:00      -28.162        4.598       17.871       23.840       18.134       19.302      568.367      328.860      372.575        0.120        0.063       28.535       15.466        0.294      345.715       23.443      861.401
08/31/2014  10:57:00      -37.283        4.428       14.360       32.328       19.955       22.712     1045.117      398.192      515.842        0.179        0.098       37.545       20.123        0.287      345.709       23.435      861.385
08/31/2014  10:58:00      -35.780        5.036       -3.258       15.477       11.741       22.038      239.523      137.851      485.687        0.109        0.043       36.132       13.686        0.143      345.397       22.900      861.380
08/31/2014  10:59:00       58.912       12.385       21.335       99.839       63.166       34.646     9967.892     3989.948     1200.336        0.962        0.758       60.200       41.643        0.478      345.707       23.429      861.387
08/31/2014  11:00:00      134.447      136.485      108.287       99.882       73.219       65.752     9976.402     5361.077     4323.389        3.404        0.983      191.584       50.233        0.069      345.295       22.721      861.357
08/31/2014  11:01:00      172.714      101.699       31.338       83.138       65.281       61.885     6911.956     4261.598     3829.800        2.808        0.750      200.431       39.119        0.038      345.108       22.400      861.346
08/31/2014  11:02:00      214.806      121.180       49.252       90.672      106.070       89.752     8221.450    11250.909     8055.457        4.538        1.376      246.629       68.480        0.077      345.069       22.334      861.333
08/31/2014  11:03:00      170.261       78.753       10.906       70.350       65.657       54.466     4949.174     4310.789     2966.544        2.377        0.611      187.592       14.808        0.006      345.307       22.740      861.334
08/31/2014  11:04:00      103.584       48.869       26.200       69.847       58.634       50.361     4878.635     3437.975     2536.266        1.233        0.543      114.533       25.926        0.051      345.678       23.379      861.351
08/31/2014  11:05:00       66.274       52.664       16.914       53.487       44.638       34.771     2860.910     1992.567     1209.003        0.676        0.303       84.650       29.936        0.125      345.589       23.229      861.349
08/31/2014  11:06:00       81.895       57.785       73.538       68.116       65.505       50.214     4639.857     4290.861     2521.406        1.345        0.573      100.229       42.619        0.181      345.765       23.530      861.354
08/31/2014  11:07:00       56.256       28.689       79.969       84.850      104.522       80.014     7199.443    10924.947     6402.233        1.745        1.226       63.149       87.354        1.914      345.988       23.912      861.369
08/31/2014  11:08:00       59.531        1.551       65.575       69.156       92.743       54.705     4782.619     8601.198     2992.594        1.211        0.819       59.551       54.617        0.841      345.704       23.425      861.374
08/31/2014  11:09:00       95.837      -49.237       33.945       85.416      102.506       66.570     7295.886    10507.564     4431.588        1.749        1.112      107.745       72.024        0.447      345.583       23.218      861.383
08/31/2014  11:10:00       36.148       42.881       98.764       49.378       79.045       59.697     2438.201     6248.038     3563.711        1.257        0.612       56.085       54.208        0.934      345.604       23.254      861.379
08/31/2014  11:11:00       31.864      -53.955       12.431       57.896       78.808       44.441     3351.967     6210.743     1975.041        0.781        0.577       62.661       44.885        0.513      345.671       23.367      861.383
08/31/2014  11:12:00      -17.633       15.260       15.547       40.396       31.360       38.137     1631.827      983.469     1454.459        0.243        0.203       23.319       23.090        0.980      345.728       23.468      861.374
08/31/2014  11:13:00      -26.725        2.164       18.075       27.595       18.389       24.523      761.511      338.140      601.357        0.137        0.085       26.812       15.828        0.348      345.818       23.622      861.362
08/31/2014  11:14:00      -54.180      -12.116        4.865       45.913       30.138       32.613     2108.043      908.298     1063.588        0.359        0.204       55.519       19.372        0.122      345.401       22.907      861.355
08/31/2014  11:15:00       66.746     -155.687      -19.033       58.094       43.236       36.673     3374.944     1869.312     1344.897        1.782        0.329      169.392       26.165        0.024      345.488       23.054      861.349
08/31/2014  11:16:00      -62.742      -90.351      -14.757       44.468       44.264       30.591     1977.377     1959.313      935.802        0.859        0.244      109.999       25.269        0.053      345.614       23.271      861.328
08/31/2014  11:17:00        8.943      -52.949       -5.601       49.702       43.073       38.710     2470.327     1855.273     1498.484        0.437        0.291       53.699       29.097        0.294      345.788       23.569      861.315
08/31/2014  11:18:00       18.179      -28.739      -14.083       47.624       48.981       34.318     2268.033     2399.159     1177.748        0.360        0.292       34.006       23.603        0.482      345.911       23.781      861.314
08/31/2014  11:19:00       33.073       14.727       -8.920       41.114       41.193       50.274     1690.399     1696.879     2527.447        0.365        0.296       36.203       22.771        0.396      345.722       23.457      861.294
08/31/2014  11:20:00      140.403      146.542      115.952       95.372       53.063       50.282     9095.854     2815.711     2528.292        3.453        0.722      202.947       40.888        0.041      345.633       23.301      861.304
08/31/2014  11:21:00       66.227      100.136       88.722       69.975       41.181       30.864     4896.552     1695.900      952.575        1.491        0.377      120.055       20.261        0.028      345.598       23.243      861.300
08/31/2014  11:22:00       40.336       44.209       65.819       51.975       47.372       30.858     2701.351     2244.140      952.205        0.690        0.295       59.844       15.234        0.065      346.307       24.461      861.279
08/31/2014  11:23:00       76.909       66.811       55.361       61.575       51.100       42.301     3791.489     2611.208     1789.350        1.082        0.410      101.876       30.845        0.092      346.123       24.143      861.278
08/31/2014  11:24:00       39.752       41.901       65.643       46.011       52.233       52.479     2117.033     2728.262     2754.078        0.762        0.380       57.757       40.842        0.500      346.160       24.208      861.245
08/31/2014  11:25:00       64.922      108.210      114.916       86.770       67.367       53.584     7529.026     4538.311     2871.292        2.203        0.747      126.192       49.325        0.153      345.972       23.885      861.220
08/31/2014  11:26:00       98.812       82.763       65.663       60.191       53.289       35.547     3622.962     2839.687     1263.588        1.432        0.386      128.894       26.797        0.043      345.916       23.790      861.216
08/31/2014  11:27:00      155.147      116.009        4.543       73.136       51.779       41.571     5348.832     2681.085     1728.182        2.365        0.488      193.723       18.065        0.009      345.481       23.041      861.199
08/31/2014  11:28:00       77.464       -5.829       73.113       74.153      162.172       80.877     5498.604    26299.842     6541.046        2.485        1.917       77.683      107.641        1.920      346.069       24.048      861.188
08/31/2014  11:29:00       94.225        5.149       48.412       81.076      116.845       57.459     6573.398    13652.720     3301.489        1.738        1.176       94.366       53.828        0.325      346.137       24.167      861.177
08/31/2014  11:30:00       31.543       32.282       39.698       63.452       75.715       27.646     4026.182     5732.705      764.289        0.707        0.526       45.134       18.904        0.175      346.471       24.742      861.191
08/31/2014  11:31:00       52.561       60.393      -20.429       94.966       60.282       36.907     9018.616     3633.921     1362.133        1.042        0.701       80.062       16.121        0.041      345.512       23.095      861.192
08/31/2014  11:32:00      -85.038       21.973        0.852       36.471       27.669       29.016     1330.152      765.584      841.905        0.533        0.147       87.831       24.380        0.077      345.676       23.376      861.169
08/31/2014  11:33:00       28.222       17.822       24.258       27.535       20.152       23.651      758.200      406.098      559.357        0.171        0.086       33.378       19.666        0.347      346.635       25.026      861.163
08/31/2014  11:34:00       -3.344       34.498        6.054       33.662       38.284       27.837     1133.100     1465.685      774.922        0.231        0.169       34.660       11.829        0.116      346.450       24.705      861.162
08/31/2014  11:35:00       30.075       38.846       47.661       43.190       39.929       48.834     1865.359     1594.343     2384.798        0.526        0.292       49.127       29.275        0.355      346.735       25.197      861.166
08/31/2014  11:36:00       71.864      108.419      125.549       71.059       51.856       42.336     5049.438     2689.009     1792.296        2.110        0.477      130.073       37.893        0.085      346.160       24.207      861.166
08/31/2014  11:37:00       65.205     -127.667       10.253       45.013      140.645       45.034     2026.154    19780.977     2028.018        2.224        1.192      143.354       56.145        0.153      345.760       23.518      861.173
08/31/2014  11:38:00       48.729     -108.121       17.065       57.095       95.069       45.911     3259.849     9038.100     2107.842        1.438        0.720      118.595       53.603        0.204      346.118       24.136      861.152
08/31/2014  11:39:00       56.009       91.252       86.006       68.394       76.090       49.641     4677.742     5789.619     2464.201        1.589        0.647      107.069       29.312        0.075      346.275       24.405      861.153
08/31/2014  11:40:00      120.514       76.952       63.560       78.191       51.906       48.161     6113.811     2694.244     2319.483        1.780        0.556      142.987       34.784        0.059      345.888       23.739      861.147
08/31/2014  11:41:00      117.057       83.976       79.153      112.842       96.153       76.765    12733.315     9245.414     5892.915        2.744        1.394      144.064       62.159        0.186      346.406       24.628      861.106
08/31/2014  11:42:00      142.386       60.640       64.436      105.441       74.916       81.392    11117.896     5612.408     6624.616        2.572        1.168      154.761       59.367        0.147      345.823       23.627      861.115
08/31/2014  11:43:00       56.268       52.193       68.508       85.237       70.956       48.106     7265.290     5034.735     2314.187        1.260        0.731       76.748       34.917        0.207      346.458       24.720      861.103
08/31/2014  11:44:00      119.563      -31.020       58.853      120.766      119.164       86.249    14584.431    14200.169     7438.817        2.747        1.811      123.522       87.516        0.502      346.459       24.719      861.083
08/31/2014  11:45:00      115.399       -3.221       67.671       98.054      118.796       79.936     9614.527    14112.467     6389.795        2.401        1.506      115.444       94.184        0.666      346.024       23.973      861.090
08/31/2014  11:46:00      120.349      -80.945       27.598       76.534       76.727       56.842     5857.427     5887.065     3231.046        1.838        0.749      145.038       59.030        0.166      346.194       24.264      861.078
08/31/2014  11:47:00       84.983      -42.569       40.286       80.029      102.659       72.741     6404.710    10538.953     5291.278        1.644        1.112       95.048       83.001        0.763      346.244       24.352      861.068
08/31/2014  11:48:00       36.849       37.837       80.658       51.265       59.934       37.883     2628.077     3592.136     1435.158        0.847        0.383       52.815       30.816        0.340      346.372       24.573      861.064
08/31/2014  11:49:00       87.053       64.263       23.054       28.985       19.358       26.240      840.133      374.750      688.527        0.707        0.095      108.203       12.627        0.014      345.567       23.189      861.037
08/31/2014  11:50:00       34.639      -41.990       -0.419       52.821       73.452       36.832     2790.041     5395.202     1356.599        0.625        0.477       54.434       38.213        0.493      346.154       24.198      861.021
08/31/2014  11:51:00       70.259     -103.360      -16.306       92.107      126.511       46.456     8483.700    16005.057     2158.139        2.126        1.332      124.979       66.251        0.281      346.431       24.673      861.032
08/31/2014  11:52:00       41.774     -110.122       14.818       58.464       88.008       56.812     3418.036     7745.431     3227.632        1.424        0.720      117.779       46.973        0.159      346.322       24.485      861.045
08/31/2014  11:53:00       32.475     -103.824      -16.011       48.759       66.997       40.076     2377.449     4488.598     1606.113        1.028        0.424      108.785       30.129        0.077      346.193       24.263      861.036
08/31/2014  11:54:00       17.892       28.692       37.709       38.923       37.603       35.973     1514.985     1413.963     1294.054        0.339        0.211       33.814       28.026        0.687      346.734       25.195      861.032
08/31/2014  11:55:00        2.610       -5.837       19.908       29.748       33.088       29.262      884.948     1094.838      856.255        0.164        0.142        6.394       15.630        5.977      346.982       25.624      861.026
08/31/2014  11:56:00      -24.113       -2.452       24.119       30.254       32.481       28.890      915.280     1055.006      834.640        0.199        0.140       24.237       22.066        0.829      346.770       25.258      861.010
08/31/2014  11:57:00       -3.415        8.757       -1.470       33.745       23.400       24.494     1138.739      547.569      599.976        0.119        0.114        9.399       12.787        1.851      346.363       24.557      861.000
08/31/2014  11:58:00      -26.475      -21.011       -0.761       25.421       21.966       23.063      646.253      482.495      531.888        0.140        0.083       33.799       14.815        0.192      346.553       24.882      860.996
08/31/2014  11:59:00       13.209      -48.605       10.808       28.954       48.131       26.559      838.354     2316.637      705.358        0.326        0.193       50.368       28.916        0.330      346.454       24.714      860.989
08/31/2014  12:00:00       65.589       43.731       28.658       69.054       63.329       43.293     4768.477     4010.617     1874.316        0.884        0.533       78.831       22.191        0.079      346.567       24.907      860.974
08/31/2014  12:01:00       97.811       96.004       12.394       75.202       37.777       44.358     5655.397     1427.123     1967.659        1.399        0.453      137.054       26.832        0.038      346.183       24.247      860.968
08/31/2014  12:02:00      115.736       55.541        9.073       79.629       56.009       47.651     6340.712     3137.054     2270.572        1.415        0.587      128.373       29.846        0.054      346.651       25.051      860.947
08/31/2014  12:03:00      168.480      117.405       40.514       89.647       56.957       50.055     8036.596     3244.123     2505.503        2.880        0.689      205.352       29.770        0.021      346.179       24.238      860.924
08/31/2014  12:04:00       61.346       54.322       25.092       55.018       34.573       49.541     3026.988     1195.281     2454.332        0.701        0.334       81.941       21.758        0.071      346.197       24.272      860.915
08/31/2014  12:05:00      144.936       91.575        1.186       37.374       29.201       31.441     1396.780      852.712      988.524        1.632        0.162      171.443       21.373        0.016      346.111       24.122      860.909
08/31/2014  12:06:00       82.570      123.872      116.102       81.115       64.660       47.627     6579.660     4180.933     2268.308        2.433        0.651      148.870       35.712        0.058      346.588       24.941      860.884
08/31/2014  12:07:00       91.128       91.682       94.677       62.926       49.530       43.895     3959.642     2453.254     1926.735        1.700        0.417      129.267       28.258        0.048      346.303       24.454      860.867
08/31/2014  12:08:00       80.772       71.932       96.865       90.448       70.738       54.774     8180.772     5003.909     3000.140        1.863        0.809      108.159       67.563        0.390      346.265       24.387      860.854
08/31/2014  12:09:00       92.125      109.889       89.274       54.781       52.007       58.332     3000.967     2704.757     3402.631        1.882        0.455      143.397       37.961        0.070      346.188       24.256      860.844
08/31/2014  12:10:00       74.911       60.245       91.508       74.143       76.817       53.397     5497.227     5900.842     2851.257        1.593        0.712       96.130       53.122        0.305      346.325       24.491      860.838
08/31/2014  12:11:00       43.032       77.006       87.737       62.586       81.560       70.724     3917.041     6651.972     5001.886        1.552        0.779       88.214       69.956        0.629      346.420       24.654      860.844
08/31/2014  12:12:00       25.880       60.682       20.974       70.311       57.451       72.480     4943.675     3300.580     5253.372        0.914        0.675       65.970       62.817        0.907      345.962       23.867      860.835
08/31/2014  12:13:00       53.337       44.727       29.299       64.199       48.160       36.556     4121.571     2319.427     1336.320        0.674        0.389       69.608       30.265        0.189      346.617       24.994      860.807
08/31/2014  12:14:00      180.197      101.915       72.279      128.663       85.173       68.292    16554.094     7254.489     4663.817        3.827        1.424      207.020       47.005        0.052      346.728       25.182      860.778
08/31/2014  12:15:00      148.873      114.133       56.217       95.473       62.455       59.890     9115.176     3900.632     3586.820        2.747        0.830      187.589       48.680        0.067      346.946       25.557      860.763
08/31/2014  12:16:00      113.176       18.787       51.524       61.930       92.302       54.234     3835.276     8519.739     2941.373        1.555        0.765      114.725       41.378        0.130      346.715       25.160      860.767
08/31/2014  12:17:00       92.377       58.453       50.536      108.504       52.636       67.729    11773.018     2770.577     4587.199        1.681        0.957      109.317       52.857        0.234      347.160       25.927      860.747
08/31/2014  12:18:00      154.644      117.886       19.002       86.373       61.284       55.550     7460.354     3755.775     3085.753        2.623        0.715      194.453       32.283        0.028      346.355       24.540      860.752
08/31/2014  12:19:00      138.385       86.210       13.883       65.305       55.773       58.871     4264.696     3110.574     3465.825        1.881        0.542      163.042       27.001        0.027      346.655       25.057      860.768
08/31/2014  12:20:00      100.347       76.526       15.269       77.257       55.596       46.991     5968.589     3090.887     2208.201        1.371        0.563      126.197       25.522        0.041      346.475       24.748      860.767
08/31/2014  12:21:00      123.134       83.326       63.473       99.039       62.699       51.437     9808.694     3931.181     2645.751        2.126        0.819      148.678       49.392        0.110      346.751       25.223      860.756
08/31/2014  12:22:00      159.843      107.840        5.240       89.682       61.844       44.346     8042.844     3824.725     1966.577        2.552        0.692      192.819       34.609        0.032      346.502       24.792      860.764
08/31/2014  12:23:00      107.261       95.059       11.323       72.679       64.789       40.062     5282.286     4197.581     1605.003        1.587        0.554      143.322       27.725        0.037      346.426       24.663      860.751
08/31/2014  12:24:00       37.267      124.914       -3.903       53.174       79.931       43.626     2827.465     6388.901     1903.202        1.406        0.556      130.355       46.305        0.126      346.623       25.003      860.734
08/31/2014  12:25:00       69.129       87.532       27.246       73.757       84.047       46.762     5440.145     7063.897     2186.724        1.393        0.735      111.538       47.822        0.184      346.913       25.503      860.728
08/31/2014  12:26:00       14.666      104.966       -6.513       75.864       60.211       40.177     5755.401     3625.386     1614.213        1.113        0.550      105.985       47.492        0.201      346.379       24.583      860.720
08/31/2014  12:27:00      -44.179      107.633      -20.018       32.479       55.486       26.153     1054.909     3078.700      683.980        0.938        0.241      116.347       13.478        0.013      346.441       24.691      860.694
08/31/2014  12:28:00      -91.140      119.246      -34.557       39.553       49.407       27.215     1564.446     2441.026      740.662        1.423        0.237      150.087       20.807        0.019      346.385       24.594      860.681
08/31/2014  12:29:00      -11.891       72.638      -14.233       34.663       63.034       33.080     1201.504     3973.299     1094.304        0.594        0.313       73.604       21.677        0.087      346.637       25.028      860.666
08/31/2014  12:30:00       36.683       82.047      -14.997       32.764       59.782       33.946     1073.507     3573.835     1152.336        0.705        0.290       89.874       37.482        0.174      346.696       25.129      860.655
08/31/2014  12:31:00       33.272       57.642       23.720       53.900       60.313       45.555     2905.195     3637.633     2075.295        0.680        0.431       66.555       30.821        0.214      347.037       25.717      860.653
08/31/2014  12:32:00      142.362      104.864       29.785       67.465       41.948       52.516     4551.545     1759.599     2757.979        2.061        0.453      176.815       44.622        0.064      346.553       24.883      860.651
08/31/2014  12:33:00       76.838       24.212       29.569       53.348       38.519       42.411     2846.015     1483.727     1798.703        0.675        0.306       80.563       37.176        0.213      346.701       25.138      860.634
08/31/2014  12:34:00       19.855       39.274       35.704       37.215       38.718       34.935     1384.988     1499.086     1220.454        0.366        0.205       44.007        7.989        0.033      347.260       26.102      860.610
08/31/2014  12:35:00       20.749      101.600        0.799       40.447       52.714       35.223     1635.946     2778.814     1240.652        0.820        0.283      103.697       36.716        0.125      346.894       25.470      860.594
08/31/2014  12:36:00       59.985       94.421       61.489       67.792       64.460       42.416     4595.713     4155.089     1799.083        1.342        0.527      111.863       26.685        0.057      347.228       26.045      860.574
08/31/2014  12:37:00      101.625      111.296       60.794       71.613       41.699       46.208     5128.417     1738.784     2135.168        1.770        0.450      150.713       28.491        0.036      347.046       25.731      860.578
08/31/2014  12:38:00       11.010       26.369       33.231       58.047       51.235       35.874     3369.429     2625.025     1286.970        0.460        0.364       28.576       23.970        0.704      347.329       26.221      860.562
08/31/2014  12:39:00       32.574       44.374       45.178       41.109       39.715       31.013     1689.928     1577.245      961.834        0.465        0.211       55.047       14.023        0.065      347.129       25.875      860.565
08/31/2014  12:40:00       27.987      -31.446       25.069       43.071       33.947       27.625     1855.145     1152.410      763.119        0.308        0.189       42.096       13.648        0.105      347.079       25.789      860.554
08/31/2014  12:41:00       17.030      -60.145       20.598       40.258       27.708       24.561     1620.733      767.755      603.247        0.366        0.150       62.509       22.787        0.133      346.801       25.312      860.535
08/31/2014  12:42:00        1.951       24.681       29.490       17.030       18.572       29.674      290.033      344.906      880.528        0.150        0.076       24.758       14.443        0.340      347.437       26.405      860.512
08/31/2014  12:43:00       53.914       40.619       -0.981       75.059       40.888       30.712     5633.920     1671.824      943.227        0.640        0.412       67.502       26.234        0.151      347.257       26.095      860.490
08/31/2014  12:44:00      124.262       61.287        4.681       53.011       39.224       31.865     2810.191     1538.509     1015.394        1.229        0.268      138.554       27.172        0.038      347.315       26.197      860.480
08/31/2014  12:45:00       87.875       68.241        4.580       71.079       35.044       45.850     5052.281     1228.075     2102.186        1.039        0.419      111.260       34.140        0.094      346.787       25.286      860.459
08/31/2014  12:46:00       -1.114       29.325        5.184       45.380       49.332       34.570     2059.321     2433.659     1195.058        0.329        0.284       29.347       19.726        0.452      347.226       26.041      860.447
08/31/2014  12:47:00      140.359       88.702       18.044       53.589       45.696       41.590     2871.735     2088.118     1729.704        1.729        0.334      166.038       16.496        0.010      346.835       25.367      860.445
08/31/2014  12:48:00       59.117      110.896       -6.744       61.630       67.454       31.536     3798.283     4550.049      994.488        1.259        0.467      125.669       31.171        0.062      347.046       25.730      860.427
08/31/2014  12:49:00       66.737       24.123       13.385       50.961       81.574       38.960     2597.018     6654.374     1517.894        0.799        0.538       70.963       24.814        0.122      347.065       25.765      860.418
08/31/2014  12:50:00       11.704      116.759      -13.788       66.558       72.946       32.110     4429.921     5321.144     1031.029        1.237        0.539      117.344       28.852        0.060      346.956       25.577      860.403
08/31/2014  12:51:00       23.636       16.300       13.965       41.343       46.533       31.314     1709.276     2165.364      980.558        0.294        0.243       28.711       22.048        0.590      347.537       26.578      860.406
08/31/2014  12:52:00       30.512      -43.430       -0.955       56.890       68.238       38.620     3236.438     4656.424     1491.471        0.610        0.469       53.077       24.235        0.208      347.260       26.100      860.389
08/31/2014  12:53:00       -9.550      -30.751       -3.025       57.677       51.739       30.402     3326.681     2676.924      924.259        0.399        0.346       32.200       27.754        0.743      347.126       25.870      860.380
08/31/2014  12:54:00      -10.037       -3.115       28.599       30.202       53.457       29.263      912.169     2857.684      856.300        0.278        0.231       10.510       34.126       10.544      348.027       27.424      860.350
08/31/2014  12:55:00       78.027       48.065       26.562       89.994       95.559       62.292     8098.839     9131.616     3880.324        1.510        1.056       91.643       38.035        0.172      347.474       26.468      860.346
08/31/2014  12:56:00       89.977       92.660       40.991       96.709       62.677       52.631     9352.535     3928.441     2770.007        1.720        0.803      129.158       33.270        0.066      347.584       26.658      860.331
08/31/2014  12:57:00      104.365      114.088       74.202       98.869       80.757       91.183     9775.134     6521.656     8314.346        2.701        1.231      154.622       77.228        0.249      347.413       26.362      860.335
08/31/2014  12:58:00      184.331      113.438       38.271      105.565       65.186       58.288    11143.876     4249.259     3397.519        3.355        0.940      216.439       36.351        0.028      347.043       25.723      860.332
08/31/2014  12:59:00       90.990      118.903      112.525      112.244       64.813       74.107    12598.642     4200.772     5491.810        2.868        1.115      149.723       71.219        0.226      347.347       26.248      860.337
08/31/2014  13:00:00       57.624      -84.913        6.488       81.841       84.748       53.319     6698.024     7182.195     2842.897        1.364        0.836      102.619       56.965        0.308      346.927       25.527      860.340
08/31/2014  13:01:00       62.656     -117.222       23.799       47.779       98.651       60.506     2282.790     9731.965     3660.934        1.695        0.784      132.916       64.805        0.238      347.091       25.810      860.321
08/31/2014  13:02:00       92.782      -22.199       47.862       90.252       93.533       76.760     8145.489     8748.472     5892.107        1.708        1.139       95.401       62.876        0.434      347.392       26.326      860.322
08/31/2014  13:03:00      150.802      109.418      113.876      121.228      109.248       87.099    14696.126    11935.156     7586.262        4.094        1.711      186.316       81.284        0.190      347.031       25.704      860.325
08/31/2014  13:04:00      124.367      -61.112       19.179       55.565       91.056       52.017     3087.506     8291.108     2705.727        1.682        0.704      138.571       57.660        0.173      346.630       25.018      860.337
08/31/2014  13:05:00       46.961     -125.634        4.267       37.458       52.051       25.662     1403.118     2709.328      658.536        1.139        0.239      134.124       23.110        0.030      346.850       25.395      860.296
08/31/2014  13:06:00       13.293      -53.026       15.924       39.606       49.085       34.175     1568.659     2409.349     1167.931        0.419        0.257       54.667       25.887        0.224      347.156       25.921      860.264
08/31/2014  13:07:00       54.722       25.364       34.145       52.766       62.743       30.977     2784.237     3936.727      959.552        0.624        0.384       60.315       32.389        0.288      347.341       26.239      860.245
08/31/2014  13:08:00       21.381      -60.946        5.020       32.593       58.658       35.976     1062.309     3440.781     1294.288        0.500        0.290       64.587       33.932        0.276      347.657       26.784      860.224
08/31/2014  13:09:00       -5.758       -3.598       45.594       17.871       45.658       23.215      319.364     2084.609      538.917        0.253        0.147        6.790       26.014       14.679      348.070       27.497      860.221
08/31/2014  13:10:00       15.668      -16.620       50.677       45.302       58.730       39.212     2052.305     3449.266     1537.614        0.506        0.352       22.841       31.681        1.924      347.943       27.279      860.217
08/31/2014  13:11:00       58.043        0.680       52.917       83.208       93.880       45.278     6923.634     8813.467     2050.092        1.197        0.889       58.047       53.280        0.842      347.732       26.914      860.201
08/31/2014  13:12:00      108.574     -139.144        1.035       74.189       85.805       58.352     5503.980     7362.565     3404.980        2.371        0.814      176.492       52.179        0.087      347.304       26.173      860.193
08/31/2014  13:13:00      100.315      -25.395        9.335       50.584      123.174       48.013     2558.764    15171.819     2305.294        1.541        1.002      103.480       46.871        0.205      347.611       26.705      860.201
08/31/2014  13:14:00       93.286       62.495        5.609       47.336       43.100       33.375     2240.719     1857.623     1113.891        0.892        0.261      112.285       16.672        0.022      347.461       26.448      860.219
08/31/2014  13:15:00        3.653       -4.207       16.192       90.840       59.491       37.789     8251.923     3539.177     1428.040        0.675        0.661        5.572       28.058       25.360      347.718       26.891      860.218
08/31/2014  13:16:00       45.218      -63.108       14.655       62.614       43.382       39.958     3920.537     1882.031     1596.610        0.682        0.370       77.635       37.781        0.237      347.694       26.850      860.216
08/31/2014  13:17:00       24.767      -70.551       17.363       42.951       53.884       45.577     1844.760     2903.467     2077.296        0.636        0.341       74.772       32.090        0.184      347.956       27.300      860.199
08/31/2014  13:18:00       -1.723      -47.984       40.730       54.917       63.675       52.785     3015.835     4054.512     2786.277        0.691        0.493       48.014       43.961        0.838      347.999       27.376      860.180
08/31/2014  13:19:00       68.750     -103.551        5.869      113.613      111.300       66.395    12907.896    12387.750     4408.318        2.259        1.485      124.295       71.080        0.327      347.528       26.561      860.168
08/31/2014  13:20:00      -43.571       -8.271       48.376       52.156       48.565       37.374     2720.275     2358.547     1396.809        0.539        0.324       44.349       36.742        0.686      348.203       27.729      860.158
08/31/2014  13:21:00       12.165      -71.792        2.422       56.516       63.531       48.735     3194.025     4036.198     2375.101        0.745        0.480       72.816       42.511        0.341      347.958       27.305      860.153
08/31/2014  13:22:00       -3.608      -78.972      -20.003       48.948       70.476       24.798     2395.881     4966.837      614.949        0.731        0.399       79.054       20.970        0.070      347.347       26.248      860.146
08/31/2014  13:23:00       52.437       34.525       84.467       98.136      129.272       71.838     9630.738    16711.145     5160.640        2.128        1.575       62.783       86.955        1.918      347.791       27.016      860.140
08/31/2014  13:24:00      125.186       15.006       20.109       88.481       92.427       71.982     7828.923     8542.739     5181.428        1.892        1.078      126.083       64.301        0.260      347.354       26.262      860.149
08/31/2014  13:25:00      223.047      120.089       69.638      108.632       76.978       74.203    11800.887     5925.627     5506.017        4.612        1.162      253.321       42.929        0.029      347.390       26.319      860.126
08/31/2014  13:26:00      186.031       68.760       59.142      124.335      126.421       67.898    15459.171    15982.234     4610.165        3.944        1.803      198.332       56.704        0.082      347.494       26.502      860.107
08/31/2014  13:27:00      256.173      138.786       33.360      115.724       88.262       76.959    13392.047     7790.211     5922.755        5.655        1.355      291.353       71.048        0.059      347.271       26.116      860.092
08/31/2014  13:28:00      236.587      152.780       14.410      112.836       81.730       55.795    12732.028     6679.779     3113.037        5.102        1.126      281.630       46.261        0.027      347.018       25.679      860.102
08/31/2014  13:29:00      194.952      123.080       13.153       59.538       46.718       41.522     3544.759     2182.527     1724.091        3.039        0.373      230.554       20.783        0.008      347.047       25.730      860.102
08/31/2014  13:30:00       47.559       13.723       -2.125       46.124       42.089       30.836     2127.393     1771.511      950.855        0.365        0.242       49.499       21.517        0.189      347.369       26.289      860.088
08/31/2014  13:31:00       55.574       62.463       67.903       88.553       70.886       56.260     7841.573     5024.860     3165.219        1.381        0.802       83.607       52.723        0.398      347.820       27.065      860.057
08/31/2014  13:32:00       41.491      -42.706       22.126       38.371      100.894       56.775     1472.319    10179.690     3223.436        0.945        0.744       59.542       68.437        1.321      347.210       26.014      860.061
08/31/2014  13:33:00      -70.619      -54.419       -3.024       80.242       39.799       28.907     6438.701     1583.942      835.603        0.841        0.443       89.154       38.485        0.186      347.374       26.297      860.041
08/31/2014  13:34:00      -37.153      -98.425        9.415       84.708       50.722       49.207     7175.443     2572.693     2421.357        1.166        0.608      105.204       45.778        0.189      347.488       26.493      860.030
08/31/2014  13:35:00       -8.809      -46.262        5.779       29.201       52.270       38.385      852.689     2732.109     1473.425        0.365        0.253       47.093       31.336        0.443      347.668       26.804      860.026
08/31/2014  13:36:00       11.772      -14.994       22.856       40.639       67.330       42.866     1651.567     4533.299     1837.476        0.445        0.401       19.062       46.072        5.841      348.306       27.906      860.012
08/31/2014  13:37:00       56.040      -65.878       23.252       71.969      103.283       56.324     5179.516    10667.282     3172.396        1.352        0.951       86.489       69.163        0.639      347.688       26.838      859.996
08/31/2014  13:38:00       71.162     -112.316       -9.307       52.357       79.738       37.984     2741.224     6358.171     1442.800        1.415        0.527      132.962       33.194        0.062      347.565       26.627      859.995
08/31/2014  13:39:00       93.230     -240.398      -14.987      116.651      106.721       58.147    13607.409    11389.297     3381.065        4.754        1.419      257.843       61.315        0.057      347.433       26.397      859.979
08/31/2014  13:40:00       74.463      -36.596       56.805      122.818      170.324       71.604    15084.204    29010.253     5127.201        2.966        2.461       82.970      110.775        1.783      347.528       26.562      860.008
08/31/2014  13:41:00      -94.068       -3.661      -34.347       97.750       36.847       27.355     9555.078     1357.676      748.319        1.085        0.583       94.139       34.890        0.137      347.292       26.154      859.972
08/31/2014  13:42:00     -176.866      -79.082      -21.112       41.005       44.172       27.040     1681.393     1951.130      731.179        2.117        0.218      193.741       21.470        0.012      347.312       26.188      859.940
08/31/2014  13:43:00     -121.539      -53.603        0.837       96.288       52.497       32.156     9271.366     2755.969     1033.993        1.535        0.653      132.835       33.198        0.062      347.655       26.780      859.913
08/31/2014  13:44:00      -74.844      -13.449        4.209       42.880       29.078       24.883     1838.666      845.551      619.184        0.455        0.165       76.043       25.406        0.112      347.461       26.446      859.923
08/31/2014  13:45:00       11.388       48.726       23.222       30.613       32.592       31.132      937.146     1062.246      969.180        0.301        0.148       50.039       21.710        0.188      347.928       27.254      859.914
08/31/2014  13:46:00       -5.657       17.962       22.865       22.530       18.830       24.285      507.618      354.582      589.765        0.116        0.073       18.832       15.377        0.667      348.455       28.165      859.914
08/31/2014  13:47:00       54.973       64.025       54.625       66.044       46.989       49.613     4361.783     2208.012     2461.444        0.957        0.452       84.387       40.250        0.228      348.147       27.631      859.908
08/31/2014  13:48:00       41.153       89.097       20.006       64.459       61.628       56.041     4154.990     3798.013     3140.583        1.056        0.555       98.142       39.704        0.164      348.052       27.466      859.903
08/31/2014  13:49:00       30.308      122.220       -9.953       61.824       77.188       42.965     3822.223     5958.032     1845.997        1.379        0.581      125.922       38.781        0.095      347.605       26.695      859.902
08/31/2014  13:50:00       16.043       43.371       23.481       43.800       36.097       37.851     1918.482     1303.024     1432.672        0.367        0.233       46.243       39.001        0.711      348.030       27.429      859.913
08/31/2014  13:51:00        5.756       18.043       13.497       45.278       35.614       33.985     2050.076     1268.325     1155.001        0.251        0.224       18.939       11.988        0.401      348.185       27.696      859.908
08/31/2014  13:52:00       74.182      -69.721       18.186       78.246       76.092       58.179     6122.492     5790.067     3384.845        1.299        0.765      101.804       61.348        0.363      347.763       26.968      859.896
08/31/2014  13:53:00       71.822     -112.245       -1.239       72.397       78.594       41.057     5241.293     6176.997     1685.712        1.543        0.655      133.257       47.512        0.127      347.337       26.232      859.885
08/31/2014  13:54:00       23.083      -21.612       39.496       35.441       56.444       37.913     1256.083     3185.922     1437.422        0.422        0.294       31.621       39.497        1.560      347.946       27.284      859.868
08/31/2014  13:55:00      -13.450      -39.209       55.622       42.791       49.144       27.202     1831.058     2415.152      739.971        0.490        0.249       41.451       17.973        0.188      348.148       27.632      859.850
08/31/2014  13:56:00       -7.254       20.918       58.182       25.604       58.165       41.899      655.571     3383.167     1755.550        0.483        0.290       22.140       33.173        2.245      348.164       27.660      859.827
08/31/2014  13:57:00      -11.699       29.493       52.431       20.701       39.195       27.589      428.552     1536.285      761.175        0.324        0.136       31.728       23.073        0.529      348.406       28.078      859.827
08/31/2014  13:58:00      -11.619       54.132       11.337       24.421       53.185       25.844      596.391     2828.626      667.907        0.364        0.205       55.365       25.276        0.208      348.347       27.978      859.827
08/31/2014  13:59:00      -23.037       39.797        9.983       26.428       40.936       37.355      698.455     1675.719     1395.428        0.299        0.188       45.984       34.421        0.560      348.450       28.156      859.816
08/31/2014  14:00:00        1.678      -54.761       14.287       25.060       38.621       26.699      628.013     1491.584      712.838        0.302        0.142       54.787       18.390        0.113      348.435       28.130      859.806
08/31/2014  14:01:00        9.353      -17.914       37.697       26.323       32.163       23.922      692.896     1034.473      572.278        0.206        0.115       20.209       20.563        1.035      348.713       28.610      859.808
08/31/2014  14:02:00       43.099      -45.874       21.311       52.410       78.798       47.828     2746.797     6209.083     2287.541        0.783        0.562       62.943       53.881        0.733      348.145       27.629      859.778
08/31/2014  14:03:00       85.411       86.639       76.843       79.824       65.364       59.057     6371.846     4272.388     3487.700        1.742        0.707      121.661       51.325        0.178      348.519       28.274      859.764
08/31/2014  14:04:00       80.778      -30.945       40.518       80.395      105.465       58.320     6463.343    11122.891     3401.219        1.505        1.049       86.503       66.641        0.594      348.474       28.195      859.770
08/31/2014  14:05:00       98.294     -103.243       15.705       79.481      109.437       62.298     6317.185    11976.382     3881.053        2.137        1.109      142.551       71.927        0.255      348.337       27.958      859.769
08/31/2014  14:06:00      125.137     -107.289        9.497       70.145       83.600       44.692     4920.293     6988.878     1997.332        2.058        0.695      164.834       46.728        0.080      347.857       27.127      859.775
08/31/2014  14:07:00      103.391     -110.351      -11.025       67.820       63.152       50.390     4599.576     3988.230     2539.161        1.706        0.556      151.219       46.230        0.093      347.946       27.283      859.770
08/31/2014  14:08:00       32.871      -62.146       15.717       35.970       54.228       39.574     1293.840     2940.710     1566.135        0.549        0.290       70.304       30.875        0.193      348.134       27.609      859.755
08/31/2014  14:09:00      103.305       29.012       42.586       95.087      117.702       44.676     9041.484    13853.660     1995.923        1.910        1.245      107.301       47.489        0.196      348.105       27.559      859.723
08/31/2014  14:10:00      106.340       73.034       23.403       59.350       41.714       35.103     3522.476     1740.027     1232.244        1.184        0.325      129.005       29.431        0.052      347.504       26.521      859.747
08/31/2014  14:11:00      -19.022       27.268      -14.157       53.673       34.175       41.216     2880.834     1167.928     1698.746        0.353        0.287       33.248       32.000        0.926      347.873       27.158      859.718
08/31/2014  14:12:00      -88.569       88.106      -18.140       52.513       43.827       32.621     2757.657     1920.780     1064.108        1.084        0.287      124.929       24.374        0.038      348.066       27.490      859.678
08/31/2014  14:13:00      -50.077       34.798       10.818       37.527       45.477       26.951     1408.247     2068.118      726.347        0.402        0.210       60.981       16.429        0.073      348.342       27.967      859.655
08/31/2014  14:14:00       20.169       41.445       11.177       50.000       38.100       34.508     2500.007     1451.578     1190.803        0.369        0.257       46.092       19.993        0.188      348.412       28.089      859.646
08/31/2014  14:15:00       17.174       10.297       -5.220       28.599       26.539       28.086      817.893      704.333      788.838        0.137        0.116       20.024       15.093        0.568      348.055       27.472      859.615
08/31/2014  14:16:00       47.174      -17.109        7.203       50.052       47.145       29.293     2505.184     2222.607      858.058        0.408        0.279       50.181       18.415        0.135      348.024       27.420      859.604
08/31/2014  14:17:00      249.824      139.261      138.175      156.283      117.590       91.955    24424.515    13827.364     8455.656        7.379        2.335      286.017       70.686        0.061      347.978       27.336      859.571
08/31/2014  14:18:00      128.253      117.871      138.689      149.171      124.859      104.741    22252.063    15589.733    10970.677        4.919        2.441      174.191      107.155        0.378      347.944       27.279      859.554
08/31/2014  14:19:00      190.281       97.860       36.681      111.531       69.720       61.207    12439.057     4860.823     3746.281        3.408        1.052      213.971       43.170        0.041      347.957       27.299      859.557
08/31/2014  14:20:00      168.711       79.313       93.999      131.476      130.615       86.869    17285.871    17060.166     7546.143        4.273        2.095      186.424       86.963        0.218      348.066       27.486      859.531
08/31/2014  14:21:00      232.258      183.360      106.856      128.117       79.293       76.704    16413.914     6287.390     5883.444        6.378        1.429      295.914       75.086        0.064      347.977       27.332      859.537
08/31/2014  14:22:00       43.212      115.215      135.008       80.976       94.539       70.349     6557.046     8937.580     4948.914        2.690        1.022      123.052       62.616        0.259      348.216       27.747      859.539
08/31/2014  14:23:00      115.437       43.007       90.137      105.123       94.556       83.243    11050.925     8940.910     6929.339        2.511        1.346      123.188       87.972        0.510      348.249       27.807      859.527
08/31/2014  14:24:00      137.460       82.633      119.595      151.192      116.762       82.437    22858.959    13633.281     6795.835        4.165        2.164      160.385       75.223        0.220      348.126       27.591      859.535
08/31/2014  14:25:00      198.757      148.794      118.628      131.714      122.296      111.252    17348.457    14956.322    12377.057        6.019        2.234      248.282       88.320        0.127      347.926       27.246      859.521
08/31/2014  14:26:00      162.952      115.081      132.194      133.185      116.140       83.241    17738.352    13488.495     6929.024        4.771        1.908      199.492       71.582        0.129      348.124       27.588      859.501
08/31/2014  14:27:00      131.647      142.157      141.030       95.141       62.043       55.750     9051.775     3849.318     3108.085        3.672        0.800      193.751       44.326        0.052      348.426       28.109      859.502
08/31/2014  14:28:00       76.961        2.091       76.545      103.463       99.365       66.007    10704.603     9873.446     4356.967        1.836        1.247       76.989       79.364        1.063      348.568       28.357      859.507
08/31/2014  14:29:00       88.422      -76.768       10.131       62.544       77.716       47.435     3911.694     6039.792     2250.109        1.301        0.610      117.097       48.906        0.174      348.159       27.651      859.503
08/31/2014  14:30:00       31.985      -47.159       25.269       35.925       44.870       32.795     1290.617     2013.275     1075.484        0.413        0.219       56.982       23.197        0.166      348.330       27.948      859.498
08/31/2014  14:31:00       57.096       65.666       21.861       48.237       43.709       41.316     2326.776     1910.507     1707.047        0.700        0.297       87.017       19.195        0.049      348.511       28.260      859.500
08/31/2014  14:32:00      100.930       71.252       18.217       72.747       62.715       47.003     5292.126     3933.219     2209.299        1.351        0.572      123.546       32.070        0.067      348.240       27.792      859.494
08/31/2014  14:33:00      145.108       98.942       29.639       83.036       54.651       53.879     6894.947     2986.730     2902.951        2.225        0.639      175.629       33.556        0.037      348.266       27.835      859.476
08/31/2014  14:34:00      115.139       64.341       43.004       82.802       60.097       48.007     6856.221     3611.638     2304.714        1.601        0.639      131.897       17.102        0.017      348.462       28.175      859.458
08/31/2014  14:35:00       95.866       35.213       53.042       71.470       61.166       46.986     5107.916     3741.229     2207.685        1.215        0.553      102.128       34.533        0.114      348.463       28.177      859.444
08/31/2014  14:36:00      173.440      137.619       77.993       69.203       50.015       65.209     4788.994     2501.497     4252.191        3.332        0.577      221.406       49.400        0.050      348.010       27.390      859.437
08/31/2014  14:37:00       54.295       45.390       92.039       60.955       56.874       39.933     3715.525     3234.655     1594.671        1.101        0.427       70.768       37.853        0.286      348.135       27.610      859.426
08/31/2014  14:38:00       20.880       27.022       59.205       31.059       61.673       33.028      964.656     3803.601     1090.858        0.526        0.293       34.149       37.582        1.211      348.048       27.459      859.414
08/31/2014  14:39:00       33.174       -0.902       47.640       42.594       28.718       22.872     1814.274      824.705      523.144        0.327        0.158       33.186       18.038        0.295      348.329       27.946      859.410
08/31/2014  14:40:00       58.883      -15.200       18.709       44.622       29.622       28.122     1991.162      877.491      790.848        0.385        0.183       60.813       13.793        0.051      348.058       27.478      859.396
08/31/2014  14:41:00       48.878        7.547       43.698       44.318       42.172       39.690     1964.109     1778.497     1575.260        0.484        0.266       49.457       32.498        0.432      348.086       27.526      859.391
08/31/2014  14:42:00       37.056       16.143       24.358       36.049       29.720       38.272     1299.524      883.286     1464.776        0.294        0.182       40.420       16.306        0.163      348.114       27.575      859.377
08/31/2014  14:43:00        7.196       16.433       11.601       33.620       34.046       28.161     1130.312     1159.139      793.052        0.177        0.154       17.939       11.942        0.443      348.246       27.803      859.347
08/31/2014  14:44:00        9.741      -31.580       16.312       26.945       51.010       22.690      726.047     2602.043      514.848        0.260        0.192       33.048       12.642        0.146      348.694       28.578      859.337
08/31/2014  14:45:00       72.871      -59.897       -0.011       47.044       58.500       37.236     2213.154     3422.222     1386.504        0.796        0.351       94.328       36.762        0.152      348.167       27.666      859.315
08/31/2014  14:46:00      -15.703       -9.001      -20.230       37.642       45.584       24.793     1416.908     2077.861      614.682        0.242        0.205       18.100       30.441        2.829      347.980       27.342      859.301
08/31/2014  14:47:00       25.191      -74.707       15.176       39.956       67.387       30.199     1596.522     4540.993      911.993        0.675        0.352       78.840       23.920        0.092      348.201       27.725      859.283
08/31/2014  14:48:00       67.473      -72.693       15.222       52.967       56.730       37.539     2805.472     3218.258     1409.167        0.875        0.372       99.181       36.026        0.132      348.334       27.954      859.261
08/31/2014  14:49:00       22.118        6.990       33.011       72.179       82.737       38.740     5209.869     6845.460     1500.784        0.759        0.678       23.197       21.203        0.836      348.463       28.177      859.231
08/31/2014  14:50:00      158.067      132.479       83.506      117.027       71.990       62.538    13695.339     5182.579     3910.942        3.614        1.139      206.242       48.697        0.056      348.572       28.364      859.207
08/31/2014  14:51:00      214.321      129.536       19.363       98.319       85.118       68.844     9666.721     7245.075     4739.439        4.237        1.083      250.426       20.287        0.007      348.191       27.704      859.190
08/31/2014  14:52:00      178.493      167.770      158.557      109.634       81.057       75.167    12019.578     6570.304     5650.065        5.469        1.212      244.963       51.545        0.044      348.415       28.090      859.178
08/31/2014  14:53:00      148.194       60.460       72.299       96.442      114.251       76.271     9301.015    13053.333     5817.221        2.950        1.409      160.053       58.800        0.135      348.259       27.822      859.190
08/31/2014  14:54:00       97.800      132.813       95.805       68.109       60.244       57.452     4638.815     3629.383     3300.736        2.397        0.578      164.937       33.286        0.041      348.070       27.495      859.194
08/31/2014  14:55:00       32.031       68.613       92.991       47.996       55.901       34.434     2303.575     3124.871     1185.683        1.050        0.331       75.722       29.035        0.147      348.365       28.007      859.178
08/31/2014  14:56:00       93.781       47.471       46.832       94.571       73.306       54.390     8943.634     5373.838     2958.231        1.526        0.864      105.112       39.355        0.140      348.385       28.040      859.143
08/31/2014  14:57:00       65.513       46.272       78.629       76.941      100.048       59.712     5919.968    10009.540     3565.533        1.605        0.975       80.206       66.557        0.689      348.531       28.294      859.118
08/31/2014  14:58:00       43.135       33.506       61.480       49.003       52.588       39.721     2401.280     2765.527     1577.768        0.675        0.337       54.620       35.890        0.432      348.727       28.634      859.115
08/31/2014  14:59:00       91.843       53.031       35.247       62.171       69.777       54.055     3865.273     4868.782     2921.927        1.207        0.583      106.053       44.469        0.176      348.468       28.186      859.102
08/31/2014  15:00:00       48.348       37.652       59.528       48.198       52.872       39.583     2323.013     2795.445     1566.800        0.699        0.334       61.280       30.028        0.240      348.428       28.117      859.086
08/31/2014  15:01:00       91.262       40.752        8.822       28.560       35.371       30.539      815.694     1251.082      932.621        0.653        0.150       99.947       23.023        0.053      348.034       27.434      859.071
08/31/2014  15:02:00       31.039       47.328       16.072       30.414       24.604       29.372      924.998      605.350      862.717        0.293        0.120       56.598       24.483        0.187      348.491       28.226      859.063
08/31/2014  15:03:00       18.964       17.663       18.355       20.970       27.768       29.267      439.744      771.049      856.563        0.154        0.103       25.916       16.270        0.394      348.739       28.655      859.059
08/31/2014  15:04:00       -1.934        6.615       24.215       17.965       15.660       17.590      322.728      245.226      309.400        0.076        0.044        6.892        9.425        1.870      349.246       29.534      859.053
08/31/2014  15:05:00       69.185      -49.411       16.669       48.790       50.584       39.035     2380.430     2558.781     1523.715        0.698        0.323       85.018       25.404        0.089      348.612       28.435      859.040
08/31/2014  15:06:00      -20.293      -23.063       30.597       58.866       44.512       43.328     3465.221     1981.292     1877.273        0.460        0.366       30.720       16.433        0.286      349.056       29.205      859.009
08/31/2014  15:07:00       33.293      -83.531       21.140       45.811      100.578       57.699     2098.634    10115.863     3329.133        1.204        0.777       89.921       58.420        0.422      348.903       28.939      859.006
08/31/2014  15:08:00      -53.707     -114.898       15.707       64.382       76.097       49.654     4145.000     5790.693     2465.476        1.436        0.620      126.830       25.893        0.042      348.823       28.799      859.001
08/31/2014  15:09:00     -117.853      -63.614      -13.505       70.260       77.047       40.165     4936.484     5936.190     1613.223        1.530        0.624      133.926       12.991        0.009      348.602       28.418      858.996
08/31/2014  15:10:00     -140.486      -84.749      -13.595       70.138       65.971       34.941     4919.325     4352.172     1220.864        1.880        0.525      164.069       29.190        0.032      348.586       28.389      858.983
08/31/2014  15:11:00      -92.215      -33.060       17.733       85.159       61.498       47.798     7252.129     3782.064     2284.669        1.161        0.666       97.962       44.591        0.207      348.749       28.673      858.965
08/31/2014  15:12:00     -125.144      -40.282        6.292       61.949       64.566       33.981     3837.649     4168.766     1154.725        1.324        0.458      131.467       35.694        0.074      348.651       28.503      858.950
08/31/2014  15:13:00     -156.938      -81.784       -6.059       85.246       52.218       36.363     7266.818     2726.724     1322.265        2.133        0.566      176.969       29.455        0.028      348.535       28.299      858.930
08/31/2014  15:14:00      -78.039        6.848        8.016       53.180       44.578       29.651     2828.093     1987.214      879.180        0.595        0.285       78.339       32.239        0.169      348.992       29.095      858.927
08/31/2014  15:15:00      -65.381       -1.940        6.854       47.371       58.216       34.022     2244.034     3389.060     1157.498        0.556        0.340       65.410       26.108        0.159      348.832       28.817      858.916
08/31/2014  15:16:00      -21.312       26.089       -6.191       37.678       26.925       18.855     1419.622      724.939      355.514        0.184        0.125       33.688       19.290        0.328      348.695       28.580      858.899
08/31/2014  15:17:00      -37.111       36.331       -8.232       18.754       26.103       17.774      351.728      681.359      315.923        0.206        0.067       51.934       12.529        0.058      348.659       28.517      858.869
08/31/2014  15:18:00       17.362       65.663       14.896       66.743       19.140       37.865     4454.600      366.340     1433.784        0.554        0.313       67.920       40.422        0.354      348.782       28.729      858.851
08/31/2014  15:19:00      115.968       18.444       45.999       60.409       60.913       43.102     3649.264     3710.409     1857.745        1.256        0.461      117.426       25.963        0.049      348.722       28.624      858.849
08/31/2014  15:20:00      102.029      -50.372       38.951      100.451       83.143       54.091    10090.366     6912.698     2925.830        1.719        0.996      113.786       59.095        0.270      348.878       28.895      858.815
08/31/2014  15:21:00      150.183      145.292      168.958      117.271      149.152       93.363    13752.452    22246.337     8716.582        5.845        2.236      208.961       93.461        0.200      348.702       28.588      858.788
08/31/2014  15:22:00       76.257       15.759       98.130       98.012      124.165       82.004     9606.288    15416.846     6724.663        2.371        1.587       77.868       86.987        1.248      348.923       28.971      858.783
08/31/2014  15:23:00       75.698      -17.403       80.296       82.591      121.650       71.291     6821.206    14798.749     5082.362        1.959        1.335       77.673       74.542        0.921      348.935       28.992      858.807
08/31/2014  15:24:00       79.915      -16.050       60.126      118.477      117.309       81.445    14036.813    13761.304     6633.360        2.234        1.722       81.511       85.803        1.108      348.962       29.040      858.800
08/31/2014  15:25:00       78.335     -119.691       -7.436       85.931      127.655       59.588     7384.201    16295.711     3550.776        2.387        1.362      143.046       62.567        0.191      348.498       28.237      858.814
08/31/2014  15:26:00       43.038      -23.324        1.646       48.900       33.951       21.324     2391.218     1152.664      454.733        0.320        0.200       48.952       16.141        0.109      348.392       28.055      858.806
08/31/2014  15:27:00       18.907      -47.285       -6.526       49.994      103.301       37.004     2499.364    10671.190     1369.290        0.858        0.727       50.925       41.219        0.655      348.711       28.606      858.771
08/31/2014  15:28:00       63.324     -142.135      -34.682       60.127       50.479       33.923     3615.246     2548.155     1150.765        1.636        0.366      155.603       21.655        0.019      348.611       28.432      858.739
08/31/2014  15:29:00     -100.122     -101.444       -7.380       86.781       57.353       39.475     7530.898     3289.324     1558.244        1.637        0.619      142.532       40.451        0.081      348.722       28.625      858.728
08/31/2014  15:30:00     -172.203     -139.140       -6.373       77.779       63.926       38.946     6049.527     4086.528     1516.771        3.035        0.583      221.390       29.436        0.018      348.763       28.693      858.715
08/31/2014  15:31:00     -190.655     -134.503       -1.744       76.658       71.960       49.848     5876.465     5178.238     2484.788        3.399        0.677      233.325       43.636        0.035      348.547       28.319      858.712
08/31/2014  15:32:00      -83.581      -56.181       13.426       67.188       67.612       37.951     4514.170     4571.316     1440.290        1.042        0.526      100.708       43.711        0.188      348.696       28.581      858.717
08/31/2014  15:33:00      -23.082      -27.008        3.474       37.210       48.112       27.796     1384.621     2314.795      772.597        0.287        0.224       35.527       16.999        0.229      348.770       28.708      858.708
08/31/2014  15:34:00      -26.287        4.195       14.426       21.327       44.536       22.316      454.840     1983.485      498.022        0.193        0.147       26.620       22.788        0.733      348.827       28.808      858.707
08/31/2014  15:35:00      -28.705       30.302       20.232       49.735       41.482       29.520     2473.590     1720.749      871.449        0.361        0.253       41.740       29.974        0.516      349.007       29.120      858.695
08/31/2014  15:36:00      -18.324       -2.616       16.336       39.792       27.128       20.540     1583.429      735.912      421.879        0.167        0.137       18.510       16.327        0.778      349.338       29.693      858.679
08/31/2014  15:37:00       26.767      -75.816       40.311       52.259       68.464       37.638     2730.994     4687.317     1416.615        0.846        0.442       80.402       40.054        0.248      348.893       28.922      858.686
08/31/2014  15:38:00       47.584       13.316       59.489       58.724       37.282       35.991     3448.495     1389.983     1295.333        0.606        0.307       49.412       30.194        0.373      348.857       28.859      858.678
08/31/2014  15:39:00       14.023      -28.599        9.557       22.016       27.021       29.917      484.691      730.160      895.013        0.161        0.105       31.852       23.962        0.566      348.706       28.597      858.669
08/31/2014  15:40:00      -44.813      -22.229        6.301       54.243       30.712       27.500     2942.312      943.241      756.226        0.359        0.232       50.023       15.657        0.098      348.973       29.061      858.645
08/31/2014  15:41:00      -17.173      -80.451       13.117       55.356       74.983       32.994     3064.325     5622.415     1088.605        0.836        0.489       82.263       47.754        0.337      348.822       28.798      858.634
08/31/2014  15:42:00       -8.839       -7.463       21.130       50.490       42.090       36.073     2549.272     1771.580     1301.252        0.310        0.281       11.568       30.741        7.062      349.009       29.124      858.630
08/31/2014  15:43:00      -35.314      -51.538       13.358       69.191       41.770       29.757     4787.462     1744.697      885.474        0.575        0.371       62.476       32.932        0.278      348.869       28.880      858.633
08/31/2014  15:44:00      -23.937       -8.493       14.519       33.270       28.877       21.562     1106.891      833.899      464.909        0.163        0.120       25.400       23.358        0.846      349.066       29.222      858.630
08/31/2014  15:45:00        2.629       32.458       13.280       23.012       34.053       19.470      529.552     1159.580      379.086        0.165        0.103       32.564       12.935        0.158      349.098       29.275      858.613
08/31/2014  15:46:00       69.458       42.248        7.578       31.323       41.745       38.338      981.128     1742.671     1469.791        0.543        0.210       81.298       14.567        0.032      348.931       28.986      858.600
08/31/2014  15:47:00       26.803      -42.411        2.570       30.503       40.462       24.296      930.413     1637.154      590.295        0.284        0.158       50.171       17.343        0.119      349.010       29.124      858.596
08/31/2014  15:48:00        3.677       14.773        0.487       22.096       53.123       22.140      488.212     2822.097      490.195        0.202        0.190       15.223       25.710        2.852      349.187       29.432      858.580
08/31/2014  15:49:00       48.562       36.119       14.974       43.382       41.604       24.807     1881.984     1730.861      615.371        0.406        0.211       60.522       14.291        0.056      349.084       29.251      858.561
08/31/2014  15:50:00       30.749       33.985        8.153       54.040       56.715       30.655     2920.341     3216.620      939.749        0.462        0.354       45.831       32.661        0.508      349.370       29.748      858.536
08/31/2014  15:51:00      -31.334      117.937      -28.744       36.697       69.989       28.802     1346.664     4898.488      829.542        1.139        0.354      122.028       28.607        0.055      348.801       28.763      858.530
08/31/2014  15:52:00       15.881       98.518       -7.137       57.353       53.182       44.438     3289.378     2828.302     1974.734        0.905        0.405       99.789       36.712        0.135      348.905       28.943      858.524
08/31/2014  15:53:00       79.012       85.832       -5.869       44.132       59.192       40.986     1947.610     3503.706     1679.819        1.039        0.357      116.662       38.081        0.107      348.876       28.890      858.522
08/31/2014  15:54:00       32.262       47.706        1.198       42.128       40.908       35.770     1774.743     1673.476     1279.482        0.402        0.236       57.591       26.474        0.211      348.977       29.068      858.508
08/31/2014  15:55:00       17.855       13.878        4.370       47.459       43.272       31.906     2252.398     1872.435     1017.967        0.284        0.257       22.614        9.890        0.191      349.323       29.666      858.506
08/31/2014  15:56:00       -0.014        1.530       31.352       22.261       36.168       17.028      495.565     1308.088      289.950        0.154        0.105        1.530        8.669       32.091      349.503       29.979      858.501
08/31/2014  15:57:00        8.199       14.099      -33.456       27.150       39.982       18.057      737.131     1598.579      326.055        0.202        0.133       16.309       11.372        0.486      348.857       28.860      858.485
08/31/2014  15:58:00       16.822       20.732       23.029       20.223       22.978       23.787      408.953      527.989      565.835        0.137        0.075       26.698       17.617        0.435      349.183       29.423      858.479
08/31/2014  15:59:00      -35.659       12.930       -5.577       39.120       32.941       21.666     1530.382     1085.123      469.407        0.228        0.154       37.931       15.019        0.157      349.519       30.007      858.478
08/31/2014  16:00:00      -37.047       73.748      -10.212       38.622       35.194       21.428     1491.640     1238.594      459.159        0.505        0.159       82.530       17.807        0.047      349.155       29.375      858.476
08/31/2014  16:01:00      -21.028       48.694       -4.637       39.587       33.436       22.482     1567.114     1117.978      505.433        0.301        0.160       53.040       24.408        0.212      349.152       29.371      858.471
08/31/2014  16:02:00       -2.912      106.367       -4.779       27.640       60.173       30.461      763.971     3620.769      927.871        0.833        0.266      106.406       33.770        0.101      349.072       29.229      858.465
08/31/2014  16:03:00      -12.040       81.483        3.257       16.809       48.214       21.065      282.526     2324.591      443.725        0.492        0.153       82.368       22.943        0.078      349.119       29.311      858.453
08/31/2014  16:04:00       -0.556       61.694        0.345       30.217       39.243       29.270      913.078     1539.991      856.714        0.356        0.165       61.697       23.983        0.151      349.050       29.195      858.443
08/31/2014  16:05:00       33.298       -2.047       -8.059       29.737       29.384       22.881      884.292      863.416      523.534        0.172        0.114       33.361       18.624        0.312      348.715       28.614      858.436
08/31/2014  16:06:00      -13.091       18.588      -26.869       70.029       61.971       33.733     4904.032     3840.387     1137.889        0.556        0.494       22.736       32.811        2.083      348.666       28.528      858.422
08/31/2014  16:07:00       29.908      -46.461       10.716       33.823       84.763       41.144     1144.018     7184.823     1692.805        0.659        0.501       55.255       16.080        0.085      348.778       28.723      858.392
08/31/2014  16:08:00      -46.211       98.028      -18.577       33.569       69.082       31.822     1126.865     4772.264     1012.670        0.950        0.346      108.374       18.992        0.031      348.813       28.783      858.397
08/31/2014  16:09:00      -40.655      132.061      -14.647       52.457       61.355       32.761     2751.775     3764.414     1073.276        1.345        0.379      138.177       27.238        0.039      348.980       29.072      858.393
08/31/2014  16:10:00       12.714       56.983       11.269       57.971       47.711       31.271     3360.632     2276.303      977.855        0.507        0.331       58.384       34.757        0.354      349.303       29.631      858.374
08/31/2014  16:11:00      -19.454       32.223       56.970       27.012       44.842       32.982      729.655     2010.780     1087.791        0.424        0.191       37.640       14.468        0.148      349.629       30.198      858.378
08/31/2014  16:12:00       14.536      -18.388       26.190       31.556       64.753       32.769      995.801     4192.930     1073.819        0.375        0.313       23.440       36.981        2.489      349.413       29.822      858.379
08/31/2014  16:13:00       27.674      -13.931       20.929       30.376       57.241       42.806      922.716     3276.553     1832.325        0.371        0.302       30.982       42.995        1.926      349.376       29.758      858.374
08/31/2014  16:14:00       24.324      -28.962       20.790       27.229       44.197       28.812      741.437     1953.393      830.109        0.269        0.176       37.822       29.053        0.590      349.369       29.746      858.376
08/31/2014  16:15:00       22.335      -66.119       -5.769       30.020       25.032       23.185      901.216      626.576      537.533        0.348        0.103       69.789       19.772        0.080      349.176       29.413      858.388
08/31/2014  16:16:00      -14.081      -15.974       -2.930       40.850       40.794       25.619     1668.716     1664.146      656.314        0.222        0.199       21.294       23.775        1.247      349.689       30.301      858.377
08/31/2014  16:17:00      -10.448      -38.920        2.656       72.530       81.495       51.296     5260.624     6641.454     2631.294        0.808        0.727       40.298       43.206        1.150      349.245       29.531      858.350
08/31/2014  16:18:00      -53.345     -115.689      -16.283      122.935       61.595       47.624    15113.084     3793.975     2267.998        1.883        1.059      127.396       34.450        0.073      349.276       29.585      858.365
08/31/2014  16:19:00     -242.113     -131.889       -1.966      111.549       72.333       50.239    12443.140     5231.999     2523.947        4.810        1.010      275.705       49.921        0.033      349.040       29.172      858.365
08/31/2014  16:20:00     -150.619      -84.968       -7.707       66.262       41.737       39.122     4390.669     1741.948     1530.522        1.881        0.383      172.932       40.103        0.054      349.100       29.278      858.373
08/31/2014  16:21:00     -122.331     -152.809       -8.999       55.257       85.399       42.670     3053.377     7292.959     1820.758        2.528        0.608      195.743       42.278        0.047      348.974       29.059      858.382
08/31/2014  16:22:00      -72.525      -70.834      -14.178       53.327       52.423       25.129     2843.803     2748.165      631.461        0.835        0.311      101.377       15.575        0.024      348.942       29.007      858.387
08/31/2014  16:23:00        8.644       35.069       13.113       47.261       27.021       30.742     2233.570      730.139      945.057        0.269        0.195       36.118       25.227        0.488      349.190       29.437      858.397
08/31/2014  16:24:00       19.633      -17.827       23.105       40.410       36.929       21.660     1632.989     1363.761      469.143        0.235        0.173       26.519       23.036        0.755      349.402       29.804      858.395
08/31/2014  16:25:00        0.137       53.513       18.989       21.975       19.756       25.849      482.897      390.291      668.148        0.238        0.077       53.513       10.210        0.036      349.084       29.251      858.383
08/31/2014  16:26:00      -10.333      -55.146       -1.578       28.383       48.284       23.095      805.596     2331.329      533.377        0.341        0.184       56.105       11.032        0.039      349.252       29.544      858.377
08/31/2014  16:27:00       13.329      -91.155       12.727       80.258       95.633       41.414     6441.306     9145.662     1715.096        1.297        0.865       92.124       38.508        0.175      349.315       29.653      858.390
08/31/2014  16:28:00     -167.017     -126.592      -17.726       99.743       87.134       43.216     9948.579     7592.335     1867.592        3.182        0.970      209.572       49.151        0.055      349.261       29.557      858.384
08/31/2014  16:29:00     -155.751      -40.543       -1.760       75.273       57.145       36.485     5666.037     3265.539     1331.135        1.808        0.513      160.941       37.430        0.054      349.369       29.746      858.397
08/31/2014  16:30:00      -52.413      -43.513       24.035       80.028       62.301       44.053     6404.538     3881.436     1940.647        0.872        0.611       68.122       50.501        0.550      349.563       30.083      858.396
08/31/2014  16:31:00     -122.298      -45.691       -3.205       61.782       47.255       29.197     3817.010     2233.079      852.437        1.198        0.345      130.555       28.073        0.046      349.589       30.128      858.394
08/31/2014  16:32:00     -174.465      -36.841      -18.672       84.126       54.800       35.931     7077.191     3003.012     1291.043        2.176        0.569      178.312       24.617        0.019      349.445       29.876      858.392
08/31/2014  16:33:00      -13.180      -16.182       22.421       36.170       44.659       28.271     1308.261     1994.404      799.270        0.252        0.205       20.871       26.514        1.614      349.584       30.119      858.349
08/31/2014  16:34:00      -74.945      -35.160       12.114       88.284       72.736       44.501     7793.979     5290.486     1980.362        1.103        0.753       82.783       46.899        0.321      349.810       30.510      858.341
08/31/2014  16:35:00     -342.664      -55.637      -20.964      125.115       95.536       52.915    15653.828     9127.218     2800.039        7.426        1.379      347.151       61.177        0.031      349.642       30.216      858.339
08/31/2014  16:36:00     -299.827     -111.758       -6.195      114.001      118.206       58.583    12996.339    13972.548     3432.004        6.641        1.520      319.978       63.671        0.040      349.558       30.070      858.351
08/31/2014  16:37:00     -262.242     -150.458        5.036      166.968      139.785       82.341    27878.394    19539.798     6780.015        7.281        2.710      302.338       89.148        0.087      349.298       29.622      858.341
08/31/2014  16:38:00     -449.986     -145.406      -35.785      185.404      144.801       75.652    34374.576    20967.244     5723.184       14.298        3.053      472.896       79.152        0.028      349.101       29.280      858.349
08/31/2014  16:39:00     -383.395     -199.488      -14.980      204.783      159.958       76.638    41935.945    25586.637     5873.333       13.019        3.670      432.189       83.793        0.038      349.089       29.258      858.367
08/31/2014  16:40:00     -325.100      -98.898      -16.928      131.746      104.121       63.421    17357.047    10841.174     4022.263        7.398        1.611      339.810       64.019        0.035      349.261       29.556      858.375
08/31/2014  16:41:00     -207.910      -63.876        1.503      113.250      104.560       57.436    12825.507    10932.810     3298.947        3.718        1.353      217.501       58.058        0.071      349.464       29.907      858.383
08/31/2014  16:42:00     -107.374      -42.282        3.784       92.426       70.151       45.085     8542.511     4921.134     2032.702        1.441        0.775      115.399       34.133        0.087      349.576       30.102      858.377
08/31/2014  16:43:00     -134.996     -138.241      -12.783      145.609       84.172       60.377    21201.842     7084.877     3645.380        3.471        1.597      193.221       42.742        0.049      349.224       29.494      858.379
08/31/2014  16:44:00     -210.102     -128.298       -7.033      140.130       83.609       60.694    19636.319     6990.483     3683.720        4.548        1.516      246.177       65.515        0.071      349.277       29.583      858.403
08/31/2014  16:45:00     -134.732      -46.398        1.243      104.452       82.000       53.223    10910.302     6723.962     2832.723        2.038        1.023      142.497       48.329        0.115      349.490       29.955      858.402
08/31/2014  16:46:00     -205.977     -111.962       11.935      131.500       87.146       56.848    17292.270     7594.418     3231.685        4.161        1.406      234.439       48.489        0.043      349.299       29.622      858.419
08/31/2014  16:47:00     -405.037     -281.630        1.424      156.378      140.452       82.112    24453.962    19726.766     6742.308       14.714        2.546      493.326       84.654        0.029      349.231       29.503      858.396
08/31/2014  16:48:00     -263.960     -141.673      -16.493      197.470      106.943       67.464    38994.272    11436.752     4551.345        7.249        2.749      299.576       76.899        0.066      349.294       29.613      858.408
08/31/2014  16:49:00     -295.805      -83.213      -15.211      143.865      100.956       59.160    20697.196    10192.028     3499.850        6.452        1.719      307.287       60.847        0.039      349.154       29.368      858.420
08/31/2014  16:50:00     -231.897      -81.996      -12.387       95.114      121.235       59.424     9046.755    14698.040     3531.164        4.396        1.364      245.967       56.670        0.053      349.174       29.404      858.403
08/31/2014  16:51:00      -91.462     -184.867       -1.008       73.537      104.435       36.012     5407.632    10906.709     1296.831        3.007        0.881      206.256       31.613        0.023      349.280       29.590      858.372
08/31/2014  16:52:00     -145.976     -193.751        9.437      123.793      119.458       53.091    15324.661    14270.205     2818.622        4.567        1.621      242.587       61.215        0.064      349.374       29.752      858.356
08/31/2014  16:53:00     -190.989      -73.532        5.734      177.575      160.714       64.859    31532.813    25828.874     4206.654        5.173        3.078      204.655       58.600        0.082      349.634       30.203      858.398
08/31/2014  16:54:00      -95.444      -13.862       15.862       85.623       68.088       39.162     7331.237     4636.042     1533.699        1.152        0.675       96.445       35.861        0.138      349.629       30.196      858.416
08/31/2014  16:55:00     -381.807        6.309      -18.415      160.347      144.611       69.968    25711.309    20912.460     4895.546        9.883        2.576      381.859       66.841        0.031      349.458       29.897      858.421
08/31/2014  16:56:00     -277.235     -191.576      -18.621       99.613      118.276       61.191     9922.793    13989.147     3744.319        7.078        1.383      336.987       48.438        0.021      349.387       29.773      858.436
08/31/2014  16:57:00     -286.063     -194.688       -9.702      175.446      130.087       83.531    30781.262    16922.522     6977.432        8.724        2.734      346.029       84.999        0.060      349.294       29.612      858.436
08/31/2014  16:58:00     -329.478     -194.062       -6.371      190.486      120.680       71.672    36284.764    14563.555     5136.915       10.111        2.799      382.381       80.790        0.045      349.162       29.386      858.424
08/31/2014  16:59:00     -277.788     -154.260       -5.344      189.933      101.023       52.145    36074.490    10205.655     2719.100        7.499        2.450      317.746       42.488        0.018      349.279       29.588      858.425
08/31/2014  17:00:00     -281.528     -230.420       -3.914      170.773      129.283       65.440    29163.353    16714.160     4282.458        9.125        2.508      363.801       57.732        0.025      349.080       29.242      858.423
08/31/2014  17:01:00     -306.458     -231.695       -0.378      169.449      106.072       80.006    28712.988    11251.260     6400.963        9.697        2.318      384.186       84.767        0.049      349.163       29.386      858.400
08/31/2014  17:02:00     -295.281     -177.459       -1.020      130.567      110.427       60.414    17047.776    12194.034     3649.858        7.578        1.645      344.503       60.009        0.030      349.223       29.489      858.400
08/31/2014  17:03:00     -297.509     -185.654       -3.995      154.926      117.888       63.006    24001.926    13897.502     3969.747        8.242        2.093      350.684       63.755        0.033      349.267       29.565      858.411
08/31/2014  17:04:00     -234.225     -165.203       11.473      191.181      116.254       68.846    36550.030    13514.979     4739.767        6.853        2.740      286.625       87.408        0.093      349.145       29.354      858.411
08/31/2014  17:05:00     -194.797     -120.547        4.062      180.892      120.299       77.627    32721.961    14471.911     6025.883        5.285        2.661      229.079       88.396        0.149      349.234       29.509      858.398
08/31/2014  17:06:00     -200.885        4.123        6.200      113.680       94.781       60.455    12923.190     8983.467     3654.786        3.298        1.278      200.927       58.163        0.084      349.348       29.708      858.380
08/31/2014  17:07:00      -93.646     -138.202       18.220       96.633      117.474       46.877     9337.885    13800.073     2197.417        2.676        1.267      166.941       49.554        0.088      349.400       29.799      858.375
08/31/2014  17:08:00     -342.623     -182.018      -23.930      107.207      108.277       55.297    11493.272    11723.833     3057.735        8.868        1.314      387.970       52.338        0.018      349.266       29.565      858.369
08/31/2014  17:09:00     -229.731     -127.212        7.494      166.369      116.405       80.409    27678.748    13550.178     6465.545        5.835        2.385      262.601       94.324        0.129      349.272       29.576      858.365
08/31/2014  17:10:00     -189.478     -163.048        4.830      110.002       91.302       56.993    12100.333     8336.063     3248.235        4.309        1.184      249.973       50.089        0.040      349.146       29.356      858.364
08/31/2014  17:11:00     -260.115     -178.805      -15.987      100.428       75.147       52.593    10085.801     5647.101     2766.041        5.919        0.925      315.644       50.047        0.025      349.149       29.361      858.348
08/31/2014  17:12:00     -273.052      -97.712       10.805      193.327       93.549       66.286    37375.177     8751.376     4393.826        6.736        2.526      290.009       96.752        0.111      349.279       29.588      858.340
08/31/2014  17:13:00     -319.936     -197.662       -1.140      172.732      114.874       89.977    29836.434    13196.039     8095.860        9.627        2.556      376.071       91.328        0.059      349.242       29.523      858.326
08/31/2014  17:14:00     -260.404      -85.445       -9.279      170.464      111.342       65.969    29058.056    12396.981     4351.878        6.049        2.290      274.064       80.464        0.086      349.191       29.435      858.354
08/31/2014  17:15:00     -347.680      -69.871       -9.595      204.127      101.851       76.165    41667.985    10373.607     5801.177        9.184        2.892      354.631       90.369        0.065      349.237       29.514      858.338
08/31/2014  17:16:00     -367.505      -21.578      -16.524      181.196      109.471       63.516    32832.136    11983.973     4034.256        9.231        2.443      368.138       78.640        0.046      349.341       29.695      858.330
08/31/2014  17:17:00     -331.559     -135.644       -4.366      205.549      163.706       75.544    42250.348    26799.512     5706.910       10.154        3.738      358.233       92.815        0.067      349.236       29.513      858.349
08/31/2014  17:18:00     -266.776     -179.459        2.173      158.606      119.282       70.313    25155.944    14228.189     4943.946        7.385        2.216      321.520       73.410        0.052      349.136       29.340      858.369
08/31/2014  17:19:00     -201.550     -114.441       -8.243      109.234       84.997       51.437    11932.152     7224.428     2645.743        3.779        1.090      231.774       51.892        0.050      349.274       29.580      858.386
08/31/2014  17:20:00     -392.616     -221.722       -5.859      205.511      145.778       75.361    42234.699    21251.183     5679.262       13.624        3.458      450.897       74.367        0.027      349.118       29.308      858.377
08/31/2014  17:21:00     -307.708     -110.163       -2.959      127.188      129.157       68.946    16176.701    16681.657     4753.515        7.221        1.881      326.834       66.654        0.042      349.130       29.327      858.383
08/31/2014  17:22:00     -189.321      -73.769       24.172      164.429      102.714       64.799    27036.822    10550.249     4198.916        4.182        2.089      203.186       85.086        0.175      349.302       29.627      858.392
08/31/2014  17:23:00     -301.247     -200.010      -16.248      160.778      142.062       91.018    25849.708    20181.613     8284.204        9.266        2.716      361.599       91.672        0.064      349.167       29.393      858.387
08/31/2014  17:24:00     -248.744      -88.653       15.517      166.297      141.602       84.628    27654.702    20051.195     7161.838        6.241        2.743      264.070       95.003        0.129      349.245       29.527      858.377
08/31/2014  17:25:00     -307.203     -115.954       -7.599      128.483      146.299       59.249    16507.856    21403.372     3510.503        7.464        2.071      328.358       57.910        0.031      349.218       29.480      858.399
08/31/2014  17:26:00     -339.346      -74.683      -18.114      193.995      122.724       65.748    37633.896    15061.162     4322.780        8.903        2.851      347.467       85.389        0.060      349.240       29.520      858.408
08/31/2014  17:27:00     -223.912      -21.223       15.363      177.603      110.733       71.296    31542.892    12261.811     5083.164        4.985        2.444      224.915       83.459        0.138      349.266       29.564      858.401
08/31/2014  17:28:00     -254.611      -43.550        3.684      138.186      116.948       52.485    19095.357    13676.725     2754.657        5.112        1.776      258.309       55.458        0.046      349.202       29.454      858.404
08/31/2014  17:29:00     -184.114      -58.640       -5.106      107.085       89.202       40.433    11467.145     7956.909     1634.805        2.921        1.053      193.227       36.942        0.037      349.310       29.642      858.404
08/31/2014  17:30:00     -386.592     -130.325       -1.352      168.085      126.970       71.419    28252.552    16121.321     5100.658       10.795        2.474      407.968       76.862        0.035      349.136       29.339      858.419
08/31/2014  17:31:00     -315.318      -43.521      -13.632      139.830      118.765       64.823    19552.483    14105.100     4202.012        6.967        1.893      318.307       66.372        0.043      349.035       29.163      858.419
08/31/2014  17:32:00     -340.844      -39.499      -21.209      164.947      152.552       71.282    27207.484    23272.108     5081.090        8.686        2.778      343.125       85.365        0.062      349.139       29.343      858.401
08/31/2014  17:33:00     -355.632      -57.156       -4.604      168.804      104.015       64.529    28494.817    10819.219     4164.052        8.661        2.174      360.195       78.522        0.048      349.172       29.402      858.400
08/31/2014  17:34:00     -229.052      -59.913        1.877      177.025      102.136       70.960    31337.998    10431.707     5035.300        5.142        2.340      236.758       89.526        0.143      349.282       29.594      858.406
08/31/2014  17:35:00     -249.746       -1.849       -7.662      126.347       90.729       63.371    15963.457     8231.674     4015.945        4.532        1.411      249.753       65.481        0.069      349.221       29.485      858.397
08/31/2014  17:36:00     -429.123      -82.912      -23.869      196.760      132.774       77.689    38714.472    17628.915     6035.585       12.697        3.119      437.059       83.192        0.036      349.060       29.208      858.400
08/31/2014  17:37:00     -421.020      -48.725      -18.816      182.348      127.394       82.026    33250.868    16229.107     6728.188       11.809        2.810      423.830       91.756        0.047      349.010       29.121      858.392
08/31/2014  17:38:00     -353.390      -82.840      -13.947      156.897      119.049       64.339    24616.743    14172.603     4139.485        8.743        2.146      362.970       71.459        0.039      349.049       29.188      858.387
08/31/2014  17:39:00     -244.714       32.959        4.830      127.038      133.077       62.942    16138.752    17709.410     3961.737        4.939        1.890      246.923       63.165        0.065      349.214       29.474      858.393
08/31/2014  17:40:00     -401.163     -105.254        8.182      217.299      151.948       86.997    47219.001    23088.308     7568.444       12.496        3.894      414.741      102.828        0.061      349.079       29.241      858.383
08/31/2014  17:41:00     -336.203     -113.927        0.502      214.538      154.957       91.368    46026.623    24011.752     8348.197       10.218        3.919      354.982      106.478        0.090      349.045       29.183      858.418
08/31/2014  17:42:00     -385.875     -224.825       -4.437      186.110      139.964       80.855    34637.010    19590.011     6537.482       13.010        3.038      446.593       85.851        0.037      348.899       28.928      858.423
08/31/2014  17:43:00     -254.420     -186.797        8.020      153.505       93.424       63.000    23563.666     8728.070     3969.058        6.797        1.813      315.631       67.773        0.046      348.949       29.016      858.430
08/31/2014  17:44:00     -253.417     -194.120       -0.737      103.206      108.274       57.464    10651.568    11723.331     3302.083        6.379        1.284      319.222       54.746        0.029      349.024       29.145      858.447
08/31/2014  17:45:00     -259.199     -157.263       -7.805      126.461      120.448       63.178    15992.293    14507.784     3991.416        6.323        1.725      303.176       71.585        0.056      349.031       29.158      858.453
08/31/2014  17:46:00     -296.141     -153.285      -16.454       85.588      104.148       48.631     7325.256    10846.760     2364.988        6.600        1.027      333.460       35.291        0.011      349.068       29.222      858.473
08/31/2014  17:47:00     -206.149     -119.205       -9.885      118.762       87.757       51.063    14104.454     7701.364     2607.428        4.060        1.221      238.133       46.492        0.038      349.145       29.352      858.495
08/31/2014  17:48:00     -248.468      -97.256       -2.448      131.765      128.817       72.826    17361.908    16593.897     5303.611        5.522        1.963      266.824       63.661        0.057      349.028       29.151      858.484
08/31/2014  17:49:00     -411.264      -82.300      -26.658      221.538      109.351       76.624    49079.022    11957.601     5871.299       12.175        3.345      419.418       90.359        0.046      348.975       29.061      858.485
08/31/2014  17:50:00     -390.285     -174.563      -14.478      229.459      158.770       86.924    52651.507    25208.001     7555.851       13.419        4.271      427.545      117.304        0.075      348.983       29.075      858.482
08/31/2014  17:51:00     -130.083      -92.548        3.249      104.225      106.598       56.875    10862.909    11363.239     3234.791        2.547        1.273      159.646       57.259        0.129      349.116       29.305      858.487
08/31/2014  17:52:00     -128.517      -91.333        1.446       96.655       76.264       44.869     9342.123     5816.238     2013.204        2.101        0.859      157.665       54.238        0.118      349.192       29.439      858.483
08/31/2014  17:53:00     -173.285     -146.340        0.490      124.402       94.664       63.316    15475.957     8961.289     4008.924        3.994        1.422      226.810       72.265        0.102      349.194       29.440      858.480
08/31/2014  17:54:00     -255.696     -108.501        2.047      131.916      135.116       69.131    17401.950    18256.248     4779.132        5.879        2.022      277.765       69.376        0.062      348.977       29.063      858.494
08/31/2014  17:55:00     -287.431      -95.257       -6.345      160.921       98.377       58.493    25895.638     9677.984     3421.479        6.536        1.950      302.804       70.088        0.054      349.004       29.109      858.497
08/31/2014  17:56:00     -288.226      -37.082        3.142      164.095      125.081       76.451    26927.318    15645.377     5844.791        6.643        2.421      290.602       84.171        0.084      349.017       29.133      858.496
08/31/2014  17:57:00     -244.008     -117.045       -1.250      114.597      109.606       59.782    13132.445    12013.390     3573.892        5.097        1.436      270.628       61.471        0.052      348.967       29.045      858.498
08/31/2014  17:58:00     -343.404      -90.982      -18.336      179.367      128.855       68.545    32172.503    16603.704     4698.435        9.000        2.674      355.252       80.908        0.052      348.912       28.951      858.491
08/31/2014  17:59:00     -353.937      -88.519      -12.131      154.423      110.360       64.235    23846.379    12179.352     4126.163        8.670        2.008      364.838       60.828        0.028      348.915       28.956      858.489
08/31/2014  18:00:00     -217.650      -52.538       -3.674       96.919       77.792       54.079     9393.256     6051.671     2924.560        3.425        0.918      223.901       49.942        0.050      348.942       29.004      858.491
08/31/2014  18:01:00     -292.586      -46.117       -7.885      136.419      115.816       59.597    18610.259    13413.383     3551.790        6.168        1.779      296.198       63.620        0.046      348.962       29.037      858.504
08/31/2014  18:02:00     -284.624     -158.696        2.055      160.588      124.280       70.117    25788.455    15445.577     4916.447        7.617        2.308      325.876       78.876        0.059      348.912       28.952      858.503
08/31/2014  18:03:00     -294.092     -137.085      -13.949      142.716      111.204       65.328    20367.991    12366.223     4267.750        7.123        1.850      324.472       58.723        0.033      348.890       28.913      858.500
08/31/2014  18:04:00     -271.152     -168.085        9.680      151.887      135.607       77.748    23069.766    18389.247     6044.828        7.468        2.375      319.023       80.133        0.063      348.849       28.843      858.502
08/31/2014  18:05:00     -341.222     -206.886      -12.033      152.612      129.722       77.796    23290.335    16827.856     6052.264       10.277        2.309      399.041       76.352        0.037      348.773       28.710      858.487
08/31/2014  18:06:00     -341.096     -178.132       -2.302      147.598      150.298       69.878    21785.027    22589.537     4882.936        9.866        2.463      384.808       66.261        0.030      348.766       28.699      858.488
08/31/2014  18:07:00     -175.130      -56.605       18.857      116.318      117.641       59.674    13529.991    13839.474     3560.955        3.257        1.547      184.051       58.086        0.100      348.964       29.042      858.520
08/31/2014  18:08:00     -242.864     -196.942       14.926      166.153      151.708       72.524    27606.978    23015.349     5259.665        7.693        2.794      312.680       83.706        0.072      348.807       28.768      858.534
08/31/2014  18:09:00     -317.855     -262.570       -5.306      167.504      155.473       81.924    28057.495    24171.845     6711.464       11.446        2.947      412.279       78.638        0.036      348.784       28.730      858.528
08/31/2014  18:10:00     -334.356     -178.388        2.476      149.794      151.125       80.326    22438.119    22838.824     6452.326        9.767        2.586      378.967       80.346        0.045      348.768       28.701      858.547
08/31/2014  18:11:00     -312.501     -142.470       -4.441      237.771      124.721       83.970    56534.885    15555.315     7050.894        9.854        3.957      343.445      101.413        0.087      348.706       28.595      858.532
08/31/2014  18:12:00     -331.767     -152.871      -12.064      196.094      122.924       86.374    38452.727    15110.377     7460.446        9.729        3.051      365.293       96.604        0.070      348.737       28.649      858.534
08/31/2014  18:13:00     -305.763     -156.647        6.589      199.239      170.911       93.685    39696.258    29210.673     8776.952        9.786        3.884      343.554      107.953        0.099      348.708       28.599      858.544
08/31/2014  18:14:00     -263.576     -154.495      -14.701      140.620      118.525       70.925    19773.878    14048.067     5030.387        6.620        1.943      305.517       63.892        0.044      348.714       28.610      858.556
08/31/2014  18:15:00     -238.697      -43.869        8.998      212.582      140.836       86.874    45191.287    19834.867     7547.130        6.576        3.629      242.695       99.743        0.169      348.758       28.687      858.553
08/31/2014  18:16:00     -321.372     -124.274       -6.584      106.300       89.184       62.857    11299.637     7953.775     3950.957        7.098        1.160      344.564       55.467        0.026      348.763       28.694      858.578
08/31/2014  18:17:00     -275.482     -219.821      -10.777      176.712      156.570       79.231    31227.021    24514.284     6277.517        9.316        3.101      352.437       80.425        0.052      348.747       28.666      858.584
08/31/2014  18:18:00     -369.543     -216.227       -9.855      223.731      152.002       94.177    50055.416    23104.566     8869.277       13.270        4.101      428.155      105.747        0.061      348.627       28.457      858.573
08/31/2014  18:19:00     -380.618     -150.110      -15.101      213.701      164.311       89.105    45668.201    26998.205     7939.712       12.410        4.030      409.149       91.811        0.050      348.654       28.504      858.566
08/31/2014  18:20:00     -239.544     -130.000        1.700      208.041      127.824       83.723    43280.968    16339.094     7009.528        7.044        3.331      272.546      102.194        0.141      348.677       28.544      858.577
08/31/2014  18:21:00     -359.532     -156.265      -13.773      200.424      138.447       77.440    40169.928    19167.572     5996.934       10.959        3.267      392.023       93.890        0.057      348.638       28.477      858.586
08/31/2014  18:22:00     -334.856     -293.877      -14.527      179.087      179.126      100.830    32072.140    32086.147    10166.772       13.650        3.716      445.525      105.403        0.056      348.588       28.391      858.593
08/31/2014  18:23:00     -274.946     -215.586       -3.702      205.929      131.650       81.634    42406.740    17331.612     6664.139        9.423        3.320      349.389      104.592        0.090      348.602       28.412      858.596
08/31/2014  18:24:00     -340.229     -158.161        5.055      175.235      128.860       72.607    30707.237    16604.885     5271.831        9.668        2.629      375.194       90.357        0.058      348.592       28.396      858.613
08/31/2014  18:25:00     -367.607     -159.051       -6.514      133.930       95.458       60.207    17937.172     9112.136     3624.913        9.557        1.534      400.540       57.129        0.020      348.595       28.399      858.605
08/31/2014  18:26:00     -246.409     -147.551       -3.471      137.311      119.730       66.048    18854.287    14335.190     4362.273        6.002        1.878      287.208       58.591        0.042      348.637       28.475      858.605
08/31/2014  18:27:00     -374.587     -164.700      -16.140      144.744      127.161       74.034    20950.842    16170.042     5480.980       10.514        2.130      409.196       70.593        0.030      348.586       28.386      858.587
08/31/2014  18:28:00     -271.296     -196.062       -6.496      160.314      123.826       79.468    25700.486    15332.906     6315.224        7.971        2.367      334.727       89.574        0.072      348.569       28.358      858.581
08/31/2014  18:29:00     -157.766     -106.235       13.815      141.070      108.451       71.494    19900.827    11761.643     5111.347        3.656        1.839      190.200       79.828        0.176      348.606       28.422      858.575
08/31/2014  18:30:00     -254.907     -139.160      -11.268      147.402      157.696       61.083    21727.478    24867.989     3731.132        6.739        2.516      290.419       65.085        0.050      348.605       28.418      858.574
08/31/2014  18:31:00     -330.096      -79.491        2.314      159.657      107.639       72.234    25490.312    11586.118     5217.739        7.878        2.115      339.532       83.894        0.061      348.580       28.376      858.585
08/31/2014  18:32:00     -229.374      -78.202        2.890      143.004      124.892       63.347    20450.091    15598.012     4012.884        4.939        2.003      242.339       66.786        0.076      348.595       28.401      858.598
08/31/2014  18:33:00     -213.448     -194.390       10.912      140.852      108.037       68.516    19839.290    11671.953     4694.392        5.983        1.810      288.700       80.659        0.078      348.572       28.362      858.594
08/31/2014  18:34:00     -263.248      -79.451        0.572      191.399      123.305       73.522    36633.431    15204.178     5405.513        6.642        2.862      274.976       89.832        0.107      348.535       28.299      858.585
08/31/2014  18:35:00     -300.425     -125.405      -20.588      127.267       97.345       60.626    16196.875     9476.044     3675.457        6.787        1.467      325.548       56.980        0.031      348.530       28.290      858.588
08/31/2014  18:36:00     -275.092     -212.117        1.398      227.087      136.190       89.912    51568.701    18547.658     8084.195        9.942        3.910      347.375      113.497        0.107      348.467       28.181      858.598
08/31/2014  18:37:00     -504.478     -275.318      -28.252      158.802      147.708       73.638    25218.026    21817.670     5422.604       19.177        2.623      574.716       67.259        0.014      348.414       28.089      858.605
08/31/2014  18:38:00     -401.270     -220.920      -17.237      178.728      152.631       69.552    31943.604    23296.335     4837.470       13.509        3.004      458.065       91.418        0.040      348.394       28.055      858.618
08/31/2014  18:39:00     -342.700      -76.955      -15.259      189.671      134.171       74.281    35975.013    18001.798     5517.637        9.153        2.975      351.234       85.654        0.059      348.406       28.077      858.623
08/31/2014  18:40:00     -484.029      -76.973      -21.084      169.985      131.443       73.287    28894.769    17277.282     5371.037       14.609        2.577      490.111       75.755        0.024      348.371       28.013      858.636
08/31/2014  18:41:00     -324.168      -74.292       -1.001      164.387      141.837       65.135    27023.212    20117.745     4242.529        8.098        2.569      332.572       62.558        0.035      348.386       28.042      858.640
08/31/2014  18:42:00     -336.868      -99.504       -3.935      155.938      149.617       79.799    24316.695    22385.211     6367.887        8.822        2.653      351.256       84.657        0.058      348.370       28.011      858.641
08/31/2014  18:43:00     -372.814     -201.958      -14.500      201.336      165.122       98.530    40536.088    27265.312     9708.161       12.873        3.875      424.002      108.540        0.066      348.345       27.968      858.636
08/31/2014  18:44:00     -286.223      -40.574       -0.024      168.512      101.305       75.133    28396.448    10262.753     5644.991        6.393        2.215      289.084       87.128        0.091      348.347       27.973      858.657
08/31/2014  18:45:00     -286.630      -89.582      -10.643      100.249       91.726       52.868    10049.858     8413.605     2794.984        5.577        1.063      300.303       51.089        0.029      348.338       27.956      858.655
08/31/2014  18:46:00     -279.568     -170.618      -10.535      195.169      146.390       82.316    38090.799    21430.138     6775.897        8.683        3.315      327.519       83.958        0.066      348.328       27.941      858.644
08/31/2014  18:47:00     -399.440     -231.606      -13.441      163.557      183.511      101.225    26750.950    33676.217    10246.521       14.201        3.534      461.729       78.432        0.029      348.250       27.805      858.619
08/31/2014  18:48:00     -357.725     -105.373       -6.926      223.672      130.050       79.068    50029.302    16913.006     6251.677       10.614        3.660      372.922       97.379        0.068      348.274       27.849      858.655
08/31/2014  18:49:00     -282.529     -155.364       -4.074      202.416      135.967       98.968    40972.426    18487.062     9794.757        8.660        3.463      322.429      111.482        0.120      348.254       27.813      858.648
08/31/2014  18:50:00     -271.727     -155.806       -0.846      152.126      160.596       78.815    23142.369    25791.080     6211.848        7.662        2.757      313.227       72.700        0.054      348.262       27.826      858.642
08/31/2014  18:51:00     -324.845     -124.502      -15.327      161.054      140.847       78.345    25938.452    19837.796     6137.865        8.658        2.596      347.887       84.006        0.058      348.235       27.780      858.654
08/31/2014  18:52:00     -238.277     -101.727       -5.084      128.956      110.088       70.639    16629.713    12119.352     4989.847        5.044        1.687      259.083       75.738        0.085      348.224       27.762      858.676
08/31/2014  18:53:00     -319.835      -98.150      -15.315      146.514      123.485       69.118    21466.413    15248.436     4777.272        7.682        2.075      334.556       52.908        0.025      348.215       27.744      858.661
08/31/2014  18:54:00     -300.364     -105.702       -5.743      170.636      170.022       82.477    29116.617    28907.577     6802.430        8.311        3.241      318.420       93.308        0.086      348.201       27.722      858.663
08/31/2014  18:55:00     -362.825     -169.241      -11.687      187.413      119.565       87.380    35123.679    14295.810     7635.286       10.873        2.853      400.355       92.346        0.053      348.156       27.644      858.635
08/31/2014  18:56:00     -172.666      -34.902       13.897      172.496       81.185       75.119    29754.862     6590.986     5642.896        3.660        2.099      176.158       89.884        0.260      348.205       27.730      858.630
08/31/2014  18:57:00     -479.901      -54.447      -43.783      182.828      127.908       76.335    33426.220    16360.419     5827.031       14.539        2.781      482.980       82.201        0.029      348.121       27.581      858.639
08/31/2014  18:58:00     -493.725      -88.033      -22.041      171.153      130.995       85.232    29293.228    17159.731     7264.441       15.285        2.686      501.512       95.794        0.036      348.080       27.512      858.632
08/31/2014  18:59:00     -387.347      -57.500      -21.880      166.709      152.429       71.161    27791.783    23234.562     5063.937       10.495        2.805      391.592       78.850        0.041      348.097       27.541      858.631
08/31/2014  19:00:00     -352.676      -49.157       -6.767      190.895      121.350       81.420    36440.765    14725.747     6629.136        9.231        2.890      356.085       94.452        0.070      348.075       27.501      858.631
08/31/2014  19:01:00     -298.855     -129.996        4.065      174.293      139.218       82.238    30377.977    19381.584     6763.012        8.136        2.826      325.904       84.799        0.068      348.045       27.451      858.648
08/31/2014  19:02:00     -365.220      -98.235      -22.116      158.377      124.824       67.715    25083.331    15580.909     4585.327        9.438        2.262      378.200       58.269        0.024      348.041       27.444      858.669
08/31/2014  19:03:00     -396.062      -96.198      -13.652      186.083      153.085       74.018    34626.876    23434.911     5478.648       11.491        3.177      407.577       77.365        0.036      348.027       27.419      858.679
08/31/2014  19:04:00     -290.401      -20.071      -13.605      132.754       92.882       57.061    17623.679     8627.012     3255.965        5.721        1.475      291.094       62.971        0.047      348.027       27.422      858.703
08/31/2014  19:05:00     -211.401       -6.983        2.353      145.697      123.562       70.879    21227.682    15267.691     5023.878        4.312        2.076      211.517       64.243        0.092      348.074       27.503      858.714
08/31/2014  19:06:00     -379.779      -70.657       -6.221      154.728      121.170       69.821    23940.739    14682.052     4874.953        9.637        2.175      386.296       55.609        0.021      348.003       27.378      858.729
08/31/2014  19:07:00     -320.679     -133.829        1.141      197.248      118.499       67.835    38906.789    14042.051     4601.536        8.914        2.878      347.484       69.632        0.040      347.969       27.320      858.747
08/31/2014  19:08:00     -205.704      -48.059      -22.566      103.959       76.263       52.263    10807.443     5816.096     2731.443        3.224        0.968      211.244       43.178        0.042      347.997       27.369      858.760
08/31/2014  19:09:00     -375.451      -36.393      -14.473      175.337      163.995       75.505    30743.174    26894.335     5700.937       10.291        3.167      377.211       75.227        0.040      347.939       27.266      858.774
08/31/2014  19:10:00     -242.735      -44.566       -0.974      159.157      119.762       58.086    25330.816    14342.846     3374.035        5.197        2.152      246.792       63.787        0.067      347.912       27.222      858.773
08/31/2014  19:11:00     -311.142      -28.928       -7.478      202.379      124.261       85.368    40957.282    15440.883     7287.774        8.068        3.184      312.484      109.184        0.122      347.871       27.150      858.779
08/31/2014  19:12:00     -314.988      -45.903       -2.007      143.693      115.558       70.551    20647.586    13353.679     4977.398        7.015        1.949      318.315       74.568        0.055      347.865       27.139      858.800
08/31/2014  19:13:00     -304.371     -132.107      -15.443      158.886      113.132       69.089    25244.847    12798.949     4773.351        7.657        2.141      331.804       84.053        0.064      347.862       27.136      858.807
08/31/2014  19:14:00     -227.174      -75.936       27.756      212.456      161.770       89.642    45137.712    26169.627     8035.615        6.873        3.967      239.530      100.434        0.176      347.809       27.044      858.779
08/31/2014  19:15:00     -411.427     -239.009      -26.842      209.276      136.883       97.201    43796.631    18736.990     9448.096       14.954        3.599      475.813       87.946        0.034      347.805       27.036      858.793
08/31/2014  19:16:00     -312.555      -48.714      -19.234      141.351      117.329       69.539    19980.007    13766.175     4835.631        6.950        1.929      316.328       74.557        0.056      347.796       27.021      858.816
08/31/2014  19:17:00     -348.655      -40.905      -12.198      189.090      145.565       85.160    35754.922    21189.310     7252.162        9.378        3.210      351.046      107.556        0.094      347.739       26.925      858.818
08/31/2014  19:18:00     -196.164       -5.584       -1.209      140.766      105.908       61.541    19815.112    11216.422     3787.318        3.666        1.741      196.243       65.480        0.111      347.713       26.880      858.825
08/31/2014  19:19:00     -201.600      -42.365       22.544      215.905      122.041       76.126    46615.093    14894.061     5795.187        5.511        3.365      206.004       93.463        0.206      347.683       26.827      858.841
08/31/2014  19:20:00     -286.945     -103.566        3.844      151.599      122.716       67.301    22982.396    15059.164     4529.414        6.782        2.129      305.063       66.767        0.048      347.686       26.831      858.847
08/31/2014  19:21:00     -189.619      -42.008       10.161      125.039       99.109       66.767    15634.841     9822.509     4457.780        3.386        1.496      194.217       72.422        0.139      347.651       26.774      858.871
08/31/2014  19:22:00     -231.868      -62.689      -19.989      119.433       75.659       58.024    14264.301     5724.315     3366.831        4.072        1.168      240.193       57.261        0.057      347.644       26.760      858.884
08/31/2014  19:23:00     -283.182      -64.340      -17.540      132.089      113.335       66.237    17447.618    12844.797     4387.327        5.965        1.734      290.399       76.107        0.069      347.603       26.688      858.896
08/31/2014  19:24:00     -235.999      -64.205       -1.538      141.170      128.068       72.815    19929.079    16401.499     5301.987        5.072        2.082      244.577       82.631        0.114      347.572       26.635      858.907
08/31/2014  19:25:00     -306.906      -96.482        0.587      151.593      127.498       69.554    22980.325    16255.628     4837.729        7.378        2.204      321.715       78.657        0.060      347.573       26.636      858.897
08/31/2014  19:26:00     -311.684     -112.684      -18.830      184.548      187.774       87.185    34057.822    35259.118     7601.163        9.354        3.846      331.428       85.539        0.067      347.586       26.660      858.894
08/31/2014  19:27:00     -222.087      -56.932        9.541      216.222      125.725       87.019    46752.032    15806.650     7572.300        6.138        3.507      229.268      116.512        0.258      347.535       26.572      858.908
08/31/2014  19:28:00     -216.160      -81.389       15.506      191.864      114.711       92.332    36811.952    13158.540     8525.224        5.603        2.925      230.974       91.989        0.159      347.496       26.505      858.897
08/31/2014  19:29:00     -214.913      -53.340       10.428      169.994      127.223       73.843    28897.972    16185.773     5452.778        4.983        2.527      221.434       81.562        0.136      347.506       26.522      858.914
08/31/2014  19:30:00     -342.468      -77.367       -8.153      211.701       98.806       66.155    44817.289     9762.678     4376.426        9.113        2.948      351.098       80.369        0.052      347.493       26.500      858.928
08/31/2014  19:31:00     -442.500     -130.975      -24.330      181.873      125.831       70.099    33077.844    15833.484     4913.820       13.368        2.691      461.477       81.789        0.031      347.510       26.529      858.903
08/31/2014  19:32:00     -251.720      -98.281      -11.938      146.154      104.365       61.867    21360.949    10892.059     3827.507        5.462        1.804      270.226       55.024        0.041      347.484       26.483      858.925
08/31/2014  19:33:00     -449.488      -87.188      -24.925      173.958      128.747       78.974    30261.301    16575.713     6236.861       13.166        2.654      457.866       91.933        0.040      347.477       26.471      858.934
08/31/2014  19:34:00     -261.776      -21.978       14.206      154.011      120.145       78.148    23719.366    14434.857     6107.046        5.673        2.213      262.697       79.169        0.091      347.427       26.383      858.931
08/31/2014  19:35:00     -294.226      -46.543       -8.204      125.982      115.240       64.072    15871.470    13280.346     4105.173        6.102        1.663      297.884       61.076        0.042      347.420       26.371      858.959
08/31/2014  19:36:00     -230.015      -31.085        9.781      167.745      127.372       71.326    28138.304    16223.637     5087.431        5.170        2.472      232.106       81.208        0.122      347.415       26.363      858.955
08/31/2014  19:37:00     -440.247      -28.336      -39.337      189.398      119.139       81.606    35871.627    14194.139     6659.546       12.644        2.836      441.157       81.075        0.034      347.441       26.407      858.955
08/31/2014  19:38:00     -492.456      -67.904      -22.959      210.369      147.273       81.967    44255.109    21689.300     6718.627       16.014        3.633      497.116       81.392        0.027      347.415       26.364      858.956
08/31/2014  19:39:00     -409.718     -139.716       -8.160      187.473      162.012       77.522    35146.138    26247.900     6009.677       12.742        3.370      432.885       78.173        0.033      347.403       26.342      858.963
08/31/2014  19:40:00     -235.872      -75.259        1.921      137.922      115.384       66.013    19022.509    13313.531     4357.746        4.899        1.835      247.587       62.459        0.064      347.355       26.261      858.983
08/31/2014  19:41:00     -225.796      -64.841       12.970      145.346      141.377       75.480    21125.450    19987.352     5697.186        5.107        2.340      234.921       67.775        0.083      347.326       26.210      858.988
08/31/2014  19:42:00     -244.408     -145.790        1.247      166.316      153.759       85.227    27661.087    23641.797     7263.626        6.977        2.928      284.588       84.663        0.089      347.344       26.243      858.970
08/31/2014  19:43:00     -381.185      -58.401      -28.035      174.827      112.901       70.539    30564.639    12746.588     4975.701        9.888        2.414      385.633       83.952        0.047      347.314       26.190      858.994
08/31/2014  19:44:00     -243.379      -65.131        1.545      154.433      101.195       68.259    23849.598    10240.515     4659.277        5.111        1.937      251.943       73.674        0.086      347.304       26.172      859.006
08/31/2014  19:45:00     -349.139      -52.600      -10.916      219.771      128.273       79.529    48299.150    16454.091     6324.936        9.792        3.554      353.079      103.640        0.086      347.292       26.153      859.020
08/31/2014  19:46:00     -251.380     -103.602      -21.348      203.515      125.529       74.380    41418.197    15757.637     5532.415        6.853        3.135      271.892       83.771        0.095      347.280       26.132      859.018
08/31/2014  19:47:00     -362.994     -120.615      -15.620      173.274      134.478       71.422    30023.722    18084.306     5101.078        9.987        2.660      382.508       83.787        0.048      347.257       26.091      859.028
08/31/2014  19:48:00     -276.858      -96.216        5.643      185.096      154.597       73.415    34260.671    23900.210     5389.785        7.473        3.178      293.101       84.006        0.082      347.246       26.074      859.037
08/31/2014  19:49:00     -374.622      -26.196      -16.070      161.423      139.025       67.337    26057.460    19328.087     4534.267        9.559        2.496      375.537       72.658        0.037      347.243       26.067      859.053
08/31/2014  19:50:00     -362.079      -82.907      -23.577      189.017      127.610       68.307    35727.491    16284.198     4665.861        9.759        2.834      371.450       80.919        0.047      347.206       26.004      859.060
08/31/2014  19:51:00     -247.939     -126.355       -6.986      143.354      115.329       60.235    20550.409    13300.863     3628.226        5.748        1.874      278.279       61.354        0.049      347.186       25.969      859.053
08/31/2014  19:52:00     -183.790     -165.153        2.786      151.042      125.624       80.254    22813.780    15781.365     6440.707        5.304        2.252      247.092       64.300        0.068      347.199       25.992      859.063
08/31/2014  19:53:00     -295.128      -68.351       -2.455      161.757      127.846       83.657    26165.429    16344.631     6998.536        7.063        2.475      302.940       83.966        0.077      347.190       25.976      859.073
08/31/2014  19:54:00     -302.492     -131.649       -5.766      164.785      158.449       80.227    27154.246    25106.147     6436.375        8.377        2.935      329.899       85.010        0.066      347.179       25.958      859.088
08/31/2014  19:55:00     -413.323      -74.920       -5.306      172.003      146.500       75.355    29585.102    21462.373     5678.314       11.659        2.836      420.058       72.423        0.030      347.198       25.989      859.109
08/31/2014  19:56:00     -359.538     -169.155       -9.748      165.547      144.588       82.529    27405.755    20905.598     6811.019       10.654        2.756      397.342       85.337        0.046      347.166       25.935      859.130
08/31/2014  19:57:00     -229.808      -74.899       -5.751      175.478      106.467       65.351    30792.515    11335.187     4270.779        5.242        2.320      241.705       76.121        0.099      347.136       25.883      859.150
08/31/2014  19:58:00     -271.210     -149.834        6.432      229.301      163.605       80.504    52578.812    26766.752     6480.929        9.092        4.291      309.847       91.527        0.087      347.111       25.843      859.143
08/31/2014  19:59:00     -401.645      -95.840      -29.309      187.223      145.835       80.405    35052.550    21267.866     6464.930       11.706        3.139      412.922       91.141        0.049      347.113       25.844      859.147
08/31/2014  20:00:00     -198.548     -118.289        5.265      115.429      127.425       67.346    13323.833    16237.174     4535.457        4.376        1.705      231.113       60.451        0.068      347.082       25.789      859.160
08/31/2014  20:01:00     -292.929     -112.739        9.510      196.963      145.800       87.676    38794.437    21257.678     7687.039        8.316        3.387      313.875      105.552        0.113      347.065       25.760      859.157
08/31/2014  20:02:00     -172.668       14.127       14.385      131.438      116.741       66.238    17275.942    13628.483     4387.409        3.275        1.765      173.245       43.957        0.064      347.050       25.737      859.143
08/31/2014  20:03:00     -191.453      -31.972        5.601      150.301      101.245       74.151    22590.412    10250.646     5498.411        3.802        1.917      194.105       73.656        0.144      347.019       25.682      859.151
08/31/2014  20:04:00     -431.131      -95.437      -22.604      187.229      158.178       83.191    35054.588    25020.327     6920.711       13.123        3.350      441.568       98.510        0.050      347.039       25.715      859.145
08/31/2014  20:05:00     -214.526     -105.169      -11.540      156.659      150.793       65.575    24542.096    22738.416     4300.123        5.439        2.579      238.918       79.580        0.111      346.972       25.604      859.154
08/31/2014  20:06:00     -309.144     -148.320      -20.683      212.597      171.092       75.755    45197.462    29272.471     5738.882        9.909        4.010      342.883       99.588        0.084      347.005       25.657      859.173
08/31/2014  20:07:00     -190.781      -67.012       11.926      173.925      133.195       76.831    30250.018    17740.861     5902.959        4.745        2.695      202.208       80.791        0.160      346.970       25.598      859.173
08/31/2014  20:08:00     -372.070     -148.974        0.829      205.551      171.417       87.761    42251.312    29383.956     7701.983       11.997        3.967      400.786       96.706        0.058      346.940       25.546      859.185
08/31/2014  20:09:00     -450.162     -139.172      -16.309      141.399      109.002       62.641    19993.575    11881.368     3923.834       12.903        1.790      471.184       66.337        0.020      346.961       25.583      859.199
08/31/2014  20:10:00     -502.708     -118.478      -37.818      180.862      129.469       73.581    32711.035    16762.242     5414.204       16.152        2.744      516.480       76.932        0.022      346.946       25.554      859.206
08/31/2014  20:11:00     -381.922     -109.131       -6.887      161.810      142.595       75.350    26182.457    20333.318     5677.581       10.500        2.610      397.208       67.633        0.029      346.891       25.459      859.227
08/31/2014  20:12:00     -335.858     -131.410      -17.089      176.789      145.412       90.696    31254.455    21144.721     8225.849        9.548        3.031      360.651       89.252        0.061      346.919       25.509      859.233
08/31/2014  20:13:00     -385.535      -83.670      -18.038      178.182      135.629       72.109    31748.741    18395.284     5199.696       10.564        2.767      394.509       82.742        0.044      346.885       25.451      859.256
08/31/2014  20:14:00     -233.211      -13.477      -11.887      115.058      118.156       66.391    13238.388    13960.860     4407.737        4.315        1.580      233.600       63.574        0.074      346.851       25.392      859.283
08/31/2014  20:15:00     -316.747     -116.112      -12.113      196.280      134.395       71.292    38525.790    18061.967     5082.483        8.780        3.084      337.359       71.450        0.045      346.877       25.435      859.308
08/31/2014  20:16:00     -259.835      -98.681      -16.410      172.224      135.835       76.342    29660.963    18451.269     5828.110        6.572        2.697      277.943       78.974        0.081      346.852       25.394      859.324
08/31/2014  20:17:00     -269.405      -46.622      -16.940      203.480       96.227       73.560    41404.174     9259.680     5411.106        6.555        2.804      273.409      100.734        0.136      346.847       25.385      859.346
08/31/2014  20:18:00      -94.753      -36.578        6.684       97.874       64.741       48.104     9579.386     4191.410     2313.968        1.322        0.804      101.568       44.132        0.189      346.754       25.228      859.358
08/31/2014  20:19:00     -260.557      -65.576      -15.367      162.761      147.820       63.741    26491.204    21850.882     4062.854        6.241        2.620      268.682       75.830        0.080      346.810       25.322      859.367
08/31/2014  20:20:00     -315.096     -157.675      -10.770      150.224      112.472       68.906    22567.342    12649.977     4748.001        8.211        1.998      352.345       70.807        0.040      346.795       25.298      859.385
08/31/2014  20:21:00     -397.355     -205.201      -25.403      171.493      124.598       77.089    29409.976    15524.779     5942.645       12.575        2.544      447.212       69.316        0.024      346.790       25.287      859.412
08/31/2014  20:22:00     -326.650     -115.209      -18.907      206.404      140.578       68.708    42602.668    19762.276     4720.834        9.369        3.354      346.371       79.344        0.052      346.759       25.233      859.426
08/31/2014  20:23:00     -282.935     -121.126       -5.023      189.235      111.559       68.807    35809.989    12445.399     4734.348        7.386        2.649      307.772       88.655        0.083      346.760       25.236      859.466
08/31/2014  20:24:00     -245.513     -128.404       -2.088      183.983      141.045       81.465    33849.902    19893.731     6636.530        6.856        3.019      277.063       80.656        0.085      346.724       25.175      859.477
08/31/2014  20:25:00     -276.733      -52.510       -0.709      208.106      109.495       72.649    43308.130    11989.239     5277.916        6.995        3.029      281.671       96.590        0.118      346.720       25.167      859.487
08/31/2014  20:26:00     -312.923      -28.180      -15.700      203.922      112.447       69.212    41584.070    12644.318     4790.303        7.898        2.951      314.190       73.915        0.055      346.679       25.096      859.492
08/31/2014  20:27:00     -195.865       -9.487        0.499      118.630      100.306       58.930    14073.037    10061.194     3472.734        3.302        1.380      196.095       66.473        0.115      346.653       25.051      859.500
08/31/2014  20:28:00     -208.544      -24.292        5.963      137.173      100.065       67.007    18816.452    10013.089     4489.980        3.871        1.666      209.954       73.056        0.121      346.567       24.906      859.509
08/31/2014  20:29:00     -275.294     -179.180       -9.357      168.587      125.647       83.677    28421.446    15787.192     7001.772        7.958        2.561      328.469       90.708        0.076      346.644       25.036      859.496
08/31/2014  20:30:00     -309.513      -70.376      -14.712      122.207      112.999       59.890    14934.587    12768.736     3586.820        6.612        1.565      317.413       58.129        0.034      346.624       25.002      859.501
08/31/2014  20:31:00     -232.349     -137.710       -2.031      159.519      123.286       48.602    25446.248    15199.492     2362.129        5.797        2.150      270.093       57.640        0.046      346.598       24.958      859.521
08/31/2014  20:32:00     -343.968      -87.487       16.963      167.179      147.261       88.841    27948.823    21685.850     7892.720        9.188        2.876      354.919       98.792        0.077      346.606       24.971      859.539
08/31/2014  20:33:00     -282.471     -113.219        4.719      223.768      128.376       91.136    50072.270    16480.509     8305.727        8.373        3.743      304.317      108.418        0.127      346.627       25.008      859.532
08/31/2014  20:34:00     -209.921      -36.211       -2.256      186.905      132.192       72.632    34933.566    17474.744     5275.474        5.152        2.884      213.022       86.058        0.163      346.571       24.912      859.560
08/31/2014  20:35:00     -330.620      -83.464      -21.615      257.542      178.633       68.002    66328.124    31909.741     4624.219       10.978        5.143      340.993       79.398        0.054      346.593       24.950      859.572
08/31/2014  20:36:00     -321.637     -147.700        1.298      237.933      153.597       98.482    56612.339    23591.975     9698.665       10.757        4.495      353.929      109.102        0.095      346.571       24.911      859.572
08/31/2014  20:37:00     -157.375      -46.745       11.368      114.790       87.747       63.237    13176.708     7699.548     3998.934        2.597        1.244      164.170       54.758        0.111      346.543       24.866      859.619
08/31/2014  20:38:00     -146.100      -96.076        4.622      130.658       89.566       61.025    17071.555     8022.070     3724.005        2.970        1.441      174.860       66.000        0.142      346.532       24.845      859.640
08/31/2014  20:39:00     -288.012     -106.466        0.160      108.151      121.940       60.729    11696.546    14869.458     3687.961        6.226        1.513      307.060       55.878        0.033      346.518       24.818      859.665
08/31/2014  20:40:00     -185.040     -128.078       12.949      142.519      105.981       58.158    20311.604    11232.076     3382.336        4.286        1.746      225.042       64.209        0.081      346.507       24.803      859.680
08/31/2014  20:41:00     -168.883      -18.277        9.658      208.068      108.804       63.844    43292.145    11838.255     4076.084        4.407        2.960      169.869       73.600        0.188      346.494       24.781      859.690
08/31/2014  20:42:00     -307.733     -146.728       -1.941      178.310      155.901       75.663    31794.370    24305.225     5724.823        8.902        3.091      340.923       82.694        0.059      346.501       24.790      859.694
08/31/2014  20:43:00     -225.535     -123.937      -23.121      129.680      114.164       64.870    16817.031    13033.377     4208.084        5.040        1.703      257.345       72.221        0.079      346.512       24.811      859.706
08/31/2014  20:44:00     -223.412      -90.469        8.719      145.979       94.588       60.355    21309.885     8946.839     3642.666        4.603        1.695      241.035       61.357        0.065      346.453       24.709      859.729
08/31/2014  20:45:00     -246.464     -107.111       -3.256      138.919      100.153       52.384    19298.569    10030.526     2744.123        5.214        1.604      268.733       52.016        0.037      346.434       24.677      859.735
08/31/2014  20:46:00     -302.306      -81.962       -6.787      155.481      103.803       68.579    24174.304    10774.978     4703.052        6.889        1.983      313.220       76.701        0.060      346.423       24.657      859.742
08/31/2014  20:47:00     -261.869      -73.807        0.188      153.378      151.477       77.486    23524.721    22945.403     6004.019        6.324        2.624      272.072       78.297        0.083      346.405       24.626      859.747
08/31/2014  20:48:00     -219.027      -37.157        1.825       96.123       90.353       55.317     9239.636     8163.653     3059.933        3.491        1.023      222.156       45.636        0.042      346.371       24.566      859.749
08/31/2014  20:49:00     -241.802      -43.138        4.780      126.088      136.518       63.760    15898.274    18637.292     4065.392        4.947        1.930      245.620       68.150        0.077      346.377       24.576      859.765
08/31/2014  20:50:00     -316.629      -54.356       -9.808      124.620      107.321       74.829    15530.101    11517.762     5599.348        6.797        1.632      321.261       66.946        0.043      346.355       24.539      859.784
08/31/2014  20:51:00     -292.803      -91.511        2.118      160.119      109.884       71.679    25638.046    12074.439     5137.856        6.847        2.143      306.770       77.569        0.064      346.348       24.527      859.792
08/31/2014  20:52:00     -396.692      -65.544      -20.240      148.439      139.392       80.657    22034.039    19430.268     6505.564       10.501        2.398      402.070       81.805        0.041      346.372       24.569      859.798
08/31/2014  20:53:00     -232.798      -79.162      -10.858      189.869      124.962       63.544    36050.345    15615.585     4037.855        5.813        2.785      245.889       78.143        0.101      346.351       24.532      859.807
08/31/2014  20:54:00     -234.548      -26.926       -3.928      177.126       90.997       64.786    31373.522     8280.450     4197.285        4.979        2.193      236.088       86.953        0.136      346.293       24.434      859.805
08/31/2014  20:55:00     -191.826      -21.827        9.381      144.195       85.725       52.716    20792.124     7348.745     2778.980        3.413        1.546      193.064       61.794        0.102      346.245       24.352      859.810
08/31/2014  20:56:00     -281.484      -66.474      -15.426      119.724      101.354       49.179    14333.754    10272.599     2418.532        5.545        1.351      289.227       49.891        0.030      346.260       24.377      859.814
08/31/2014  20:57:00     -266.483      -36.645      -12.646      125.522      122.204       60.595    15755.844    14933.932     3671.731        5.343        1.718      268.991       51.672        0.037      346.251       24.359      859.816
08/31/2014  20:58:00     -477.392      -40.060      -39.574      137.763      124.747       63.553    18978.568    15561.934     4038.975       13.482        1.929      479.069       56.440        0.014      346.288       24.424      859.812
08/31/2014  20:59:00     -417.661      -45.816      -17.368      159.363      126.723       70.639    25396.600    16058.837     4989.817       11.163        2.322      420.166       72.657        0.030      346.287       24.422      859.817
08/31/2014  21:00:00     -325.415      -77.254        0.006      138.176      120.591       64.746    19092.656    14542.220     4192.039        7.484        1.891      334.459       69.856        0.044      346.281       24.411      859.836
08/31/2014  21:01:00     -326.209      -13.064      -13.444      148.350      101.066       61.366    22007.753    10214.328     3765.769        7.137        1.799      326.470       58.668        0.032      346.220       24.306      859.834
08/31/2014  21:02:00     -289.523      -47.660        4.993      156.311      119.180       72.353    24433.163    14203.942     5235.006        6.499        2.194      293.420       70.080        0.057      346.194       24.262      859.850
08/31/2014  21:03:00     -314.500       -4.679      -25.960      164.270      108.333       63.466    26984.726    11736.095     4027.894        7.117        2.137      314.535       64.837        0.042      346.218       24.303      859.847
08/31/2014  21:04:00     -332.171       13.903      -14.733      205.917      121.854       64.197    42401.726    14848.447     4121.298        8.605        3.069      332.461       72.547        0.048      346.218       24.302      859.840
08/31/2014  21:05:00     -312.880      -74.994      -11.065      151.445      145.218       74.148    22935.606    21088.278     5497.916        7.657        2.476      321.742       72.085        0.050      346.165       24.212      859.855
08/31/2014  21:06:00     -306.014      -59.127      -14.520      107.317       92.802       56.389    11516.977     8612.210     3179.752        6.033        1.165      311.673       60.025        0.037      346.153       24.191      859.856
08/31/2014  21:07:00     -344.993      -59.406       -8.786      153.855      109.270       64.624    23671.250    11939.837     4176.300        8.120        1.989      350.070       70.588        0.041      346.145       24.179      859.851
08/31/2014  21:08:00     -296.573      -86.000      -17.240      148.758      116.239       64.575    22128.883    13511.526     4169.922        6.772        1.991      308.790       52.546        0.029      346.143       24.176      859.852
08/31/2014  21:09:00     -320.600      -91.869       -1.603      154.414      131.661       76.491    23843.661    17334.736     5850.817        7.912        2.351      333.503       79.338        0.057      346.123       24.140      859.858
08/31/2014  21:10:00     -324.904     -112.009      -15.931      139.258      114.821       63.575    19392.904    13183.874     4041.793        7.748        1.831      343.670       75.571        0.048      346.149       24.184      859.871
08/31/2014  21:11:00     -226.669       19.303        7.103      122.587      105.620       70.109    15027.589    11155.676     4915.316        4.144        1.555      227.489       71.783        0.100      346.108       24.115      859.880
08/31/2014  21:12:00     -373.292      -32.071      -26.165      182.639      117.742       65.834    33357.011    13863.292     4334.152        9.630        2.578      374.667       81.762        0.048      346.124       24.143      859.895
08/31/2014  21:13:00     -282.879     -129.685       -6.282      158.445       90.640       69.942    25104.806     8215.633     4891.869        6.754        1.911      311.189       82.717        0.071      346.114       24.125      859.888
08/31/2014  21:14:00     -398.294      -31.712       -6.278      156.183      102.399       68.536    24393.183    10485.572     4697.186        9.962        1.979      399.554       63.876        0.026      346.108       24.114      859.908
08/31/2014  21:15:00     -277.642      -14.255      -13.139      119.549       93.146       54.431    14291.864     8676.177     2962.707        5.169        1.297      278.008       45.884        0.027      346.074       24.057      859.911
08/31/2014  21:16:00     -240.634      -55.303       -0.934      130.402      110.774       50.428    17004.606    12270.783     2543.004        4.638        1.591      246.907       48.424        0.038      346.064       24.038      859.923
08/31/2014  21:17:00     -278.818      -92.255       -1.415      123.472      108.801       66.478    15245.235    11837.736     4419.350        5.887        1.575      293.684       74.562        0.064      346.032       23.985      859.938
08/31/2014  21:18:00     -382.540      -18.779      -17.890      162.879      106.841       65.763    26529.483    11414.942     4324.721        9.463        2.113      383.001       68.269        0.032      346.065       24.040      859.948
08/31/2014  21:19:00     -442.762      -78.052      -23.016      171.327      154.781       75.140    29352.939    23957.096     5646.072       13.080        2.948      449.589       76.253        0.029      346.055       24.024      859.962
08/31/2014  21:20:00     -260.005       -3.997       -6.780      193.342      127.322       65.759    37381.088    16210.783     4324.309        6.278        2.896      260.036       82.677        0.101      346.011       23.951      859.963
08/31/2014  21:21:00     -368.150      -72.095      -23.884      149.451       94.447       50.887    22335.483     8920.184     2589.472        8.757        1.692      375.143       37.933        0.010      346.009       23.944      859.988
08/31/2014  21:22:00     -268.472      -81.086       -8.377      141.182      121.449       66.021    19932.477    14749.871     4358.760        5.887        1.952      280.450       66.640        0.056      346.006       23.941      859.990
08/31/2014  21:23:00     -318.605      -94.786       -4.210      191.903      133.846       71.300    36826.632    17914.714     5083.700        8.516        2.991      332.406       79.056        0.057      346.003       23.935      860.000
08/31/2014  21:24:00     -266.396      -36.503      -14.781      158.519      122.237       69.713    25128.179    14941.918     4859.884        5.872        2.246      268.886       77.825        0.084      345.977       23.891      860.016
08/31/2014  21:25:00     -374.623      -95.706      -25.518      162.937      101.093       74.528    26548.531    10219.743     5554.407        9.623        2.116      386.655       74.788        0.037      345.996       23.922      860.033
08/31/2014  21:26:00     -347.845      -40.494      -14.582      130.569      111.026       75.069    17048.223    12326.843     5635.375        7.892        1.751      350.194       77.900        0.049      346.013       23.951      860.034
08/31/2014  21:27:00     -346.711      -32.352      -13.355      185.840       94.213       67.219    34536.332     8876.002     4518.349        8.467        2.397      348.217       85.863        0.061      346.022       23.967      860.032
08/31/2014  21:28:00     -315.508      -78.714       -9.004      135.938      130.049       64.754    18479.231    16912.757     4193.081        7.270        1.979      325.179       67.481        0.043      346.007       23.942      860.034
08/31/2014  21:29:00     -346.619      -16.070      -19.726      166.143      102.981       65.307    27603.658    10605.105     4265.063        8.162        2.124      346.992       79.499        0.052      346.027       23.974      860.027
08/31/2014  21:30:00     -445.343      -28.650      -12.600      211.937      146.084       82.224    44917.396    21340.542     6760.711       13.615        3.651      446.264       86.699        0.038      346.015       23.955      860.036
08/31/2014  21:31:00     -312.499     -169.592       -4.500      199.732      157.502       93.693    39892.795    24806.767     8778.437        9.994        3.674      355.552      110.269        0.096      346.018       23.960      860.030
08/31/2014  21:32:00     -356.030     -196.256       -5.890      194.518      144.740       83.504    37837.205    20949.582     6972.923       11.552        3.288      406.539       80.633        0.039      346.050       24.014      860.045
08/31/2014  21:33:00     -301.407     -139.279        3.132      211.264      149.361       75.749    44632.435    22308.665     5737.906        9.145        3.634      332.031       80.263        0.058      346.045       24.006      860.082
08/31/2014  21:34:00     -277.960     -113.058        7.178      134.256      137.959       66.944    18024.650    19032.782     4481.483        6.581        2.077      300.073       75.891        0.064      346.032       23.982      860.101
08/31/2014  21:35:00     -350.261       -9.349      -21.508      119.480      107.720       70.249    14275.544    11603.628     4934.884        7.702        1.541      350.385       70.901        0.041      346.061       24.035      860.118
08/31/2014  21:36:00     -337.601     -110.609      -25.336      127.924      131.356       73.599    16364.569    17254.381     5416.788        8.294        1.952      355.259       77.062        0.047      346.040       23.996      860.082
08/31/2014  21:37:00     -307.241      -83.724       -5.823      117.812      104.817       56.358    13879.770    10986.519     3176.270        6.474        1.402      318.444       62.440        0.038      345.971       23.881      860.095
08/31/2014  21:38:00     -196.388      -57.006        9.371      117.228       98.229       63.762    13742.330     9648.863     4065.594        3.468        1.373      204.495       73.007        0.127      345.939       23.825      860.089
08/31/2014  21:39:00     -272.626      -79.203       -9.967      150.990      125.205       74.270    22798.045    15676.327     5516.040        6.234        2.200      283.898       80.778        0.081      345.979       23.895      860.074
08/31/2014  21:40:00     -235.555      -96.415       -5.657      128.753      140.862       79.914    16577.301    19841.986     6386.241        5.380        2.140      254.523       66.412        0.068      345.984       23.903      860.093
08/31/2014  21:41:00     -353.909      -34.769      -18.985      149.510      159.372       79.818    22353.094    25399.526     6370.976        9.046        2.706      355.612       68.049        0.037      345.992       23.916      860.124
08/31/2014  21:42:00     -413.666     -131.520      -26.835      213.893      143.757       81.943    45750.114    20666.178     6714.612       13.112        3.657      434.070       94.746        0.048      346.059       24.029      860.131
08/31/2014  21:43:00     -277.702      -17.046       -2.949      129.747      110.519       73.758    16834.371    12214.526     5440.285        5.595        1.724      278.224       75.387        0.073      346.015       23.956      860.144
08/31/2014  21:44:00     -379.779      -35.174      -18.223      129.260      112.494       64.811    16708.267    12654.940     4200.467        8.968        1.678      381.404       68.430        0.032      346.000       23.929      860.137
08/31/2014  21:45:00     -431.600      -52.458      -25.697      160.869      100.327       70.660    25878.810    10065.576     4992.877       11.531        2.047      434.776       79.479        0.033      345.991       23.913      860.134
08/31/2014  21:46:00     -249.082      -30.505        3.607      126.296      113.524       70.117    15950.715    12887.798     4916.336        4.836        1.688      250.943       64.351        0.066      345.919       23.791      860.119
08/31/2014  21:47:00     -409.101     -132.805      -26.453      112.565      121.124       63.617    12670.826    14671.004     4047.156       10.854        1.569      430.117       59.951        0.019      345.936       23.819      860.124
08/31/2014  21:48:00     -249.768      -98.042      -10.386      174.119      107.930       64.343    30317.426    11648.810     4140.073        5.910        2.305      268.321       79.043        0.087      345.911       23.779      860.126
08/31/2014  21:49:00     -518.002     -118.051      -32.280      170.323      118.141       75.413    29009.800    13957.185     5687.194       16.597        2.433      531.284       73.639        0.019      345.958       23.858      860.143
08/31/2014  21:50:00     -238.371      -33.771        3.769      158.274       92.806       71.763    25050.610     8612.953     5149.870        4.839        1.941      240.751       81.816        0.115      345.900       23.760      860.123
08/31/2014  21:51:00     -279.493      -80.173      -19.127      125.559       88.707       50.391    15765.011     7868.893     2539.254        5.554        1.309      290.765       55.304        0.036      345.871       23.708      860.124
08/31/2014  21:52:00     -269.696     -135.032       -0.261      147.131      101.156       71.617    21647.419    10232.479     5128.948        6.398        1.850      301.612       75.250        0.062      345.869       23.705      860.120
08/31/2014  21:53:00     -303.837      -48.326      -11.015      173.435       99.463       65.939    30079.706     9892.875     4347.959        6.954        2.216      307.656       68.261        0.049      345.843       23.661      860.111
08/31/2014  21:54:00     -310.919      -87.922       -3.490      134.087      122.166       71.759    17979.216    14924.426     5149.407        7.123        1.903      323.112       69.115        0.046      345.847       23.667      860.130
08/31/2014  21:55:00     -250.056     -100.667       -1.818      162.567      101.160       66.199    26428.047    10233.369     4382.314        5.685        2.052      269.559       72.816        0.073      345.855       23.680      860.139
08/31/2014  21:56:00     -335.733      -20.188      -12.802      144.373      117.671       60.429    20843.679    13846.572     3651.711        7.581        1.917      336.340       68.899        0.042      345.839       23.653      860.135
08/31/2014  21:57:00     -283.415      -70.304      -15.610      142.398      104.513       53.331    20277.083    10923.010     2844.181        5.977        1.702      292.004       67.921        0.054      345.786       23.563      860.135
08/31/2014  21:58:00     -239.321      -54.101       -0.248      147.262      108.724       68.010    21685.996    11820.983     4625.391        4.916        1.907      245.359       78.242        0.102      345.783       23.558      860.153
08/31/2014  21:59:00     -327.394     -131.682      -20.303      135.260      132.465       68.485    18295.336    17547.061     4690.261        8.273        2.027      352.884       63.405        0.032      345.826       23.631      860.166
08/31/2014  22:00:00     -350.712      -85.834      -13.273      128.852      133.544       65.761    16602.761    17833.885     4324.471        8.464        1.938      361.063       65.386        0.033      345.806       23.598      860.165
08/31/2014  22:01:00     -246.866     -112.612       -2.330      113.560       94.267       53.399    12895.980     8886.247     2851.482        4.913        1.232      271.338       58.200        0.046      345.801       23.588      860.170
08/31/2014  22:02:00     -365.254     -141.779      -11.853      190.100      132.494       74.411    36138.149    17554.740     5537.052       10.643        2.961      391.806       85.110        0.047      345.831       23.639      860.166
08/31/2014  22:03:00     -279.293      -35.749      -16.707      115.824      115.382       62.581    13415.115    13312.984     3916.383        5.510        1.532      281.572       55.837        0.039      345.781       23.553      860.168
08/31/2014  22:04:00     -276.087      -75.415      -11.507      113.287       98.837       55.005    12834.043     9768.813     3025.514        5.383        1.281      286.202       57.916        0.041      345.770       23.534      860.166
08/31/2014  22:05:00     -134.304      -49.005        5.428      129.517      101.205       71.957    16774.528    10242.443     5177.773        2.633        1.610      142.965       73.375        0.263      345.750       23.501      860.170
08/31/2014  22:06:00     -246.763      -10.563      -15.585      123.593       83.532       44.660    15275.235     6977.517     1994.530        4.274        1.212      246.989       44.719        0.033      345.726       23.461      860.173
08/31/2014  22:07:00     -423.326       14.863      -20.763      142.024      121.210       71.709    20170.797    14691.939     5142.185       10.992        2.000      423.587       79.717        0.035      345.765       23.526      860.172
08/31/2014  22:08:00     -300.297     -116.834       -8.919      147.335      112.596       54.480    21707.545    12677.916     2968.117        7.062        1.868      322.224       41.835        0.017      345.712       23.437      860.180
08/31/2014  22:09:00     -317.385     -112.450       -2.072      153.913      117.096       65.752    23689.336    13711.475     4323.281        7.754        2.086      336.716       76.724        0.052      345.684       23.387      860.180
08/31/2014  22:10:00     -274.016       12.431       -3.429      157.381      115.793       69.232    24768.861    13408.006     4793.116        5.910        2.148      274.298       84.109        0.094      345.690       23.399      860.200
08/31/2014  22:11:00     -406.268      -35.228      -45.016      143.397       97.915       69.268    20562.723     9587.299     4798.100       10.163        1.747      407.792       75.070        0.034      345.740       23.483      860.210
08/31/2014  22:12:00     -283.371      -47.523      -10.917      111.681       87.048       51.087    12472.674     7577.404     2609.871        5.266        1.133      287.328       52.389        0.033      345.695       23.407      860.225
08/31/2014  22:13:00     -209.457      -30.649        3.735      123.489       83.175       52.513    15249.491     6918.144     2757.593        3.487        1.246      211.687       57.377        0.073      345.683       23.385      860.223
08/31/2014  22:14:00     -186.665      -59.197       -0.045      116.287       80.633       41.984    13522.733     6501.683     1762.658        3.006        1.089      195.827       47.783        0.060      345.646       23.324      860.220
08/31/2014  22:15:00     -375.741      -77.605      -12.557      165.436       94.265       61.159    27368.924     8885.976     3740.434        9.367        2.000      383.672       50.997        0.018      345.662       23.348      860.199
08/31/2014  22:16:00     -216.035      -85.606       -2.830       99.350       89.872       41.979     9870.367     8076.995     1762.211        3.685        0.985      232.378       40.595        0.031      345.609       23.258      860.229
08/31/2014  22:17:00     -272.429      -32.450      -18.214      139.767       80.360       53.668    19534.751     6457.756     2880.215        5.223        1.444      274.355       54.864        0.040      345.618       23.273      860.242
08/31/2014  22:18:00     -341.015      -49.973      -16.262      129.883      103.810       57.388    16869.599    10776.564     3293.393        7.499        1.547      344.657       60.013        0.030      345.631       23.295      860.245
08/31/2014  22:19:00     -263.146      -62.107       -3.924      142.573      114.952       57.771    20326.984    13214.000     3337.513        5.499        1.844      270.376       62.940        0.054      345.614       23.268      860.255
08/31/2014  22:20:00     -301.745      -80.955       -5.457      100.805       97.622       55.993    10161.641     9530.018     3135.206        6.023        1.141      312.417       53.335        0.029      345.613       23.264      860.285
08/31/2014  22:21:00     -266.774      -11.260      -25.443       89.602       83.158       47.073     8028.442     6915.270     2215.897        4.455        0.858      267.012       41.872        0.025      345.587       23.218      860.307
08/31/2014  22:22:00     -209.438       -7.336      -11.248       86.889       95.134       43.925     7549.676     9050.570     1929.415        3.128        0.926      209.567       43.748        0.044      345.566       23.184      860.331
08/31/2014  22:23:00     -210.867      -32.453      -13.762      112.969       72.757       55.207    12762.014     5293.529     3047.847        3.340        1.055      213.350       63.015        0.087      345.594       23.232      860.352
08/31/2014  22:24:00      -88.713       37.692        4.683       95.304       70.895       39.513     9082.830     5026.058     1561.290        1.249        0.784       96.388       29.169        0.092      345.553       23.164      860.387
08/31/2014  22:25:00      -91.740       92.825       -5.966       99.950       80.455       48.990     9989.951     6473.034     2399.974        1.796        0.943      130.510       59.111        0.205      345.523       23.111      860.416
08/31/2014  22:26:00     -134.308      154.002      -11.008       94.779      123.593       60.004     8983.039    15275.108     3600.461        3.486        1.393      204.341       55.244        0.073      345.583       23.215      860.434
08/31/2014  22:27:00     -224.375      216.755      -47.423      119.958       81.793       50.693    14389.912     6690.032     2569.774        6.161        1.182      311.973       56.101        0.032      345.629       23.291      860.445
08/31/2014  22:28:00     -148.162      180.726      -31.864       77.036       73.488       44.522     5934.480     5400.497     1982.167        3.447        0.666      233.696       47.682        0.042      345.623       23.283      860.484
08/31/2014  22:29:00     -141.667      143.992      -22.196      148.962       81.652       52.192    22189.596     6666.986     2724.007        3.643        1.579      201.999       60.477        0.090      345.600       23.244      860.506
08/31/2014  22:30:00     -178.621      146.753      -42.281       82.158       83.226       36.358     6749.944     6926.538     1321.940        3.511        0.750      231.175       38.815        0.028      345.682       23.384      860.517
08/31/2014  22:31:00     -120.317      112.134      -11.296       73.099       68.651       46.880     5343.463     4713.017     2197.692        1.971        0.613      164.469       47.397        0.083      345.644       23.321      860.524
08/31/2014  22:32:00     -114.558      251.463      -28.155       76.136       72.467       45.495     5796.724     5251.480     2069.774        4.513        0.656      276.328       47.455        0.029      345.649       23.328      860.542
08/31/2014  22:33:00     -121.199      278.262      -31.856       85.039      153.188       60.320     7231.681    23466.631     3638.516        6.373        1.717      303.511       70.620        0.054      345.757       23.513      860.536
08/31/2014  22:34:00     -166.505      119.315      -33.010       61.500       55.091       36.555     3782.303     3035.041     1336.272        2.560        0.408      204.842       33.750        0.027      345.738       23.480      860.568
08/31/2014  22:35:00      -98.314       62.797      -13.171       45.993       57.773       32.215     2115.364     3337.767     1037.832        1.014        0.325      116.658       16.853        0.021      345.682       23.386      860.601
08/31/2014  22:36:00     -127.115      101.611      -29.198       55.747       80.523       38.659     3107.676     6483.998     1494.489        1.921        0.554      162.736       38.274        0.055      345.763       23.526      860.625
08/31/2014  22:37:00     -104.742        4.425       11.205      109.012       57.663       32.137    11883.617     3325.011     1032.813        1.368        0.812      104.835       48.809        0.217      345.841       23.658      860.586
08/31/2014  22:38:00      -73.683       84.136      -15.800       40.229       50.409       30.787     1618.382     2541.024      947.839        0.893        0.255      111.840       25.145        0.051      345.750       23.504      860.575
08/31/2014  22:39:00      -93.387       68.558      -18.651       37.915       44.347       26.895     1437.564     1966.626      723.327        0.895        0.206      115.850       26.429        0.052      345.711       23.435      860.626
08/31/2014  22:40:00     -127.837      -15.414      -20.075      100.695      132.736       30.635    10139.553    17618.818      938.530        2.283        1.435      128.763       38.977        0.092      345.713       23.439      860.636
08/31/2014  22:41:00     -216.244        7.496      -24.001      101.003       93.810       44.069    10201.704     8800.383     1942.065        3.416        1.047      216.374       38.231        0.031      345.845       23.663      860.635
08/31/2014  22:42:00      -64.226      138.295      -18.359       86.110       76.420       36.459     7414.910     5840.035     1329.289        1.908        0.729      152.481       35.770        0.055      345.697       23.411      860.667
08/31/2014  22:43:00     -155.263       93.833      -26.358       75.650       76.199       24.910     5722.972     5806.231      620.516        2.288        0.607      181.415       13.696        0.006      345.731       23.468      860.652
08/31/2014  22:44:00     -263.999      -73.790        2.820      131.716       83.865       50.770    17348.973     7033.396     2577.566        5.105        1.348      274.118       45.116        0.027      345.810       23.603      860.668
08/31/2014  22:45:00      -90.885       39.979       16.631      106.476       92.115       55.539    11337.244     8485.203     3084.577        1.652        1.145       99.289       63.567        0.410      345.651       23.333      860.672
08/31/2014  22:46:00     -126.065      134.185      -28.389       51.225       49.640       28.097     2623.957     2464.143      789.428        2.029        0.294      184.115       31.649        0.030      345.571       23.196      860.703
08/31/2014  22:47:00     -150.389       36.432      -22.168       86.774       62.958       37.626     7529.676     3963.689     1415.741        1.867        0.645      154.739       30.729        0.039      345.765       23.527      860.665
08/31/2014  22:48:00     -148.290       84.101      -19.869       65.558       46.050       27.906     4297.915     2120.617      778.718        1.833        0.360      170.479       24.040        0.020      345.641       23.315      860.683
08/31/2014  22:49:00     -141.855       17.218      -22.900       28.889       72.025       24.255      834.572     5187.556      588.299        1.378        0.331      142.896       23.362        0.027      345.638       23.310      860.675
08/31/2014  22:50:00      -47.245     -118.136        5.980       94.531      110.253       50.709     8936.037    12155.683     2571.452        1.994        1.183      127.233       42.015        0.109      345.850       23.674      860.654
08/31/2014  22:51:00     -133.893       -5.259       -9.286       64.470      100.718       41.324     4156.420    10144.030     1707.633        1.702        0.800      133.997       34.182        0.065      345.865       23.700      860.693
08/31/2014  22:52:00     -135.313      206.105      -17.367       98.271      129.768       64.211     9657.207    16839.826     4122.994        4.585        1.531      246.554       54.107        0.048      345.821       23.621      860.691
08/31/2014  22:53:00     -169.304      149.909      -32.016       82.997       96.548       50.958     6888.561     9321.596     2596.715        3.548        0.940      226.133       55.941        0.061      345.917       23.785      860.678
08/31/2014  22:54:00     -116.463      114.149      -23.424       60.332       52.819       29.909     3639.902     2789.838      894.556        1.723        0.366      163.075       23.162        0.020      345.732       23.472      860.692
08/31/2014  22:55:00     -104.667       64.172      -14.727       73.785       88.200       36.869     5444.294     7779.232     1359.296        1.493        0.729      122.773       32.099        0.068      345.725       23.459      860.700
08/31/2014  22:56:00     -199.382      -25.196      -26.509       78.340       70.624       41.076     6137.218     4987.758     1687.255        2.695        0.641      200.967       38.441        0.037      345.591       23.228      860.726
08/31/2014  22:57:00     -150.508      -55.061       -3.150       67.609       44.388       25.358     4570.926     1970.296      643.053        1.644        0.359      160.263       31.316        0.038      345.510       23.090      860.718
08/31/2014  22:58:00      -76.488      -23.640       -2.625       36.881       27.253       21.353     1360.240      742.745      455.958        0.449        0.128       80.058       20.718        0.067      345.431       22.956      860.710
08/31/2014  22:59:00      -86.060       -1.246      -15.922       26.164       26.398       13.308      684.532      696.852      177.106        0.461        0.078       86.069       10.690        0.015      345.462       23.009      860.708
08/31/2014  23:00:00      -85.646       14.642      -12.308       27.965       28.302       20.776      782.030      800.978      431.651        0.486        0.101       86.889       14.251        0.027      345.453       22.992      860.725
08/31/2014  23:01:00      -93.925       53.155      -18.248       33.847       20.495       16.754     1145.642      420.050      280.706        0.691        0.092      107.923       16.493        0.023      345.397       22.896      860.737
08/31/2014  23:02:00      -72.657       72.045      -18.418       25.503       31.805       18.766      650.391     1011.584      352.174        0.641        0.101      102.320       13.514        0.017      345.409       22.918      860.727
08/31/2014  23:03:00      -46.873      109.180      -13.498       30.255       30.032       19.850      915.391      901.913      394.012        0.826        0.111      118.817       18.528        0.024      345.392       22.887      860.718
08/31/2014  23:04:00      -35.478       94.660      -14.053       24.271       31.058       18.511      589.061      964.573      342.669        0.616        0.095      101.090       18.549        0.034      345.372       22.854      860.708
08/31/2014  23:05:00      -47.406       73.793      -12.298       39.009       37.396       17.754     1521.713     1398.486      315.191        0.554        0.162       87.708        8.155        0.009      345.389       22.884      860.700
08/31/2014  23:06:00      -94.138       -2.009      -11.567       31.891       15.248       11.612     1017.029      232.490      134.832        0.519        0.069       94.159       14.021        0.022      345.154       22.482      860.723
08/31/2014  23:07:00      -32.629       27.838       -8.782       29.341       11.539        9.686      860.891      133.138       93.824        0.150        0.054       42.891       10.815        0.064      345.222       22.598      860.720
08/31/2014  23:08:00       -6.966       59.176      -12.054       26.376       23.396       13.695      695.670      547.387      187.567        0.256        0.072       59.585       11.921        0.040      345.285       22.706      860.729
08/31/2014  23:09:00      -68.258       68.489      -16.200       33.906       43.168       19.989     1149.639     1863.465      399.559        0.651        0.171       96.695       19.636        0.041      345.510       23.091      860.737
08/31/2014  23:10:00      -89.400       84.808      -21.408       37.409       43.903       23.174     1399.436     1927.504      537.050        0.975        0.193      123.226       22.948        0.035      345.434       22.961      860.732
08/31/2014  23:11:00      -72.019       64.912      -13.351       24.647       26.300       12.839      607.465      691.697      164.850        0.552        0.073       96.955       15.964        0.027      345.119       22.421      860.738
08/31/2014  23:12:00      -56.434       54.486      -15.044       27.791       34.800       13.924      772.344     1211.016      193.870        0.428        0.109       78.444       17.306        0.049      345.411       22.923      860.736
08/31/2014  23:13:00      -79.248       32.387      -12.904       16.781       12.188       11.453      281.612      148.548      131.161        0.403        0.028       85.610        7.854        0.008      345.367       22.846      860.731
08/31/2014  23:14:00      -83.787      -23.996      -11.483       14.000       25.587        9.510      196.004      654.711       90.448        0.433        0.047       87.156        5.781        0.004      345.271       22.682      860.744
08/31/2014  23:15:00      -79.412      -33.803       -4.059       29.020       18.994       14.904      842.138      360.764      222.139        0.444        0.071       86.307       14.393        0.028      345.014       22.242      860.750
08/31/2014  23:16:00     -101.154       16.227      -14.725       19.289       20.767        9.184      372.050      431.289       84.342        0.580        0.044      102.447        7.519        0.005      345.045       22.297      860.748
08/31/2014  23:17:00      -64.185       37.881      -16.430       17.346       15.501        9.708      300.882      240.273       94.254        0.323        0.032       74.529        8.129        0.012      345.163       22.497      860.751
08/31/2014  23:18:00      -56.837       41.326       -5.840       21.582       19.063       15.371      465.796      363.382      236.255        0.302        0.053       70.273        8.237        0.014      345.173       22.514      860.745
08/31/2014  23:19:00      -69.621       17.694      -14.417       19.474       30.561       10.262      379.233      933.969      105.317        0.339        0.071       71.834       11.305        0.025      345.172       22.513      860.763
08/31/2014  23:20:00     -104.100        9.810      -11.141       23.637       23.108       16.504      558.724      533.967      272.373        0.621        0.068      104.561        9.801        0.009      345.029       22.269      860.769
08/31/2014  23:21:00      -79.739       71.817      -18.820       38.901       54.678       20.258     1513.256     2989.726      410.370        0.839        0.246      107.313       20.371        0.036      345.013       22.240      860.773
08/31/2014  23:22:00      -47.597       89.294       -5.004       40.226       48.260       29.581     1618.116     2329.009      875.016        0.754        0.241      101.187       33.495        0.110      344.979       22.184      860.759
08/31/2014  23:23:00      -39.042      118.226      -13.418       40.874       41.541       20.214     1670.710     1725.634      408.624        0.974        0.190      124.506       16.863        0.018      345.057       22.315      860.762
08/31/2014  23:24:00     -116.297       59.705      -19.385       23.581       71.200       19.463      556.058     5069.460      378.799        1.173        0.300      130.728       21.755        0.028      345.044       22.294      860.785
08/31/2014  23:25:00     -130.208      -30.729      -19.229       58.362       32.367       20.921     3406.139     1047.598      437.692        1.158        0.245      133.785       14.839        0.012      344.768       21.820      860.802
08/31/2014  23:26:00      -40.935       28.169      -19.840       39.697       37.577       25.463     1575.870     1412.007      648.357        0.325        0.182       49.691       25.326        0.260      344.865       21.985      860.801
08/31/2014  23:27:00      -58.569       74.895       -6.771       37.502       40.365       22.666     1406.415     1629.332      513.770        0.632        0.177       95.077       17.605        0.034      344.988       22.196      860.796
08/31/2014  23:28:00     -102.478      -23.673      -12.670       74.416       60.399       22.606     5537.710     3648.034      511.023        1.046        0.485      105.176        6.823        0.004      344.824       21.916      860.807
08/31/2014  23:29:00      -35.160        0.161       -1.719       55.193       22.652       16.699     3046.271      513.090      278.845        0.254        0.192       35.160       21.279        0.366      344.714       21.729      860.827
08/31/2014  23:30:00     -134.086       16.056      -16.541       41.556       21.785       15.115     1726.906      474.577      228.470        1.047        0.121      135.044       14.909        0.012      344.625       21.578      860.866
08/31/2014  23:31:00      -83.233      104.670      -21.069       28.518       38.649       19.733      813.258     1493.710      389.411        1.051        0.135      133.730       17.137        0.016      344.582       21.503      860.874
08/31/2014  23:32:00        8.093      126.051       -8.824       36.547       35.292       24.139     1335.711     1245.498      582.672        0.960        0.158      126.310       22.335        0.031      344.601       21.536      860.863
08/31/2014  23:33:00      -14.918      148.814      -25.118       32.620       34.621       21.910     1064.075     1198.590      480.069        1.287        0.137      149.560       22.886        0.023      344.785       21.850      860.861
08/31/2014  23:34:00      -45.435      120.031      -23.062       29.767       58.803       19.147      886.086     3457.807      366.596        1.086        0.236      128.343       17.915        0.019      344.815       21.902      860.888
08/31/2014  23:35:00      -56.222      122.263      -10.724       42.455       59.349       24.695     1802.397     3522.307      609.822        1.208        0.297      134.570       27.630        0.042      344.790       21.860      860.897
08/31/2014  23:36:00      -11.582       61.996       -2.115       35.811       66.896       28.712     1282.457     4475.123      824.354        0.528        0.329       63.069       32.828        0.271      344.708       21.719      860.886
08/31/2014  23:37:00       -8.438      133.818       -9.176       38.939       78.521       34.791     1516.253     6165.522     1210.440        1.348        0.445      134.084       36.458        0.074      344.763       21.813      860.874
08/31/2014  23:38:00      -23.904       61.176        1.479       21.536       38.723       18.589      463.800     1499.507      345.547        0.331        0.115       65.681       20.915        0.101      344.707       21.717      860.884
08/31/2014  23:39:00      -78.641       39.617       -1.656       31.052       36.877       25.492      964.208     1359.889      649.853        0.536        0.149       88.056       13.745        0.024      344.753       21.796      860.905
08/31/2014  23:40:00     -103.097       20.701      -15.776       29.720       26.077       15.628      883.292      680.031      244.229        0.656        0.090      105.155       14.605        0.019      344.649       21.618      860.916
08/31/2014  23:41:00      -70.119       48.013      -10.665       38.722       26.533       22.672     1499.422      703.988      513.999        0.503        0.136       84.982       22.355        0.069      344.696       21.697      860.911
08/31/2014  23:42:00      -21.690       85.286       -9.191       47.148       38.765       23.163     2222.935     1502.714      536.525        0.604        0.213       88.001       23.685        0.072      344.778       21.839      860.905
08/31/2014  23:43:00      -94.408       98.032      -22.922       34.578       41.849       22.947     1195.662     1751.371      526.579        1.126        0.174      136.100       15.879        0.014      344.723       21.744      860.905
08/31/2014  23:44:00      -85.059      118.394      -18.032       56.807       52.615       29.292     3226.987     2768.326      858.034        1.421        0.343      145.781       29.280        0.040      344.772       21.828      860.905
08/31/2014  23:45:00      -82.323      135.870      -21.837       36.014       55.903       35.215     1297.006     3125.186     1240.129        1.569        0.283      158.864       25.528        0.026      344.765       21.816      860.908
08/31/2014  23:46:00      -40.305       44.059      -10.669       57.377       32.630       28.991     3292.083     1064.741      840.466        0.444        0.260       59.713       31.661        0.281      344.786       21.852      860.918
08/31/2014  23:47:00       49.014       65.218       -0.897       25.755       26.489       22.986      663.328      701.654      528.368        0.427        0.095       81.583       15.667        0.037      344.648       21.615      860.893
08/31/2014  23:48:00      -23.507       89.321      -17.855       36.226       53.100       16.974     1312.298     2819.622      288.112        0.663        0.221       92.363       19.935        0.047      344.685       21.680      860.900
08/31/2014  23:49:00      -63.392      120.304      -19.349       29.157       35.605       22.603      850.159     1267.717      510.905        1.075        0.131      135.984       16.044        0.014      344.687       21.682      860.919
08/31/2014  23:50:00      -65.346       95.179      -15.064       24.772       24.525       19.089      613.656      601.495      364.376        0.757        0.079      115.452       15.084        0.017      344.701       21.708      860.930
08/31/2014  23:51:00      -16.357       83.413      -12.148       15.982       14.208       12.904      255.416      201.859      166.516        0.400        0.031       85.001        8.777        0.011      344.730       21.757      860.939
08/31/2014  23:52:00      -47.311       79.084      -11.233       16.205       21.881       11.281      262.614      478.796      127.267        0.474        0.043       92.155        6.218        0.005      344.681       21.672      860.931
08/31/2014  23:53:00      -21.062       89.403      -14.597       36.585       38.231       15.588     1338.438     1461.582      242.986        0.585        0.152       91.850       19.571        0.045      344.699       21.704      860.924
08/31/2014  23:54:00      -68.092       48.498       -7.947       48.621       44.904       26.637     2363.980     2016.378      709.521        0.607        0.254       83.598       27.642        0.109      344.705       21.714      860.921
08/31/2014  23:55:00      -91.015       36.971       -5.250       43.943       24.599       21.578     1930.963      605.135      465.614        0.634        0.150       98.237       10.060        0.010      344.575       21.490      860.924
08/31/2014  23:56:00     -112.283       39.209      -10.528       30.103       21.265       16.924      906.192      452.196      286.427        0.795        0.082      118.932       11.617        0.010      344.604       21.540      860.926
08/31/2014  23:57:00     -151.851      -36.874      -16.666       40.085       25.919       15.226     1606.783      671.779      231.825        1.360        0.126      156.264       10.066        0.004      344.518       21.394      860.932
08/31/2014  23:58:00     -111.099       23.726      -15.841       44.066       44.257       21.897     1941.777     1958.691      479.497        0.877        0.219      113.604       15.692        0.019      344.332       21.076      860.945
08/31/2014  23:59:00      -35.065      129.975      -14.066       33.174       49.535       29.243     1100.521     2453.688      855.159        1.136        0.220      134.622       23.774        0.031      344.510       21.379      860.944
